[[{"header":{"parameterUnit":"m.s-1","parameterCategory":1,"la1":30.6,"la2":29.2853,"lo1":-89.7004,"lo2":-87.6739,"dy":0.0162,"dx":0.0183,"nx":112,"ny":82,"refTime":"2023-10-26T18:00:00:Z","depth":0,"parameterNumber":2,"parameterNumberName":"U-component_of_WINDS"},"data":[0.0,0.0,0.0,0.0,0.0,0.0,0.0,0.0,0.0,0.0,0.0,0.0,0.0,0.0,0.0,0.0,0.0,0.0,0.0,0.0,0.0,0.0,0.0,0.0,0.0,0.0,0.0,0.0,0.0,0.0,0.0,0.0,0.0,0.0,0.0,0.0,0.0,0.0,0.0,0.0,0.0,0.0,0.0,0.0,0.0,0.0,0.0,0.0,0.0,0.0,0.0,0.0,0.0,0.0,0.0,0.0,0.0,0.0,0.0,0.0,0.0,0.0,0.0,0.0,0.0,0.0,0.0,0.0,0.0,0.0,0.0,0.0,0.0,0.0,0.0,0.0,0.0,0.0,0.0,0.0,0.0,0.0,0.0,0.0,0.0,0.0,0.0,0.0,0.0,0.0,-2.4273,-2.4173,-2.3729,-2.339,-2.3236,-2.1988,-2.1042,-2.0602,0.0,0.0,0.0,0.0,0.0,0.0,0.0,0.0,0.0,0.0,0.0,0.0,0.0,0.0,0.0,0.0,0.0,0.0,0.0,0.0,0.0,0.0,0.0,0.0,0.0,0.0,0.0,0.0,0.0,0.0,0.0,0.0,0.0,0.0,0.0,0.0,0.0,0.0,0.0,0.0,0.0,0.0,0.0,0.0,0.0,0.0,0.0,0.0,0.0,0.0,0.0,0.0,0.0,0.0,0.0,0.0,0.0,0.0,0.0,0.0,0.0,0.0,0.0,0.0,0.0,0.0,0.0,0.0,0.0,0.0,0.0,0.0,0.0,0.0,0.0,0.0,0.0,0.0,0.0,0.0,0.0,0.0,0.0,0.0,0.0,0.0,0.0,0.0,0.0,0.0,0.0,0.0,0.0,0.0,0.0,0.0,0.0,0.0,0.0,0.0,0.0,0.0,0.0,0.0,-2.3804,-2.3552,-2.3601,-2.3317,-2.2448,-2.2574,-2.1926,-2.0134,0.0,0.0,0.0,0.0,0.0,0.0,0.0,0.0,0.0,0.0,0.0,0.0,0.0,0.0,0.0,0.0,0.0,0.0,0.0,0.0,0.0,0.0,0.0,0.0,0.0,0.0,0.0,0.0,0.0,0.0,0.0,0.0,0.0,0.0,0.0,0.0,0.0,0.0,0.0,0.0,0.0,0.0,0.0,0.0,0.0,0.0,0.0,0.0,0.0,0.0,0.0,0.0,0.0,0.0,0.0,0.0,0.0,0.0,0.0,0.0,0.0,0.0,0.0,0.0,0.0,0.0,0.0,0.0,0.0,0.0,0.0,0.0,0.0,0.0,0.0,0.0,0.0,0.0,0.0,0.0,0.0,0.0,0.0,0.0,0.0,0.0,0.0,0.0,0.0,0.0,0.0,0.0,0.0,0.0,0.0,0.0,0.0,0.0,0.0,0.0,0.0,0.0,0.0,-2.3504,-2.3382,-2.33,-2.338,-2.3238,-2.278,-2.2575,-2.2059,-2.1097,-1.9961,0.0,0.0,0.0,0.0,0.0,0.0,0.0,0.0,0.0,0.0,0.0,0.0,0.0,0.0,0.0,0.0,0.0,0.0,0.0,0.0,0.0,0.0,0.0,0.0,0.0,0.0,0.0,0.0,0.0,0.0,0.0,0.0,0.0,0.0,0.0,0.0,0.0,0.0,0.0,0.0,0.0,0.0,0.0,0.0,0.0,0.0,0.0,0.0,0.0,0.0,0.0,0.0,0.0,0.0,0.0,0.0,0.0,0.0,0.0,0.0,0.0,0.0,0.0,0.0,0.0,0.0,0.0,0.0,0.0,0.0,0.0,0.0,0.0,0.0,0.0,0.0,0.0,0.0,0.0,0.0,0.0,0.0,0.0,0.0,0.0,0.0,0.0,0.0,0.0,0.0,0.0,0.0,0.0,0.0,0.0,0.0,0.0,0.0,0.0,0.0,0.0,0.0,-2.3145,-2.3129,-2.3212,-2.3195,-2.3195,-2.3224,-2.2698,-2.2268,-2.1978,-2.069,0.0,0.0,0.0,0.0,0.0,0.0,0.0,0.0,0.0,0.0,0.0,0.0,0.0,0.0,0.0,0.0,0.0,0.0,0.0,0.0,0.0,0.0,0.0,0.0,0.0,0.0,0.0,0.0,0.0,0.0,0.0,0.0,0.0,0.0,0.0,0.0,0.0,0.0,0.0,0.0,0.0,0.0,0.0,0.0,0.0,0.0,0.0,0.0,0.0,0.0,0.0,0.0,0.0,0.0,0.0,0.0,0.0,0.0,0.0,0.0,0.0,0.0,0.0,0.0,0.0,0.0,0.0,0.0,0.0,0.0,0.0,0.0,0.0,0.0,0.0,0.0,0.0,0.0,0.0,0.0,0.0,0.0,0.0,0.0,0.0,0.0,0.0,0.0,0.0,0.0,0.0,0.0,0.0,0.0,0.0,0.0,0.0,0.0,0.0,0.0,0.0,0.0,-2.3177,-2.3153,-2.3283,-2.3182,-2.3165,-2.3283,-2.3414,-2.3001,-2.1883,-2.1638,0.0,0.0,0.0,0.0,0.0,0.0,0.0,0.0,0.0,0.0,0.0,0.0,0.0,0.0,0.0,0.0,0.0,0.0,0.0,0.0,0.0,0.0,0.0,0.0,0.0,0.0,0.0,0.0,0.0,0.0,0.0,0.0,0.0,0.0,0.0,0.0,0.0,0.0,0.0,0.0,0.0,0.0,0.0,0.0,0.0,0.0,0.0,0.0,0.0,0.0,0.0,0.0,0.0,0.0,0.0,0.0,0.0,0.0,0.0,0.0,0.0,0.0,0.0,0.0,0.0,0.0,0.0,0.0,0.0,0.0,0.0,0.0,0.0,0.0,0.0,0.0,0.0,0.0,0.0,0.0,0.0,0.0,0.0,0.0,0.0,0.0,0.0,0.0,0.0,0.0,0.0,0.0,0.0,0.0,0.0,0.0,0.0,0.0,0.0,0.0,0.0,0.0,-2.2624,-2.2611,-2.2672,-2.2642,-2.2624,-2.2672,-2.2743,-2.2596,-2.2131,0.0,0.0,0.0,0.0,0.0,0.0,0.0,0.0,0.0,0.0,0.0,0.0,0.0,0.0,0.0,0.0,0.0,0.0,0.0,0.0,0.0,0.0,0.0,0.0,0.0,0.0,0.0,0.0,0.0,0.0,0.0,0.0,0.0,0.0,0.0,0.0,0.0,0.0,0.0,0.0,0.0,0.0,0.0,0.0,0.0,0.0,0.0,0.0,0.0,0.0,0.0,0.0,0.0,0.0,0.0,0.0,0.0,0.0,0.0,0.0,0.0,0.0,0.0,0.0,0.0,0.0,0.0,0.0,0.0,0.0,0.0,0.0,0.0,0.0,0.0,0.0,0.0,0.0,0.0,0.0,0.0,0.0,0.0,0.0,0.0,0.0,0.0,0.0,0.0,0.0,0.0,0.0,0.0,0.0,0.0,0.0,0.0,0.0,0.0,0.0,0.0,0.0,-2.2552,-2.2552,-2.2592,-2.2668,-2.2525,-2.246,-2.2552,-2.2487,-2.2419,-2.2419,0.0,0.0,0.0,0.0,0.0,0.0,0.0,0.0,0.0,0.0,0.0,0.0,0.0,0.0,0.0,0.0,0.0,0.0,0.0,0.0,0.0,0.0,0.0,0.0,0.0,0.0,0.0,0.0,0.0,0.0,0.0,0.0,0.0,0.0,0.0,0.0,0.0,0.0,0.0,0.0,0.0,0.0,0.0,0.0,0.0,0.0,0.0,0.0,0.0,0.0,0.0,0.0,0.0,0.0,0.0,0.0,0.0,0.0,0.0,0.0,0.0,0.0,0.0,0.0,0.0,0.0,0.0,0.0,0.0,0.0,0.0,0.0,0.0,0.0,0.0,0.0,0.0,0.0,0.0,0.0,0.0,0.0,0.0,0.0,0.0,0.0,0.0,0.0,0.0,0.0,0.0,0.0,0.0,0.0,0.0,0.0,0.0,0.0,0.0,0.0,0.0,0.0,-2.3079,-2.3079,-2.3188,-2.347,-2.3028,-2.2799,-2.3067,-2.285,-2.2699,0.0,0.0,0.0,0.0,0.0,0.0,0.0,0.0,0.0,0.0,0.0,0.0,0.0,0.0,0.0,0.0,0.0,0.0,0.0,0.0,0.0,0.0,0.0,0.0,0.0,0.0,0.0,0.0,0.0,0.0,0.0,0.0,0.0,0.0,0.0,0.0,0.0,0.0,0.0,0.0,0.0,0.0,0.0,0.0,0.0,0.0,0.0,0.0,0.0,0.0,0.0,0.0,0.0,0.0,0.0,0.0,0.0,0.0,0.0,0.0,0.0,0.0,0.0,0.0,0.0,0.0,0.0,0.0,0.0,0.0,0.0,0.0,0.0,0.0,0.0,0.0,0.0,0.0,0.0,0.0,0.0,0.0,0.0,0.0,0.0,0.0,0.0,0.0,0.0,0.0,0.0,0.0,0.0,0.0,0.0,0.0,0.0,0.0,0.0,0.0,0.0,0.0,0.0,-2.2538,-2.2538,-2.2646,-2.2902,-2.2786,-2.2738,-2.2812,-2.2751,-2.2619,-2.2432,0.0,0.0,0.0,0.0,0.0,0.0,0.0,0.0,0.0,0.0,0.0,0.0,0.0,0.0,0.0,0.0,0.0,0.0,0.0,0.0,0.0,0.0,0.0,0.0,0.0,0.0,0.0,0.0,0.0,0.0,0.0,0.0,0.0,0.0,0.0,0.0,0.0,0.0,0.0,0.0,0.0,0.0,0.0,0.0,0.0,0.0,0.0,0.0,0.0,0.0,0.0,0.0,0.0,0.0,0.0,0.0,0.0,0.0,0.0,0.0,0.0,0.0,0.0,0.0,0.0,0.0,0.0,0.0,0.0,0.0,0.0,0.0,0.0,0.0,0.0,0.0,0.0,0.0,0.0,0.0,0.0,0.0,0.0,0.0,0.0,0.0,0.0,0.0,0.0,0.0,0.0,0.0,0.0,0.0,0.0,0.0,0.0,0.0,0.0,0.0,0.0,0.0,-2.246,-2.246,-2.2528,-2.2685,-2.2592,-2.2542,-2.2542,-2.2542,-2.2474,-2.231,0.0,0.0,0.0,0.0,0.0,0.0,0.0,0.0,0.0,0.0,0.0,0.0,0.0,0.0,0.0,0.0,0.0,0.0,0.0,0.0,0.0,0.0,0.0,0.0,0.0,0.0,0.0,0.0,0.0,0.0,0.0,0.0,0.0,0.0,0.0,0.0,0.0,0.0,0.0,0.0,0.0,0.0,0.0,0.0,0.0,0.0,0.0,0.0,0.0,0.0,0.0,0.0,0.0,0.0,0.0,0.0,0.0,0.0,0.0,0.0,0.0,0.0,0.0,0.0,0.0,0.0,0.0,0.0,0.0,0.0,0.0,0.0,0.0,0.0,0.0,0.0,0.0,0.0,0.0,0.0,0.0,0.0,0.0,0.0,0.0,0.0,0.0,0.0,0.0,0.0,0.0,0.0,0.0,0.0,0.0,0.0,0.0,0.0,0.0,0.0,0.0,0.0,-2.2659,-2.2685,-2.2699,-2.2699,-2.2501,-2.2363,-2.2338,-2.2338,-2.2324,-2.2296,0.0,0.0,0.0,0.0,0.0,0.0,0.0,0.0,0.0,0.0,0.0,0.0,0.0,0.0,0.0,0.0,0.0,0.0,0.0,0.0,0.0,0.0,0.0,0.0,0.0,0.0,0.0,0.0,0.0,0.0,0.0,0.0,0.0,0.0,0.0,0.0,0.0,0.0,0.0,0.0,0.0,0.0,0.0,0.0,0.0,0.0,0.0,0.0,0.0,0.0,0.0,0.0,0.0,0.0,0.0,0.0,0.0,0.0,0.0,0.0,-2.0378,-2.0122,0.0,0.0,0.0,0.0,0.0,0.0,0.0,0.0,0.0,0.0,0.0,0.0,0.0,0.0,0.0,0.0,0.0,0.0,0.0,0.0,0.0,0.0,0.0,0.0,0.0,0.0,0.0,0.0,0.0,0.0,0.0,0.0,0.0,0.0,0.0,0.0,0.0,0.0,0.0,0.0,-2.2394,-2.2582,-2.2699,-2.2699,-2.2838,-2.2833,-2.2632,-2.2605,-2.2511,-2.231,-2.2223,0.0,0.0,0.0,0.0,0.0,0.0,0.0,0.0,0.0,0.0,0.0,0.0,0.0,0.0,0.0,0.0,0.0,0.0,0.0,0.0,0.0,0.0,0.0,0.0,0.0,0.0,0.0,0.0,0.0,0.0,0.0,0.0,0.0,0.0,0.0,0.0,0.0,0.0,0.0,0.0,0.0,0.0,0.0,0.0,0.0,0.0,0.0,0.0,0.0,0.0,0.0,0.0,0.0,0.0,0.0,0.0,0.0,0.0,0.0,-2.1029,-2.058,0.0,0.0,0.0,0.0,0.0,0.0,0.0,0.0,0.0,0.0,0.0,0.0,0.0,0.0,0.0,0.0,0.0,0.0,0.0,0.0,0.0,0.0,0.0,0.0,0.0,0.0,0.0,0.0,0.0,0.0,0.0,0.0,0.0,0.0,0.0,0.0,0.0,0.0,0.0,0.0,-2.2296,-2.2391,-2.2474,-2.2501,-2.2747,-2.2786,-2.2487,-2.2579,-2.2508,-2.2192,-2.2209,0.0,0.0,0.0,0.0,0.0,0.0,0.0,0.0,0.0,0.0,0.0,0.0,0.0,0.0,0.0,0.0,0.0,0.0,0.0,0.0,0.0,0.0,0.0,0.0,0.0,0.0,0.0,0.0,0.0,0.0,0.0,0.0,0.0,0.0,0.0,0.0,0.0,0.0,0.0,0.0,0.0,0.0,0.0,0.0,0.0,0.0,0.0,0.0,0.0,0.0,0.0,0.0,0.0,-2.3389,-2.3472,-2.3472,-2.3472,-2.3665,-2.3876,-2.226,-2.16,-2.1649,-2.1262,0.0,0.0,0.0,0.0,0.0,0.0,0.0,0.0,0.0,0.0,0.0,0.0,0.0,0.0,0.0,0.0,0.0,0.0,0.0,0.0,0.0,0.0,-2.1464,-2.1738,-2.1812,-2.1721,-2.1449,0.0,0.0,0.0,0.0,0.0,0.0,0.0,0.0,0.0,0.0,0.0,-2.2268,-2.2237,-2.2237,-2.2251,-2.2497,-2.2525,-2.218,-2.2371,-2.2351,-2.2027,-2.2106,-2.2168,0.0,0.0,0.0,0.0,0.0,0.0,0.0,0.0,0.0,0.0,0.0,0.0,0.0,0.0,0.0,0.0,0.0,0.0,0.0,0.0,0.0,0.0,0.0,0.0,0.0,0.0,0.0,0.0,0.0,0.0,0.0,0.0,-1.9764,-1.9764,0.0,0.0,0.0,0.0,0.0,0.0,0.0,0.0,0.0,0.0,0.0,0.0,0.0,-2.26,-2.2695,-2.3724,-2.429,-2.4387,-2.5325,-2.5763,-2.5763,-2.5763,-2.5799,-2.5801,-2.4907,0.0,-2.3157,-2.2475,0.0,0.0,0.0,0.0,0.0,0.0,0.0,0.0,0.0,0.0,0.0,0.0,0.0,0.0,0.0,0.0,0.0,0.0,0.0,0.0,0.0,0.0,-2.1753,-2.1797,-2.1812,-2.1797,-2.1736,-2.1783,-2.1797,-2.1736,-2.1825,-2.1897,0.0,0.0,0.0,0.0,0.0,0.0,-2.2214,-2.2312,-2.2275,-2.2056,-2.2292,-2.233,-2.2041,-2.2056,-2.2056,-2.1996,-2.2013,-2.203,-2.203,-2.1749,0.0,0.0,0.0,0.0,0.0,0.0,0.0,0.0,0.0,0.0,0.0,0.0,0.0,0.0,0.0,0.0,0.0,0.0,0.0,0.0,0.0,0.0,0.0,0.0,0.0,0.0,0.0,0.0,0.0,-1.998,-1.998,-1.998,-1.998,-2.015,0.0,0.0,0.0,0.0,0.0,0.0,0.0,0.0,0.0,-2.3499,-2.4099,-2.4627,-2.5032,-2.5758,-2.6336,-2.6747,-2.7585,-2.799,-2.799,-2.799,-2.799,-2.7957,-2.7263,-2.6677,-2.6087,-2.4114,-2.3078,-2.2725,0.0,0.0,0.0,0.0,-2.1979,-2.2004,-2.2229,-2.2312,-2.2344,-2.2539,0.0,0.0,0.0,0.0,0.0,0.0,0.0,-2.1572,-2.1753,-2.1812,-2.1812,-2.1812,-2.1812,-2.1812,-2.1812,-2.1812,-2.1812,-2.1812,-2.1855,-2.1913,-2.1913,-2.2001,0.0,0.0,0.0,-2.2049,-2.2075,-2.2113,-2.2096,-2.2013,-2.2306,-2.2361,-2.1984,-2.2124,-2.2139,-2.1913,-2.1926,-2.194,-2.194,-2.1838,-2.1598,0.0,0.0,0.0,0.0,0.0,0.0,0.0,0.0,0.0,0.0,0.0,0.0,0.0,0.0,0.0,0.0,0.0,0.0,0.0,0.0,0.0,0.0,0.0,0.0,0.0,0.0,0.0,0.0,-2.031,-2.0487,-2.0487,-2.0713,-2.1111,0.0,0.0,0.0,0.0,0.0,0.0,-2.3868,-2.4399,-2.4903,-2.5368,-2.6149,-2.6934,-2.7669,-2.8157,-2.8691,-2.9238,-2.9914,-3.0245,-3.0245,-3.0245,-3.0245,-3.0212,-2.9516,-2.9218,-2.8986,-2.6054,-2.4692,-2.4452,-2.4272,-2.4009,-2.3744,-2.3729,-2.3626,-2.3517,-2.3812,-2.3799,-2.3684,-2.3917,-2.3457,-2.2818,-2.2818,0.0,0.0,0.0,0.0,-2.205,-2.2299,-2.2361,-2.2361,-2.2361,-2.2361,-2.2361,-2.2361,-2.2361,-2.2245,-2.1864,-2.184,-2.1884,-2.1884,-2.1926,0.0,-2.1969,-2.1926,-2.1911,-2.1969,-2.1928,-2.1882,-2.194,-2.2212,-2.224,-2.1913,-2.211,-2.2124,-2.1811,-2.184,-2.1884,-2.1884,-2.1911,-2.1764,-2.1371,0.0,0.0,0.0,0.0,0.0,0.0,0.0,0.0,0.0,0.0,0.0,0.0,0.0,0.0,0.0,0.0,0.0,0.0,0.0,0.0,0.0,0.0,0.0,0.0,0.0,0.0,0.0,0.0,0.0,-2.125,-2.2135,0.0,0.0,0.0,0.0,-2.393,-2.4586,-2.5429,-2.6451,-2.6552,-2.7359,-2.9055,-2.9178,-2.9558,-3.0303,-3.1035,-3.1399,-3.1449,-3.2183,-3.2536,-3.2536,-3.2536,-3.2536,-3.2481,-3.1747,-3.1432,-3.1217,-2.8326,-2.7116,-2.7048,-2.6351,-2.6052,-2.6035,-2.6034,-2.5588,-2.4993,-2.501,-2.4563,-2.3984,-2.3984,-2.3967,-2.3934,-2.3934,-2.3885,0.0,0.0,-2.3852,-2.3868,-2.3884,-2.3884,-2.3884,-2.3884,-2.3884,-2.3884,-2.3884,-2.3884,-2.3487,-2.2077,-2.1796,-2.1812,-2.1812,0.0,-2.1913,-2.1913,-2.1913,-2.1913,-2.1897,-2.184,-2.1812,-2.1796,-2.1842,-2.1842,-2.1812,-2.1811,-2.1811,-2.1812,-2.1796,-2.1812,-2.1812,-2.1796,-2.1663,-2.1309,-2.1325,0.0,0.0,0.0,0.0,0.0,0.0,0.0,0.0,0.0,0.0,0.0,0.0,0.0,0.0,0.0,0.0,0.0,0.0,0.0,0.0,0.0,0.0,0.0,0.0,0.0,0.0,0.0,0.0,-2.298,-2.3594,0.0,-2.5263,-2.557,-2.6234,-2.7395,-2.7725,-2.8223,-2.9099,-2.9613,-3.0149,-3.0803,-3.1288,-3.1653,-3.1901,-3.2183,-3.2315,-3.2315,-3.3044,-3.3415,-3.3415,-3.3415,-3.3415,-3.3359,-3.263,-3.2315,-3.2232,-3.121,-2.995,-2.8638,-2.8373,-2.8009,-2.7611,-2.7611,-2.7464,-2.7214,-2.7214,-2.705,-2.6752,-2.6287,-2.6122,-2.6039,-2.5557,-2.5425,-2.5325,-2.4845,-2.4713,-2.4597,-2.4116,-2.4,-2.4,-2.4,-2.4,-2.4,-2.4,-2.4,-2.3835,-2.3321,-2.3222,-2.3222,-2.3222,-2.2839,-2.2539,-2.2539,-2.2141,-2.184,-2.184,-2.1811,-2.1812,-2.1812,-2.184,-2.184,-2.1796,-2.184,-2.184,-2.1796,-2.1812,-2.1812,-2.1812,-2.1812,-2.1736,-2.1616,-2.1617,-2.1464,0.0,0.0,0.0,0.0,0.0,0.0,0.0,0.0,0.0,0.0,0.0,0.0,0.0,0.0,0.0,0.0,0.0,0.0,0.0,0.0,0.0,0.0,0.0,0.0,0.0,-2.2957,-2.3954,-2.5144,-2.5705,-2.6509,-2.7856,-2.822,-2.8841,-3.0038,-3.0377,-3.0742,-3.1222,-3.1719,-3.2078,-3.2326,-3.2812,-3.3199,-3.3448,-3.3448,-3.3448,-3.3442,-3.3938,-3.417,-3.417,-3.417,-3.417,-3.4137,-3.364,-3.3448,-3.3448,-3.3448,-3.2431,-3.0874,-3.0609,-3.0228,-2.9851,-2.9851,-2.9682,-2.94,-2.8903,-2.8738,-2.8624,-2.7895,-2.7663,-2.758,-2.7081,-2.6949,-2.6833,-2.6352,-2.6203,-2.6104,-2.5607,-2.5475,-2.5475,-2.5475,-2.5292,-2.5111,-2.5111,-2.4911,-2.4746,-2.4746,-2.4348,-2.4,-2.4,-2.3586,-2.3272,-2.3272,-2.2857,-2.2526,-2.2526,-2.2526,-2.2459,-2.221,-2.2222,-2.2122,-2.1829,-2.184,-2.184,-2.1796,-2.1812,-2.1812,-2.1812,-2.1812,-2.1812,-2.1812,-2.1812,-2.1676,-2.1464,0.0,0.0,0.0,0.0,0.0,0.0,0.0,0.0,0.0,0.0,0.0,0.0,0.0,0.0,0.0,0.0,0.0,0.0,0.0,0.0,0.0,0.0,0.0,-2.4109,-2.4613,-2.5739,-2.7696,-2.8415,-2.9272,-3.0447,-3.1217,-3.1648,-3.1664,-3.2332,-3.2752,-3.2768,-3.2768,-3.31,-3.3806,-3.3822,-3.417,-3.4883,-3.4899,-3.4899,-3.4899,-3.4899,-3.4899,-3.4899,-3.4899,-3.4899,-3.4899,-3.4899,-3.4899,-3.4899,-3.4899,-3.4468,-3.3756,-3.3011,-3.2718,-3.2702,-3.2702,-3.2249,-3.1432,-2.9992,-2.9496,-2.9417,-2.8757,-2.8525,-2.8525,-2.8525,-2.8525,-2.8492,-2.8475,-2.8442,-2.8426,-2.8409,-2.8392,-2.8392,-2.8392,-2.7845,-2.7315,-2.7315,-2.6766,-2.6268,-2.6268,-2.511,-2.4116,-2.4083,-2.405,-2.4033,-2.4033,-2.4017,0.0,-2.4,-2.4,-2.3735,-2.3007,-2.2924,-2.2626,-2.1912,-2.1829,-2.1814,-2.1812,-2.1812,-2.1812,-2.1812,-2.1812,-2.1812,-2.1812,-2.1812,-2.1781,-2.1766,0.0,0.0,0.0,0.0,0.0,0.0,0.0,0.0,0.0,0.0,0.0,0.0,0.0,0.0,0.0,0.0,0.0,0.0,0.0,0.0,0.0,-2.5124,-2.6309,-2.6249,-2.6799,-2.8046,-3.0295,-3.0705,-3.1138,-3.2017,-3.2282,-3.2613,-3.316,-3.3375,-3.3723,-3.427,-3.4286,-3.4386,-3.4584,-3.4601,-3.4684,-3.4899,-3.4899,-3.4899,-3.4899,-3.4899,-3.4899,-3.4899,-3.4899,-3.4899,-3.4899,-3.4899,-3.4899,-3.4899,-3.4899,-3.4767,-3.4518,-3.3773,-3.3183,-3.2702,-3.2702,-3.2564,-3.2332,-3.1918,-3.1785,-3.1752,-3.1591,-3.1525,-3.1525,-3.1525,-3.1139,-3.0626,-3.0079,-2.9549,-2.9019,-2.8525,-2.8392,-2.8392,-2.8392,-2.8243,-2.8094,-2.8094,-2.7945,-2.7812,-2.7812,-2.7481,-2.6849,-2.5789,-2.516,-2.4812,-2.4812,-2.4348,-2.4,-2.4,-2.4,-2.3918,-2.3719,-2.3702,-2.3404,-2.2659,-2.2592,-2.2376,-2.1829,-2.1812,-2.1812,-2.1812,-2.1812,-2.1812,-2.1812,-2.1812,-2.1693,0.0,0.0,0.0,0.0,0.0,0.0,0.0,0.0,0.0,0.0,0.0,0.0,0.0,0.0,0.0,0.0,0.0,0.0,0.0,0.0,0.0,0.0,-2.6547,-2.7948,-2.9088,-2.9255,-3.0077,-3.226,-3.2335,-3.2593,-3.3541,-3.3607,-3.3922,-3.4667,-3.4717,-3.5032,-3.5777,-3.5827,-3.5827,-3.5827,-3.5827,-3.5827,-3.5827,-3.5827,-3.5827,-3.5827,-3.5512,-3.5363,-3.5346,-3.5032,-3.4899,-3.4899,-3.4899,-3.4899,-3.4899,-3.4899,-3.4899,-3.4849,0.0,0.0,0.0,0.0,-3.3607,-3.3574,-3.3282,-3.3166,-3.3116,-3.2801,-3.2702,-3.2702,-3.2702,-3.2398,-3.1984,-3.1553,-3.1123,-3.0626,-2.9914,-2.9731,-2.9665,-2.935,-2.9036,-2.8804,-2.8804,-2.8608,-2.8392,-2.8392,-2.8392,0.0,-2.7263,-2.6501,-2.5922,-2.5624,-2.5209,-2.4928,-2.4928,-2.4928,-2.4812,-2.4497,-2.4464,-2.4166,-2.3421,-2.3354,0.0,0.0,0.0,-2.2112,-2.1812,-2.1812,0.0,0.0,0.0,-2.1691,-2.151,-2.1708,0.0,0.0,-2.1308,-2.1166,0.0,0.0,0.0,0.0,0.0,0.0,0.0,0.0,0.0,0.0,0.0,0.0,0.0,0.0,0.0,0.0,-2.789,-2.9512,-3.1953,-3.1814,-3.2128,-3.3842,-3.3693,-3.3875,-3.5057,-3.5148,-3.5413,-3.6075,-3.6125,-3.6406,-3.7069,-3.7102,0.0,0.0,0.0,-3.7102,-3.7102,-3.7102,-3.7102,-3.7102,-3.6439,-3.6125,-3.6108,-3.5446,-3.5098,-3.5015,-3.5015,-3.4982,-3.4899,-3.4899,-3.4899,-3.4899,-3.4899,-3.4899,-3.4899,-3.4899,-3.4899,-3.48,-3.4137,0.0,0.0,-3.3166,-3.2967,-3.2967,-3.2928,-3.2878,-3.2834,-3.2812,-3.2746,-3.2547,-3.1879,-3.1714,-3.1548,-3.0903,-3.0174,-2.9645,-2.9645,-2.9118,-2.8641,-2.8641,-2.8641,-2.8608,-2.8525,-2.7912,-2.7199,-2.6551,-2.6385,-2.6318,-2.6318,-2.6252,-2.5937,-2.5292,-2.5209,0.0,-2.4199,-2.4116,-2.3818,-2.3073,-2.3023,-2.2692,-2.1947,-2.1928,-2.1879,-2.1812,-2.1812,-2.1812,-2.1812,-2.1812,-2.1812,-2.1812,-2.1812,-2.1479,0.0,0.0,0.0,0.0,0.0,0.0,0.0,0.0,0.0,0.0,0.0,0.0,0.0,0.0,0.0,-2.8633,-3.0304,-3.1772,-3.2773,-3.4145,-3.515,-3.5545,-3.5489,-3.5762,-3.658,-3.6671,-3.6738,-3.6887,-3.6887,-3.6953,-3.7102,-3.7102,-3.7102,-3.7102,-3.7102,-3.7102,-3.7102,-3.7102,-3.7102,-3.7102,-3.697,0.0,-3.6887,-3.6738,-3.6357,-3.5794,-3.5794,-3.5446,-3.4899,-3.4899,-3.4899,-3.4899,-3.4899,-3.4899,-3.4899,-3.4899,-3.4899,-3.4883,-3.4733,-3.4684,-3.4651,-3.4518,-3.4468,-3.4445,-3.435,-3.3968,0.0,-3.3459,-3.3075,-3.2669,-3.2514,-3.2481,-3.2448,-3.2299,-3.1719,-3.1168,-3.1168,-3.0605,-3.0075,-3.0075,-3.0075,-2.9893,-2.9317,-2.8638,-2.8144,-2.7995,-2.7481,-2.7083,-2.7083,-2.6568,-2.6152,-2.5987,-2.6005,-2.569,-2.4961,-2.4895,-2.458,-2.3835,-2.3785,-2.3454,-2.2708,-2.2691,-2.241,-2.1812,-2.1812,-2.1812,-2.1812,-2.1812,-2.1812,-2.1812,-2.1812,-2.1721,0.0,0.0,0.0,0.0,0.0,0.0,0.0,0.0,0.0,0.0,0.0,-2.5367,-2.6218,0.0,-2.9181,-3.0233,-3.1408,-3.2638,-3.393,-3.4937,-3.5662,-3.5968,-3.634,-3.6704,-3.7069,-3.7102,-3.7268,-3.7632,-3.7665,-3.7814,-3.8179,-3.8195,-3.8195,-3.8195,-3.8195,-3.8195,-3.8195,-3.8195,-3.8195,-3.8195,-3.7831,-3.7665,-3.7649,-3.7284,-3.6903,-3.6555,-3.6555,-3.634,-3.5976,-3.5595,-3.5446,-3.5413,-3.5032,-3.4875,-3.4804,-3.4804,-3.4763,-3.4691,-3.4691,-3.4938,-3.5251,-3.5251,-3.5482,-3.5737,-3.5678,-3.5243,-3.4804,-3.4715,-3.4275,-3.3707,-3.3365,-3.3265,-3.3166,-3.2801,-3.2415,-3.215,-3.215,-3.1565,-3.1052,-3.1052,-3.0754,-3.0373,-3.0009,-2.9682,-2.9201,-2.8508,-2.8078,-2.7845,-2.7845,-2.7531,-2.7147,-2.6783,-2.675,-2.6452,-2.5705,-2.5308,-2.4944,-2.458,-2.4199,-2.3835,-2.347,-2.3454,-2.3106,-2.2361,-2.2344,-2.2177,-2.1812,-2.1812,-2.1812,-2.1812,-2.1812,-2.1812,0.0,0.0,0.0,0.0,0.0,0.0,0.0,-2.3245,-2.3913,-2.4862,-2.6322,-2.7604,-2.8121,-2.9441,-3.0766,-3.1726,-3.2374,-3.3348,-3.5036,-3.5519,-3.5869,-3.6373,-3.6953,-3.7384,-3.7516,-3.7533,-3.7781,-3.8377,-3.8411,-3.8676,-3.9265,-3.9299,-3.9299,-3.9299,-3.9299,-3.9299,-3.9299,-3.9299,-3.9299,-3.9299,-3.8692,-3.8411,-3.8394,-3.7798,-3.745,-3.7317,-3.7143,-3.7051,-3.6976,-3.6356,-3.6133,-3.6067,-3.5472,-3.5144,-3.5013,-3.4782,-3.4635,-3.4497,-3.4497,-3.489,-3.5381,-3.5381,-3.5856,-3.6387,-3.6368,-3.616,-3.5942,-3.5917,-3.558,-3.5059,-3.4332,-3.415,-3.3951,-3.3224,-3.2927,-3.285,-3.2872,-3.2288,-3.1775,-3.1813,-3.1217,-3.0704,-3.0704,-3.0588,-3.0108,-2.8969,-2.8691,-2.8591,-2.8591,-2.8475,-2.8177,-2.758,-2.7514,-2.7216,-2.6485,-2.574,-2.5308,-2.5308,-2.4762,-2.4365,-2.4216,-2.4216,-2.3868,-2.3123,-2.3106,-2.2808,-2.2243,-2.2243,-2.2243,-2.2212,-2.2094,-2.1945,-2.3767,-2.4013,-2.4513,-2.4335,-2.4702,-2.5273,0.0,-2.6061,-2.6719,-2.8241,-2.8581,-2.9149,-3.0829,-3.1054,-3.1575,-3.3335,-3.4269,-3.5045,-3.5787,-3.7017,-3.7885,-3.7937,-3.8046,-3.8328,-3.9,-3.905,-3.91,-3.9183,-3.9183,-3.9216,-3.9299,-3.9299,-3.9299,-3.9299,-3.9299,-3.9299,-3.9299,-3.9299,-3.9299,-3.9299,-3.9216,-3.9183,-3.9183,-3.91,-3.8692,-3.802,-3.7256,-3.6814,-3.6636,-3.6561,-3.6528,-3.6521,-3.6439,-3.6319,-3.6085,-3.5071,-3.4635,-3.4497,-3.4497,-3.4546,-3.4611,-3.4611,-3.5119,-3.5684,-3.5582,-3.5992,-3.6486,-3.6372,-3.6359,-3.6242,-3.5579,-3.5399,-3.5218,-3.448,-3.3807,-3.3355,-3.3472,-3.2918,-3.243,-3.2541,-3.1984,-3.1482,-3.1482,-3.0936,-3.0439,-3.029,-2.9694,-2.9301,-2.9301,-2.8754,-2.8376,-2.8293,-2.8276,-2.7978,-2.7232,-2.6501,-2.607,-2.607,-2.5987,-2.5656,-2.5011,-2.4978,-2.463,-2.3884,-2.3884,-2.3835,-2.3752,-2.3752,-2.3752,-2.3735,-2.3073,-2.2427,-2.5302,-2.5748,-2.6184,-2.6559,-2.6853,-2.7249,-2.7991,-2.7981,-2.8102,-2.9164,-2.9951,-3.0554,-3.0987,-3.216,-3.3269,-3.3825,-3.4785,-3.5759,-3.6522,-3.7549,-3.8308,-3.8626,-3.8772,-3.8941,-3.9265,-3.9299,-3.9299,-3.9299,-3.9299,-3.9299,-3.9299,-3.9299,-3.9299,-3.9299,-3.9299,-3.9299,-3.9299,-3.9299,-3.9299,-3.9299,-3.9175,-3.9175,-3.9299,-3.9094,-3.8848,-3.8525,-3.8159,-3.7958,-3.7855,-3.7419,-3.7239,-3.7216,-3.678,-3.6512,-3.6293,-3.5437,-3.5036,-3.4845,-3.4422,-3.4552,-3.491,-3.491,-3.5414,-3.6072,-3.6409,-3.6495,-3.646,-3.6424,-3.6218,-3.5955,-3.566,-3.5594,-3.5512,-3.5201,-3.489,-3.4587,-3.4209,-3.3536,-3.305,-3.3096,-3.2572,-3.2122,-3.2122,-3.1571,-3.113,-3.1087,-3.0501,-3.0042,-3.0042,-2.9814,-2.9466,-2.9036,-2.8641,-2.8276,-2.7961,-2.7265,-2.6851,-2.6851,-2.6452,-2.6053,-2.5739,-2.5739,-2.5391,-2.4663,-2.4646,-2.4431,-2.4,-2.3918,-2.3885,-2.3885,-2.3572,-2.3258,-2.6917,-2.738,-2.7643,-2.8449,-2.8803,-2.9122,-2.9802,-2.9659,-2.9598,-3.0405,-3.123,-3.1774,-3.1667,-3.3048,-3.4143,-3.4025,-3.5015,-3.6053,-3.6867,-3.762,-3.8313,-3.8876,-3.9067,-3.9148,-3.9148,-3.9218,-3.9218,-3.9218,-3.9175,-3.9191,-3.9218,-3.9218,-3.9245,-3.9299,-3.9094,-3.8969,-3.8969,-3.8717,-3.8689,-3.8871,-3.8535,-3.8579,-3.8871,-3.8634,-3.8495,-3.8467,-3.8467,-3.8339,-3.8092,-3.7576,-3.7323,-3.7302,-3.6972,-3.675,-3.6615,-3.6107,-3.576,-3.5412,-3.4894,-3.491,-3.5211,-3.5211,-3.5542,-3.6092,-3.6578,-3.6567,-3.636,-3.636,-3.6092,-3.5754,-3.5542,-3.5493,-3.5444,-3.5232,-3.5065,-3.4801,-3.4307,-3.3787,-3.3397,-3.3461,-3.3081,-3.2751,-3.2751,-3.222,-3.172,-3.1504,-3.1051,-3.0653,-3.0438,-3.0443,-3.027,-2.974,-2.9062,-2.8649,-2.8649,-2.797,-2.754,-2.754,-2.6862,-2.6429,-2.6394,-2.6231,-2.5867,-2.5321,-2.5339,-2.5092,-2.4512,-2.4445,-2.4395,-2.4378,-2.4181,-2.4082,-2.8287,-2.8557,-2.8628,-2.9761,-3.0568,-3.1105,-3.1153,-3.1228,-3.1633,-3.2746,-3.2662,-3.2707,-3.3799,-3.3707,-3.3614,-3.4184,-3.5094,-3.5932,-3.6623,-3.7349,-3.8064,-3.8733,-3.8805,-3.8805,-3.8805,-3.8942,-3.8996,-3.8996,-3.8887,-3.8887,-3.8996,-3.8996,-3.9094,-3.9299,-3.8535,-3.8153,-3.8153,-3.7293,-3.7203,-3.7851,-3.7174,-3.7203,-3.7851,-3.7835,-3.7764,-3.7648,-3.7648,-3.7189,-3.6477,-3.6446,-3.6446,-3.6507,-3.713,-3.7368,-3.7363,-3.7279,-3.6837,-3.627,-3.6254,-3.5768,-3.5211,-3.5211,-3.5228,-3.5244,-3.526,-3.5736,-3.6303,-3.6303,-3.6287,-3.6108,-3.5406,-3.5211,-3.5033,-3.432,-3.3704,-3.3293,-3.3417,-3.3427,-3.3437,-3.355,-3.347,-3.3367,-3.3367,-3.276,-3.2085,-3.1494,-3.1322,-3.1013,-3.0309,-3.0316,-3.0401,-3.0384,-2.97,-2.9268,-2.9268,-2.8613,-2.8165,-2.8165,-2.7473,-2.7008,-2.688,-2.6317,-2.5956,-2.5883,-2.5939,-2.5923,-2.585,-2.5906,-2.5906,-2.5834,-2.5167,-2.4838,-2.9291,-3.0158,-3.0895,-3.1367,-3.1665,-3.1905,-3.1971,-3.1723,-3.1698,-3.2476,-3.2201,-3.217,-3.3353,-3.3111,-3.2971,-3.3664,-3.4804,-3.5589,-3.5463,-3.7166,-3.8339,-3.8039,-3.889,-3.9498,-3.9418,-3.9514,-3.9229,-3.827,-3.8735,-3.88,-3.8226,-3.8327,-3.8567,-3.8958,-3.8706,-3.8551,-3.8551,-3.8266,-3.8254,-3.8467,-3.8238,-3.8141,-3.8205,-3.8291,-3.8229,-3.8095,-3.86,-3.8636,-3.8419,-3.8913,-3.8836,-3.8419,-3.8621,-3.8419,-3.7979,-3.7966,-3.781,-3.7434,-3.6109,-3.5173,-3.4604,-3.4604,-3.4604,-3.4682,-3.5149,-3.5433,-3.5641,-3.5641,-3.5334,-3.5,-3.5156,-3.4908,-3.4643,-3.4784,-3.4668,-3.442,-3.3963,-3.3866,-3.3774,-3.3391,-3.3371,-3.3271,-3.2861,-3.2595,-3.2184,-3.1437,-3.0966,-3.059,-3.0244,-3.0231,-3.0269,-3.0269,-3.0056,-2.9908,-2.9908,-2.9214,-2.8788,-2.8788,-2.8099,-2.7669,-2.7633,-2.6714,-2.6321,-2.655,-2.5835,-2.5607,-2.5897,-2.5828,-2.5775,-2.5756,-2.5548,-2.5415,-3.0771,-3.1555,-3.224,-3.2739,-3.2889,-3.2898,-3.2992,-3.2394,-3.1992,-3.2559,-3.2061,-3.1801,-3.278,-3.3027,-3.3153,-3.3373,-3.4407,-3.521,-3.5316,-3.6635,-3.7652,-3.7851,-3.8547,-3.8982,-3.8882,-3.9195,-3.913,-3.8547,-3.8534,-3.8408,-3.8116,-3.8201,-3.8444,-3.8805,-3.8523,-3.8367,-3.8367,-3.7867,-3.7456,-3.7219,-3.7456,-3.7614,-3.7676,-3.7763,-3.7856,-3.7978,-3.8427,-3.8515,-3.8335,-3.8789,-3.8725,-3.8335,-3.8563,-3.8367,-3.7953,-3.82,-3.8134,-3.7745,-3.6505,-3.5591,-3.4986,-3.474,-3.4495,-3.4387,-3.4802,-3.4928,-3.4948,-3.4948,-3.4476,-3.4011,-3.4435,-3.4072,-3.372,-3.4112,-3.4016,-3.3756,-3.3272,-3.3177,-3.3071,-3.2664,-3.2997,-3.3209,-3.2837,-3.2583,-3.221,-3.1416,-3.0779,-3.035,-3.0222,-3.0198,-3.0167,-3.0136,-3.0124,-3.006,-2.9892,-2.9593,-2.9337,-2.9189,-2.8648,-2.8241,-2.8003,-2.728,-2.6792,-2.6638,-2.6146,-2.6002,-2.6254,-2.6234,-2.6144,-2.6051,-2.6089,-2.5942,-3.2571,-3.2761,-3.2669,-3.3772,-3.405,-3.405,-3.3984,-3.314,-3.2492,-3.3013,-3.2226,-3.1638,-3.229,-3.3353,-3.3924,-3.3308,-3.3863,-3.4759,-3.5938,-3.5725,-3.614,-3.8023,-3.7788,-3.7464,-3.7464,-3.8081,-3.8778,-3.9592,-3.8275,-3.773,-3.8448,-3.8476,-3.8516,-3.8678,-3.7953,-3.7531,-3.7531,-3.6166,-3.5121,-3.4501,-3.5154,-3.5791,-3.6465,-3.6462,-3.6787,-3.7336,-3.74,-3.705,-3.6474,-3.6495,-3.6509,-3.6531,-3.7154,-3.7381,-3.7415,-3.8074,-3.7891,-3.736,-3.738,-3.6901,-3.6181,-3.5508,-3.4865,-3.4345,-3.4299,-3.4298,-3.4297,-3.4297,-3.3821,-3.3297,-3.3341,-3.2895,-3.2462,-3.2459,-3.2025,-3.1582,-3.1552,-3.1537,-3.1537,-3.1508,-3.2336,-3.3077,-3.3103,-3.268,-3.2127,-3.1413,-3.0815,-3.0398,-3.021,-3.0204,-3.0138,-2.9977,-2.9956,-2.9786,-2.9328,-2.9671,-2.9716,-2.9328,-2.9075,-2.8667,-2.8034,-2.7912,-2.7338,-2.6274,-2.6761,-2.6983,-2.6865,-2.6988,-2.6919,-2.669,-2.6756,-2.638,-3.2959,-3.3363,-3.3607,-3.3453,-3.3423,-3.3198,-3.2351,-3.1921,-3.1766,-3.1921,-3.1349,-3.1146,-3.2211,-3.1943,-3.1619,-3.1898,-3.2897,-3.3598,-3.3481,-3.4955,-3.6094,-3.6167,-3.7389,-3.8221,-3.8221,-3.795,-3.806,-3.8748,-3.8072,-3.7421,-3.6966,-3.6631,-3.6631,-3.698,-3.6798,-3.6722,-3.6722,-3.6322,-3.6072,-3.5882,-3.6072,-3.6501,-3.714,-3.7098,-3.7411,-3.8068,-3.8566,-3.8668,-3.8576,-3.9129,-3.9023,-3.854,-3.8704,-3.8468,-3.7989,-3.8157,-3.8135,-3.7901,-3.7466,-3.6875,-3.6212,-3.5583,-3.5274,-3.5019,-3.4533,-3.4354,-3.4314,-3.4314,-3.3833,-3.3472,-3.3917,-3.3589,-3.3124,-3.3071,-3.2949,-3.2713,-3.2267,-3.216,-3.2048,-3.1595,-3.1364,-3.1407,-3.1864,-3.1807,-3.1664,-3.1483,-3.1311,-3.0955,-3.0289,-3.0196,-3.0024,-2.9519,-2.9481,-2.9382,-2.9183,-2.8896,-2.885,-2.9136,-2.8732,-2.8397,-2.8232,-2.7396,-2.6949,-2.6934,-2.626,-2.6047,-2.6392,-2.6415,-2.6388,-2.6343,-2.6714,-2.6577,-3.3313,-3.3618,-3.3697,-3.3604,-3.3397,-3.3024,-3.2391,-3.1622,-3.1059,-3.1059,-3.0365,-2.9959,-3.066,-3.0925,-3.1146,-3.1455,-3.2331,-3.3167,-3.3677,-3.4486,-3.5261,-3.5776,-3.6612,-3.7141,-3.7141,-3.6794,-3.6731,-3.711,-3.6858,-3.661,-3.6399,-3.615,-3.6118,-3.6384,-3.6415,-3.6259,-3.5946,-3.5946,-3.5819,-3.5514,-3.5514,-3.6024,-3.6903,-3.6867,-3.7373,-3.8266,-3.8642,-3.8826,-3.8863,-3.9284,-3.9211,-3.8826,-3.8826,-3.8546,-3.8202,-3.8202,-3.8202,-3.8159,-3.7825,-3.7462,-3.6997,-3.6083,-3.5813,-3.5697,-3.5024,-3.4829,-3.4714,-3.4434,-3.392,-3.3513,-3.3857,-3.3493,-3.2995,-3.2976,-3.2736,-3.2421,-3.2076,-3.1805,-3.1595,-3.1508,-3.1234,-3.1087,-3.1422,-3.1508,-3.1393,-3.1146,-3.1117,-3.0923,-3.0447,-3.0335,-3.0137,-2.9741,-2.969,-2.9464,-2.8901,-2.879,-2.8651,-2.8415,-2.8336,-2.8192,-2.7947,-2.7573,-2.7231,-2.7025,-2.6602,-2.6504,-2.6782,-2.6782,-2.6724,-2.6642,-2.6922,-2.6841,-3.3425,-3.3491,-3.3214,-3.3739,-3.3411,-3.2951,-3.2856,-3.1551,-3.034,-3.0167,-2.9292,-2.8578,-2.8578,-2.995,-3.1108,-3.1215,-3.1809,-3.2825,-3.4546,-3.403,-3.4105,-3.5828,-3.5646,-3.54,-3.54,-3.54,-3.54,-3.54,-3.5302,-3.5546,-3.6228,-3.6197,-3.6134,-3.6134,-3.6134,-3.5866,-3.527,-3.527,-3.4971,-3.4414,-3.4414,-3.5038,-3.6185,-3.6272,-3.6954,-3.8086,-3.8173,-3.8202,-3.8202,-3.8202,-3.8202,-3.8202,-3.8202,-3.8202,-3.8202,-3.8202,-3.8202,-3.8202,-3.8202,-3.8202,-3.8014,-3.6823,-3.6446,-3.633,-3.5712,-3.5465,-3.5276,-3.4704,-3.408,-3.3634,-3.3634,-3.318,-3.2713,-3.2672,-3.2208,-3.1758,-3.164,-3.1148,-3.0864,-3.1382,-3.1439,-3.1379,-3.1379,-3.1379,-3.1204,-3.0687,-3.0598,-3.0598,-3.0598,-3.0513,-3.0357,-3.0152,-3.0129,-2.9713,-2.8727,-2.9005,-2.8753,-2.7694,-2.7985,-2.798,-2.7429,-2.7864,-2.768,-2.6806,-2.7188,-2.7403,-2.7403,-2.7403,-2.7315,-2.7152,-2.7199,-2.7111,-3.2598,-3.2629,-3.2574,-3.2656,-3.2206,-3.1585,-3.1083,-3.0325,-2.9468,-2.8391,-2.801,-2.7869,-2.7869,-2.8154,-2.8732,-2.9755,-3.0435,-3.114,-3.2042,-3.2895,-3.3553,-3.3971,-3.4827,-3.54,-3.54,-3.54,-3.54,-3.54,-3.4872,-3.4872,-3.5546,-3.5055,-3.4754,-3.4754,-3.4754,-3.4687,-3.4568,-3.4568,-3.4501,-3.4414,-3.4414,-3.4806,-3.5581,-3.6069,-3.6722,-3.7491,-3.7984,-3.8202,-3.8202,-3.8202,-3.8202,-3.8202,-3.8202,-3.8202,-3.8202,-3.8202,-3.8202,-3.8202,-3.8202,-3.8202,-3.8086,-3.736,-3.7128,-3.7012,-3.6344,-3.5778,-3.5378,-3.5261,-3.4733,-3.424,-3.424,-3.4167,-3.3949,-3.346,-3.3242,-3.3009,-3.2454,-3.183,-3.1382,-3.1474,-3.1112,-3.0747,-3.0747,-3.0747,-3.0717,-3.0612,-3.0598,-3.0598,-3.0598,-3.06,-3.0353,-2.9767,-2.9694,-2.9585,-2.9289,-2.8961,-2.8682,-2.836,-2.8015,-2.7542,-2.6951,-2.7026,-2.6974,-2.6806,-2.6884,-2.6922,-2.6922,-2.6922,-2.6916,-2.6876,-2.729,-2.723,-3.2231,-3.216,-3.1992,-3.2315,-3.1668,-3.0876,-3.0573,-2.9297,-2.7968,-2.7355,-2.6666,-2.6303,-2.6663,-2.7012,-2.7759,-2.9335,-3.0143,-3.0881,-3.1824,-3.2825,-3.3448,-3.3493,-3.4339,-3.4872,-3.4872,-3.4872,-3.4872,-3.4872,-3.4908,-3.4918,-3.4887,-3.4568,-3.4414,-3.4414,-3.4414,-3.4414,-3.4414,-3.4414,-3.4414,-3.4414,-3.4414,-3.4748,-3.5407,-3.5712,-3.6359,-3.7317,-3.7607,-3.7912,-3.8202,-3.8202,-3.8202,-3.8202,-3.8202,-3.8202,-3.8202,-3.8202,-3.8202,-3.8202,-3.8202,-3.8202,-3.8159,-3.7868,-3.7781,-3.7651,-3.7012,-3.662,-3.6228,-3.5595,-3.5174,-3.4835,-3.4501,-3.4414,-3.4341,-3.4037,-3.3736,-3.3329,-3.2658,-3.2234,-3.1915,-3.1553,-3.1279,-3.0959,-3.0656,-3.0598,-3.0598,-3.0598,-3.0598,-3.0598,-3.0598,-3.0598,-3.0481,-3.0147,-3.0118,-2.9959,-2.9544,-2.9288,-2.9012,-2.863,-2.8354,-2.8086,-2.7808,-2.7447,-2.7273,-2.7273,-2.6953,-2.6806,-2.6806,-2.6806,-2.6806,-2.6806,-2.7037,-2.7152,-3.1736,-3.168,-3.1392,-3.1726,-3.0958,-3.0039,-2.9771,-2.8086,-2.6515,-2.6239,-2.5342,-2.4766,-2.5284,-2.5948,-2.6977,-2.872,-2.9662,-3.0557,-3.1664,-3.2654,-3.33,-3.33,-3.3949,-3.4414,-3.4414,-3.4414,-3.4472,-3.4603,-3.5198,-3.5319,-3.4646,-3.4617,-3.4559,-3.4414,-3.4414,-3.4414,-3.4414,-3.4414,-3.4414,-3.4414,-3.4414,-3.4675,-3.5203,-3.5334,-3.5959,-3.691,-3.7186,-3.7578,-3.8028,-3.8144,-3.8202,-3.8202,-3.8202,-3.8202,-3.8202,-3.8202,-3.8202,-3.8202,-3.8202,-3.8202,-3.8202,-3.8202,-3.8202,-3.8115,-3.7651,-3.7404,-3.707,-3.5894,-3.5508,-3.5261,-3.4574,-3.4414,-3.4414,-3.4414,-3.4037,-3.3529,-3.3035,-3.2817,-3.2571,-3.2034,-3.183,-3.1526,-3.0887,-3.0801,-3.0757,-3.0627,-3.0598,-3.0598,-3.0598,-3.0598,-3.0598,-3.0598,-3.0598,-3.0409,-2.9871,-2.9827,-2.9552,-2.8927,-2.8884,-2.884,-2.8723,-2.8202,-2.784,-2.7695,-2.7229,-2.6924,-2.6806,-2.6806,-2.6806,-2.6806,-2.6806,-2.6985,-3.0557,-3.0717,-3.0556,-3.0003,-2.9375,-2.856,-2.7409,-2.6483,-2.5546,-2.4423,-2.4065,-2.3992,-2.4051,-2.4617,-2.5513,-2.6855,-2.8083,-2.9101,-2.9755,-3.1455,-3.26,-3.26,-3.3674,-3.4414,-3.4414,-3.4414,-3.4646,-3.5261,-3.5865,-3.5938,-3.5348,-3.5319,-3.5043,-3.4428,-3.4414,-3.4414,-3.4414,-3.4414,-3.4414,-3.4414,-3.4414,-3.4443,-3.4516,-3.5131,-3.5465,-3.5639,-3.6794,-3.7346,-3.7433,-3.797,-3.8202,-3.8202,-3.8202,-3.8202,-3.8202,-3.8202,-3.8202,-3.8202,-3.8202,-3.8202,-3.8202,-3.8202,-3.8202,-3.8188,-3.813,-3.7738,-3.7157,-3.6417,-3.5807,-3.5261,-3.4574,-3.4414,-3.4414,-3.4414,-3.437,-3.4312,-3.4254,-3.379,-3.3402,-3.3329,-3.2817,-3.2191,-3.154,-3.1438,-3.1235,-3.0685,-3.0598,-3.0598,-3.0598,-3.0598,-3.0598,-3.0598,-3.0598,-3.0583,-3.0525,-3.0525,-3.0205,-2.9552,-2.9508,-2.9276,-2.8723,-2.8651,-2.8318,-2.771,-2.7652,-2.736,-2.6806,-2.6806,-2.6806,-2.6806,-2.6806,-2.6806,-2.9363,-2.9464,-2.9406,-2.9116,-2.8523,-2.7758,-2.6876,-2.5827,-2.4757,-2.3851,-2.3423,-2.334,-2.3725,-2.438,-2.5324,-2.6602,-2.8173,-2.9479,-3.0103,-3.1874,-3.3093,-3.3093,-3.3877,-3.4414,-3.4414,-3.4414,-3.4835,-3.5851,-3.6156,-3.6373,-3.6519,-3.5828,-3.5276,-3.4994,-3.4617,-3.4414,-3.4414,-3.4414,-3.4414,-3.4414,-3.4414,-3.4414,-3.4428,-3.4675,-3.5029,-3.545,-3.6315,-3.6939,-3.736,-3.7955,-3.8202,-3.8202,-3.8202,-3.8202,-3.8202,-3.8202,-3.8202,-3.8202,-3.8202,-3.8202,-3.8202,-3.8202,-3.8202,-3.8202,-3.8202,-3.8028,-3.7709,-3.7085,-3.6446,-3.5793,-3.5189,-3.4704,-3.4414,-3.4414,-3.4414,-3.4414,-3.4414,-3.4211,-3.392,-3.3576,-3.33,-3.289,-3.2237,-3.1756,-3.1438,-3.1177,-3.0814,-3.0598,-3.0598,-3.0598,-3.0598,-3.0598,-3.0598,-3.0598,-3.0598,-3.0598,-3.0496,-3.0219,-3.019,-3.0074,-2.9857,-2.945,-2.9131,-2.8841,-2.8492,-2.7984,-2.7345,-2.7345,-2.7157,-2.6806,-2.6806,-2.6806,-2.8424,-2.8553,-2.851,-2.8322,-2.7719,-2.6946,-2.6167,-2.5056,-2.4022,-2.3378,-2.2953,-2.2864,-2.3357,-2.4192,-2.5158,-2.6083,-2.7984,-2.9566,-3.0205,-3.1992,-3.3285,-3.3474,-3.4022,-3.4414,-3.4414,-3.4588,-3.514,-3.6228,-3.6489,-3.6809,-3.7288,-3.6243,-3.5581,-3.5407,-3.4748,-3.4414,-3.4414,-3.4414,-3.4414,-3.4414,-3.4414,-3.4414,-3.4414,-3.4414,-3.4661,-3.516,-3.5952,-3.6577,-3.707,-3.7883,-3.8202,-3.8202,-3.8202,-3.8202,-3.8202,-3.8202,-3.8202,-3.8202,-3.8202,-3.8202,-3.8202,-3.8202,-3.8202,-3.8202,-3.8202,-3.8202,-3.8072,-3.7476,-3.6693,-3.5923,-3.5508,-3.4893,-3.4414,-3.4414,-3.4414,-3.4414,-3.4414,-3.4414,-3.4283,-3.3833,-3.3779,-3.3543,-3.284,-3.2315,-3.1939,-3.1642,-3.1141,-3.0797,-3.0797,-3.0698,-3.0598,-3.0598,-3.0538,-3.0538,-3.0598,-3.0598,-3.0598,-3.0598,-3.0598,-3.0598,-3.0598,-3.0147,-2.9784,-2.9537,-2.9117,-2.8581,-2.7903,-2.7903,-2.7625,-2.707,-2.7043,-2.69,-2.7897,-2.8197,-2.8054,-2.7454,-2.6866,-2.6079,-2.4808,-2.4008,-2.335,-2.2721,-2.2615,-2.2638,-2.2787,-2.3856,-2.4745,-2.4907,-2.7041,-2.8913,-2.9523,-3.1277,-3.2759,-3.3431,-3.4022,-3.4414,-3.4414,-3.498,-3.5654,-3.6257,-3.6925,-3.7302,-3.7302,-3.6664,-3.6011,-3.5421,-3.4748,-3.4414,-3.4414,-3.4414,-3.4414,-3.4414,-3.4414,-3.4414,-3.4414,-3.4414,-3.4414,-3.4486,-3.5764,-3.6301,-3.6417,-3.768,-3.8202,-3.8202,-3.8202,-3.8202,-3.8202,-3.8202,-3.8202,-3.8202,-3.8202,-3.8202,-3.8202,-3.8202,-3.8202,-3.8202,-3.8202,-3.8202,-3.8072,-3.7476,-3.6373,-3.5407,-3.5392,-3.4893,-3.4414,-3.4414,-3.4414,-3.4414,-3.4414,-3.4414,-3.4414,-3.4399,-3.4399,-3.4129,-3.3326,-3.3177,-3.2895,-3.2021,-3.1535,-3.1305,-3.1305,-3.0883,-3.0598,-3.0598,-3.0417,-3.0387,-3.0568,-3.0598,-3.0598,-3.0598,-3.0598,-3.0598,-3.0598,-3.0598,-3.0203,-2.942,-2.9405,-2.9059,-2.8397,-2.8397,-2.8165,-2.7695,-2.7544,-2.7144,-2.554,-2.5681,-2.5638,-2.5437,-2.516,-2.4739,-2.3875,-2.3433,-2.3073,-2.2451,-2.2394,-2.2477,-2.2523,-2.3636,-2.4583,-2.4632,-2.6745,-2.8785,-2.9968,-3.1022,-3.2298,-3.3935,-3.4283,-3.4414,-3.4414,-3.4588,-3.498,-3.5654,-3.5886,-3.617,-3.6591,-3.6011,-3.561,-3.5407,-3.4748,-3.4414,-3.4414,-3.4414,-3.4414,-3.4414,-3.4414,-3.4414,-3.4414,-3.4414,-3.4414,-3.4486,-3.5764,-3.6301,-3.6402,-3.768,-3.8202,-3.8202,-3.8066,-3.7991,-3.7967,-3.7839,-3.7801,-3.7801,-3.7801,-3.7801,-3.7801,-3.7801,-3.7801,-3.7801,-3.7801,-3.7877,-3.7838,-3.7092,-3.6265,-3.5504,-3.5102,-3.4528,-3.4088,-3.4162,-3.4196,-3.423,-3.438,-3.4312,-3.4196,-3.4196,-3.4108,-3.3997,-3.3727,-3.3312,-3.2906,-3.2606,-3.2082,-3.1557,-3.1143,-3.0962,-3.0707,-3.0307,-3.0203,-3.0219,-3.0387,-3.0387,-3.0387,-3.0387,-3.0507,-3.0598,-3.0598,-3.0477,-3.0286,-3.0024,-2.9918,-2.9543,-2.8869,-2.8869,-2.8584,-2.8039,-2.7594,-2.7237,-2.4141,-2.4344,-2.4344,-2.4344,-2.411,-2.3752,-2.3318,-2.2987,-2.2634,-2.2292,-2.2278,-2.2347,-2.2394,-2.3516,-2.4444,-2.4508,-2.6569,-2.8712,-3.0182,-3.0886,-3.1861,-3.3614,-3.4086,-3.4312,-3.4312,-3.4312,-3.4607,-3.5348,-3.5392,-3.5566,-3.5923,-3.561,-3.529,-3.5043,-3.4617,-3.4414,-3.4414,-3.4414,-3.4414,-3.4414,-3.4312,-3.4346,-3.4414,-3.4312,-3.4477,-3.4835,-3.578,-3.6338,0.0,-3.7558,-3.7976,-3.7953,-3.7853,-3.7777,-3.7777,-3.7663,-3.7625,-3.7625,-3.7625,-3.7625,-3.7625,-3.7625,-3.7625,-3.7586,-3.7495,-3.7625,-3.7691,-3.7191,-3.6396,-3.5611,-3.5253,-3.4525,-3.3931,-3.4005,-3.404,-3.4074,-3.4176,-3.4108,-3.404,-3.404,-3.3951,-3.3896,-3.3793,-3.3451,-3.3146,-3.3064,-3.2525,-3.2018,-3.1667,-3.1244,-3.0865,-3.048,-3.0178,-3.0021,-3.0099,-3.0174,-3.0205,-3.0205,-3.0341,-3.0401,-3.0401,-3.028,-3.0174,-3.0099,-3.0021,-2.9775,-2.9362,-2.9194,-2.8867,-2.8453,-2.784,-2.7555,0.0,-2.3926,-2.3952,-2.3952,-2.3502,-2.3041,-2.3041,-2.2615,0.0,-2.2208,-2.2208,-2.2245,-2.2427,-2.3471,-2.4333,-2.4515,-2.6613,-2.874,-3.0166,-3.0893,-3.17,-3.2782,-3.3604,-3.4094,-3.4094,-3.4094,-3.4441,-3.5256,-3.5299,-3.5299,-3.5299,-3.5299,-3.5024,-3.4361,-3.4346,-3.438,-3.438,-3.438,-3.4346,-3.4346,-3.4176,-3.4162,-3.4346,-3.422,-3.4586,-3.5366,-3.5855,-3.6381,-3.7,-3.7443,-3.7625,-3.7625,-3.7586,-3.7586,-3.7586,-3.7572,-3.7572,-3.7572,-3.7572,-3.7572,-3.7572,-3.7572,-3.7572,-3.7534,-3.7285,-3.739,-3.7572,-3.7529,-3.6616,-3.566,-3.5617,-3.4732,-3.3862,-3.3896,-3.3896,-3.3896,-3.3896,-3.3896,-3.3896,-3.3896,-3.3862,-3.3793,-3.3605,-3.357,-3.3536,-3.3326,-3.2909,-3.2617,-3.2574,-3.1734,-3.1044,-3.0959,-3.031,-2.9803,-2.9716,-2.9943,-3.008,-3.008,-3.008,-3.008,-3.008,-3.008,-3.0005,-2.9808,-2.9777,-2.9777,-2.9777,-2.9362,-2.9078,-2.8944,-2.832,-2.8051,-2.1811,0.0,-2.2644,-2.2644,-2.2531,-2.2419,0.0,-2.2306,-2.2208,-2.2208,-2.2208,-2.2348,-2.2836,-2.3607,-2.4323,-2.4789,-2.6962,-2.8912,-2.9875,-3.1878,-3.3154,-3.2939,-3.3516,-3.3951,-3.3951,-3.3951,-3.4077,-3.4378,-3.4427,-3.4427,-3.4427,-3.4427,-3.4301,-3.4034,-3.402,-3.4088,-3.4162,-3.4088,-3.402,-3.402,-3.3951,-3.3985,-3.4048,-3.4452,-3.4753,-3.4988,-3.6055,-3.6613,-3.6814,-3.7368,-3.7625,-3.7586,-3.7419,-3.738,-3.7341,-3.7187,-3.7148,-3.7148,-3.7148,-3.7148,-3.7148,-3.7148,-3.7148,-3.7049,-3.6545,-3.6844,-3.7242,-3.6622,-3.5878,-3.5187,-3.4671,-3.3994,-3.3466,-3.364,-3.3675,-3.3709,-3.3862,-3.3793,-3.3675,-3.3675,-3.3536,-3.3431,-3.3396,-3.3361,-3.3361,-3.3326,-3.3199,-3.2967,-3.2523,-3.2247,-3.1697,-3.0725,-3.0453,-2.9921,-2.8899,-2.9453,-2.9884,-2.9884,-3.0005,-3.008,-3.008,-2.996,-2.9853,-2.9808,-2.9713,-2.9665,-2.9665,-2.9555,-2.9484,-2.9425,-2.882,-2.8538,-2.0896,-2.1434,-2.1817,-2.1817,-2.202,-2.2208,-2.2208,-2.2208,-2.2208,-2.2208,-2.2433,-2.2704,-2.3041,-2.4095,-2.5035,-2.5372,-2.7481,-2.9465,-3.0475,-3.2535,-3.3585,-3.2775,-3.3326,-3.3744,-3.3744,-3.3744,-3.3848,-3.4005,-3.4005,-3.4005,-3.4005,-3.4005,-3.3985,-3.3896,-3.3827,-3.3848,-3.4005,-3.3931,-3.3896,-3.3896,-3.3827,-3.397,-3.4339,-3.4562,-3.5018,-3.5725,-3.6322,-3.6726,-3.6988,-3.7238,-3.7303,-3.7303,-3.7187,-3.7148,-3.7148,-3.7017,-3.6978,-3.6978,-3.6978,-3.6978,-3.6978,-3.6978,-3.6796,-3.6539,-3.6216,-3.6221,-3.6231,-3.5817,-3.5245,-3.466,-3.4287,-3.374,-3.3326,-3.3431,-3.3466,-3.3501,-3.3605,-3.3536,-3.3466,-3.3466,-3.3361,-3.329,-3.329,-3.329,-3.329,-3.329,-3.329,-3.3164,-3.2862,-3.2243,-3.1481,-3.056,-2.9871,-2.9118,-2.8137,-2.8473,-2.8871,-2.9188,-2.9296,-2.9512,-2.9865,-2.9435,-2.9219,-2.9219,-2.9449,-2.9432,-2.9089,-2.9089,-2.9089,-2.9075,-2.8757,-2.8605,-2.0308,-2.0833,-2.1302,-2.1375,-2.1722,-2.2114,-2.2184,-2.2208,-2.2236,-2.232,-2.2732,-2.3182,-2.3463,-2.4741,-2.5851,-2.6132,-2.8113,-3.008,-3.1443,-3.2798,-3.3377,-3.2629,-3.3141,-3.3536,-3.3536,-3.3536,-3.364,-3.3862,-3.3862,-3.3862,-3.3862,-3.3862,-3.3862,-3.3827,-3.3739,-3.3782,-3.3921,-3.3836,-3.3836,-3.3921,-3.3782,-3.4108,-3.4861,-3.4767,-3.5427,-3.6621,-3.6519,-3.6769,-3.7226,-3.707,-3.6978,-3.6978,-3.6978,-3.6978,-3.6978,-3.6978,-3.6978,-3.6978,-3.6978,-3.6978,-3.6964,-3.6866,-3.6539,-3.6075,-3.5878,-3.5456,-3.5034,-3.4936,-3.4562,-3.4175,-3.409,-3.3598,-3.3136,-3.3276,-3.3206,-3.3157,-3.3276,-3.3206,-3.3122,-3.3122,-3.3016,-3.2945,-3.2945,-3.3051,-3.3086,-3.2945,-3.3051,-3.3086,-3.2945,-3.1881,-3.0956,-3.0396,-2.9186,-2.816,-2.752,-2.7503,-2.7703,-2.8136,-2.8298,-2.8648,-2.9243,-2.868,-2.833,-2.833,-2.8962,-2.8962,-2.833,-2.833,-2.833,-2.833,-2.833,-2.833,-1.963,-2.0245,-2.0833,-2.1302,-2.1471,-2.164,-2.2114,-2.2208,-2.2348,-2.2859,-2.3041,-2.3589,-2.5177,-2.5275,-2.5667,-2.7257,-2.8675,-3.0235,-3.2019,-3.2461,-3.2776,-3.3129,-3.3269,-3.3361,-3.3361,-3.3361,-3.3431,-3.364,-3.364,-3.364,-3.364,-3.364,-3.357,-3.3396,-3.3867,-3.4134,-3.417,-3.3649,-3.3649,-3.417,-3.4134,-3.4458,-3.5136,-3.5634,-3.5972,-3.6221,-3.669,-3.6972,-3.7017,-3.7017,-3.6978,-3.6978,-3.6978,-3.6978,-3.6978,-3.6978,-3.6978,-3.6978,-3.6978,-3.6978,-3.6908,-3.6413,-3.6188,-3.592,-3.4829,-3.4413,-3.4231,-3.3747,-3.388,-3.4076,-3.3557,-3.2844,-3.2461,-3.3122,-3.2775,-3.2461,-3.3157,-3.2775,-3.2268,-3.2268,-3.1709,-3.1267,-3.1267,-3.1819,-3.2051,-3.1378,-3.1869,-3.2051,-3.1341,-3.1077,-3.0727,-3.0112,-2.9463,-2.8585,-2.7366,-2.7386,-2.7284,-2.6744,-2.7304,-2.7703,-2.7815,-2.7703,-2.7637,-2.7637,-2.7769,-2.7769,-2.7637,-2.7637,-2.7637,-2.7637,-2.7637,-2.7637,-1.9131,-1.9448,-1.9927,-2.0759,-2.141,-2.1902,-2.2137,-2.2461,-2.276,-2.3041,-2.3645,-2.4376,-2.5233,-2.6033,-2.713,-2.8956,-3.0024,-3.1036,-3.2244,-3.2693,-3.3002,-3.3262,-3.3585,-3.3655,-3.3319,-3.3585,-3.3677,-3.3459,-3.3741,-3.3924,-3.3924,-3.427,-3.4417,-3.4309,-3.459,-3.4731,-3.4731,-3.445,-3.445,-3.4731,-3.4731,-3.5054,-3.5695,-3.5977,-3.6286,-3.661,-3.6866,-3.6978,-3.6978,-3.6978,-3.6978,-3.7021,-3.7358,-3.7484,-3.7526,-3.7903,-3.7779,-3.7484,-3.7484,-3.6747,-3.5822,-3.5546,-3.4687,-3.3664,-3.307,-3.2691,-3.238,-3.2059,-3.2839,-3.3556,-3.2858,-3.239,-3.2074,-3.2028,-3.1723,-3.1563,-3.1905,-3.1723,-3.1439,-3.1439,-3.1156,-3.0895,-3.0895,-3.123,-3.1341,-3.097,-3.1217,-3.1304,-3.097,-3.0519,-3.0049,-2.9486,-2.8533,-2.7591,-2.6685,-2.6402,-2.6333,-2.638,-2.7082,-2.7317,-2.6913,-2.7284,-2.7317,-2.6913,-2.7317,-2.7317,-2.6913,-2.6913,-2.6913,-2.6913,-2.6913,-2.6913,-1.8732,-1.8946,-1.9344,-2.0207,-2.1115,-2.193,-2.2306,-2.276,-2.3182,-2.3477,-2.4306,-2.5189,-2.5766,-2.7256,-2.883,-3.0076,-3.0853,-3.1485,-3.2103,-3.2721,-3.3122,-3.3262,-3.3697,-3.381,-3.3333,-3.3712,-3.3796,-3.3319,-3.3852,-3.4203,-3.4203,-3.4829,-3.5189,-3.5189,-3.533,-3.54,-3.54,-3.5541,-3.5541,-3.54,-3.54,-3.5723,-3.6314,-3.6314,-3.6581,-3.6978,-3.6978,-3.6978,-3.6978,-3.6978,-3.7063,-3.7245,-3.7723,-3.799,-3.8187,-3.8719,-3.8593,-3.809,-3.7861,-3.6696,-3.5233,-3.4697,-3.3381,-3.1927,-3.1665,-3.1273,-3.0895,-3.0895,-3.1796,-3.2596,-3.1978,-3.1673,-3.1452,-3.1007,-3.0745,-3.067,-3.0857,-3.0745,-3.0632,-3.0632,-3.0481,-3.0342,-3.0342,-3.0481,-3.0557,-3.0367,-3.0481,-3.0557,-3.0367,-2.9819,-2.9245,-2.886,-2.7797,-2.6801,-2.6154,-2.5612,-2.5546,-2.6104,-2.6676,-2.6744,-2.6173,-2.6676,-2.671,-2.6139,-2.671,-2.671,-2.6139,-2.6139,-2.6139,-2.6139,-2.6139,-2.6139,-1.8614,-1.9093,-1.9617,-1.9811,-2.0283,-2.1114,-2.2669,-2.3069,-2.3435,-2.4627,-2.495,-2.571,-2.8001,-2.9462,-3.0161,-2.9743,-3.0193,-3.0792,-3.1471,-3.2075,-3.2679,-3.322,-3.3333,-3.3333,-3.329,-3.3333,-3.3333,-3.329,-3.3852,-3.4203,-3.4203,-3.4829,-3.5189,-3.5189,-3.5738,-3.6047,-3.6047,-3.661,-3.661,-3.6047,-3.6047,-3.6356,-3.6922,-3.6922,-3.695,-3.6978,-3.6978,-3.6978,-3.6978,-3.6978,-3.7316,-3.7835,-3.7878,-3.8271,-3.8846,-3.8888,-3.8874,-3.8695,-3.777,-3.7041,-3.6157,-3.4176,-3.3078,-3.2346,-3.1274,-3.0921,-3.0895,-3.0895,-3.097,-3.1044,-3.1007,-3.0443,-3.0037,-3.0745,-3.0329,-2.9999,-3.0745,-3.0291,-2.9781,-2.9781,-2.9172,-2.8657,-2.8657,-2.9289,-2.951,-2.8776,-2.9289,-2.9523,-2.8776,-2.8618,-2.8566,-2.853,-2.7981,-2.7198,-2.619,-2.5612,-2.5312,-2.5382,-2.5441,-2.5441,-2.537,-2.5441,-2.5441,-2.537,-2.5441,-2.5441,-2.5382,-2.5382,-2.5382,-2.5382,-2.5382,-2.5382,-1.8587,-1.8907,-1.9403,-2.012,-2.0732,-2.1326,-2.1895,-2.2887,-2.39,-2.4819,-2.5605,-2.6764,-2.8872,-2.9336,-2.9687,-3.0628,-3.0965,-3.1345,-3.1963,-3.2595,-3.3059,-3.3262,-3.3627,-3.3697,-3.3333,-3.3627,-3.3697,-3.3319,-3.3852,-3.4371,-3.4815,-3.5405,-3.5934,-3.6314,-3.6553,-3.668,-3.668,-3.6866,-3.6866,-3.668,-3.668,-3.6768,-3.6978,-3.6978,-3.6978,-3.6978,-3.6978,-3.6978,-3.7021,-3.7386,-3.7681,-3.7936,-3.809,-3.8542,-3.9006,-3.8442,-3.7937,-3.7528,-3.7166,-3.5624,-3.3713,-3.2902,-3.1486,-2.998,-2.953,-2.9406,-2.9406,-2.9406,-2.9406,-2.951,-3.0037,-2.9922,-2.9665,-2.9445,-2.9184,-2.904,-2.9328,-2.9184,-2.8949,-2.8949,-2.8697,-2.851,-2.851,-2.8736,-2.8843,-2.855,-2.8776,-2.8843,-2.855,-2.851,-2.851,-2.851,-2.8041,-2.7284,-2.619,-2.5913,-2.5661,-2.5336,-2.5312,-2.5312,-2.5312,-2.5312,-2.5312,-2.5312,-2.5312,-2.5312,-2.5312,-2.5312,-2.5312,-2.5312,-2.5312,-2.5312,-1.8587,-1.8905,-1.9426,-2.0345,-2.1167,-2.1818,-2.2164,-2.3264,-2.4502,-2.5381,-2.6856,-2.828,-2.9406,-2.9588,-2.9996,-3.1288,-3.1485,-3.171,-3.2328,-3.2932,-3.329,-3.329,-3.3655,-3.374,-3.3333,-3.3655,-3.374,-3.3319,-3.3852,-3.4399,-3.4871,-3.539,-3.5836,-3.6253,-3.6462,-3.6573,-3.6573,-3.6861,-3.6978,-3.6978,-3.6978,-3.6978,-3.6978,-3.6978,-3.6978,-3.6978,-3.6978,-3.6978,-3.7021,-3.7442,-3.7676,-3.7784,-3.8148,-3.8506,-3.8675,-3.8024,-3.7502,-3.7033,-3.658,-3.4895,-3.2855,-3.2057,-3.0543,-2.8943,-2.8607,-2.851,-2.851,-2.851,-2.851,-2.8618,-2.9184,-2.9328,-2.9172,-2.8618,-2.851,-2.851,-2.851,-2.851,-2.851,-2.851,-2.851,-2.851,-2.851,-2.851,-2.851,-2.851,-2.851,-2.851,-2.851,-2.851,-2.851,-2.851,-2.8041,-2.7344,-2.6442,-2.6202,-2.5865,-2.5336,-2.5312,-2.5312,-2.5312,-2.5312,-2.5312,-2.5312,-2.5312,-2.5312,-2.5312,-2.5312,-2.5312,-2.5312,-2.5312,-2.5312,-1.856,-1.9085,-1.9757,-2.0442,-2.1469,-2.2606,-2.3745,-2.4409,-2.5211,-2.6553,-2.8771,-3.0301,-2.9698,-3.0642,-3.1485,-3.1499,-3.1499,-3.171,-3.2328,-3.2932,-3.329,-3.329,-3.329,-3.329,-3.329,-3.329,-3.329,-3.329,-3.3852,-3.4189,-3.4203,-3.4492,-3.468,-3.4694,-3.5343,-3.5709,-3.5709,-3.6533,-3.6978,-3.6978,-3.6978,-3.6978,-3.6978,-3.6978,-3.6978,-3.6978,-3.6978,-3.6978,-3.6978,-3.6993,-3.7121,-3.7458,-3.8041,-3.8065,-3.7795,-3.775,-3.775,-3.7521,-3.6003,-3.5102,-3.4259,-3.1721,-3.0518,-2.9881,-2.8835,-2.851,-2.851,-2.851,-2.851,-2.851,-2.851,-2.851,-2.851,-2.851,-2.851,-2.851,-2.851,-2.851,-2.851,-2.851,-2.851,-2.851,-2.851,-2.851,-2.851,-2.851,-2.851,-2.851,-2.851,-2.851,-2.851,-2.851,-2.8002,-2.7474,-2.6946,-2.643,-2.5877,-2.5348,-2.5312,-2.5312,-2.5312,-2.5312,-2.5312,-2.5312,-2.5312,-2.5312,-2.5312,-2.5312,-2.5312,-2.5312,-2.5312,-2.5312,-1.8449,-1.9014,-1.9729,-2.0311,-2.1383,-2.259,-2.3683,-2.5114,-2.6676,-2.8428,-2.9364,-2.9782,-2.9554,-3.0206,-3.0914,-3.1309,-3.1797,-3.2342,-3.296,-3.3178,-3.329,-3.329,-3.329,-3.329,-3.329,-3.329,-3.329,-3.329,-3.3459,-3.374,-3.4175,-3.4135,-3.4248,-3.468,-3.47,-3.4733,-3.4733,-3.4979,-3.544,-3.6084,-3.544,-3.5776,-3.6978,-3.6978,-3.6652,-3.6084,-3.6084,-3.5696,-3.5128,-3.5611,-3.61,-3.6492,-3.595,-3.5731,-3.5537,-3.4856,-3.465,-3.4579,-3.4108,-3.3345,-3.2479,-3.1709,-3.0567,-2.9472,-2.916,-2.8799,-2.851,-2.851,-2.851,-2.851,-2.851,-2.851,-2.851,-2.851,-2.851,-2.851,-2.851,-2.851,-2.851,-2.851,-2.851,-2.851,-2.851,-2.851,-2.851,-2.851,-2.851,-2.851,-2.851,-2.851,-2.851,-2.851,-2.8366,-2.8065,-2.7498,-2.6958,-2.6417,-2.5901,-2.5516,-2.5312,-2.5312,-2.5312,-2.5312,-2.5312,-2.5312,-2.5312,-2.5312,-2.5312,-2.5312,-2.5312,-2.5312,-2.5312,-1.8464,-1.9223,-2.0136,-2.0662,-2.1714,-2.3115,-2.4991,-2.6303,-2.7489,-2.8882,-2.9596,-2.9953,-2.99,-3.0452,-3.1086,-3.164,-3.2096,-3.2506,-3.2763,-3.281,-3.281,-3.281,-3.281,-3.281,-3.281,-3.281,-3.2704,-3.2367,-3.2331,-3.2531,-3.285,-3.2633,-3.2738,-3.333,-3.342,-3.3585,-3.3762,-3.4139,-3.4596,-3.5156,-3.4555,-3.4884,-3.5936,-3.5936,-3.5642,-3.5156,-3.5156,-3.4815,-3.4332,-3.474,-3.5024,-3.5208,-3.4591,-3.4237,-3.4086,-3.3504,-3.3284,-3.326,-3.3056,-3.2551,-3.197,-3.1536,-3.0555,-2.9581,-2.9364,-2.8931,-2.851,-2.851,-2.851,-2.851,-2.851,-2.851,-2.851,-2.851,-2.851,-2.851,-2.851,-2.851,-2.851,-2.851,-2.851,-2.851,-2.851,-2.851,-2.851,-2.851,-2.851,-2.851,-2.851,-2.8431,-2.8431,-2.8471,-2.8431,-2.8215,-2.7726,-2.739,-2.6885,-2.6142,-2.5793,-2.5493,-2.5218,-2.5276,-2.5276,-2.5206,-2.5206,-2.5206,-2.5206,-2.5206,-2.5241,-2.5312,-2.5312,-2.5264,-1.8587,-1.9559,-2.0701,-2.1182,-2.2242,-2.3903,-2.6778,-2.7449,-2.7705,-2.8432,-2.9559,-3.0395,-3.0308,-3.0918,-3.1581,-3.2081,-3.2221,-3.2201,-3.2006,-3.2037,-3.2074,-3.2001,-3.2037,-3.2074,-3.2001,-3.2001,-3.1673,-3.097,-3.0895,-3.0895,-3.0895,-3.0648,-3.0743,-3.1295,-3.1805,-3.2344,-3.2895,-3.3691,-3.4098,-3.4181,-3.4098,-3.4098,-3.4181,-3.4264,-3.4264,-3.4181,-3.4098,-3.4056,-3.4056,-3.4056,-3.3871,-3.3608,-3.3608,-3.3396,-3.314,-3.314,-3.314,-3.3068,-3.2587,-3.243,-3.2262,-3.1276,-3.0591,-3.0062,-2.9532,-2.9003,-2.857,-2.8522,-2.8471,-2.8471,-2.8471,-2.8471,-2.8431,-2.8431,-2.8471,-2.851,-2.851,-2.851,-2.851,-2.851,-2.851,-2.851,-2.851,-2.851,-2.851,-2.851,-2.851,-2.851,-2.8471,-2.8299,-2.8259,-2.8431,-2.8259,-2.8068,-2.7759,-2.7714,-2.7234,-2.6201,-2.6093,-2.5756,-2.5111,-2.5218,-2.5206,-2.5087,-2.5087,-2.5087,-2.5087,-2.5087,-2.5147,-2.5229,-2.5205,-2.5087,-1.8449,-1.9419,-2.0478,-2.0597,-2.2132,-2.3973,-2.5141,-2.6049,-2.7157,-2.8938,-2.9564,-2.9609,-2.8966,-2.9794,-3.0589,-3.0601,-3.0937,-3.1209,-3.1167,-3.1709,-3.1856,-3.1217,-3.1709,-3.1856,-3.123,-3.1156,-3.1082,-3.0932,-3.0895,-3.0895,-3.0895,-3.0648,-3.0743,-3.1295,-3.1203,-3.1454,-3.1945,-3.2164,-3.2618,-3.328,-3.2575,-3.2618,-3.331,-3.3972,-3.393,-3.3237,-3.2575,-3.2239,-3.2239,-3.2239,-3.2237,-3.2139,-3.2139,-3.2124,-3.2054,-3.2054,-3.2054,-3.2042,-3.1934,-3.1886,-3.1849,-3.1609,-3.1187,-3.0645,-3.0074,-2.9544,-2.9039,-2.8631,-2.8391,-2.8259,-2.8259,-2.8151,-2.8042,-2.8042,-2.8271,-2.851,-2.851,-2.851,-2.851,-2.851,-2.851,-2.851,-2.851,-2.851,-2.851,-2.851,-2.851,-2.8431,-2.8299,-2.8219,-2.8139,-2.8042,-2.8002,-2.7926,-2.7848,-2.7605,-2.7121,-2.6316,-2.6014,-2.5562,-2.4885,-2.5052,-2.5052,-2.4861,-2.4861,-2.4861,-2.4861,-2.5016,-2.5028,-2.4874,-2.4366,-2.4026,-1.8394,-1.9392,-2.0544,-2.1117,-2.2539,-2.398,-2.4636,-2.5632,-2.6696,-2.7795,-2.8573,-2.9045,-2.894,-2.9692,-3.0263,-3.0122,-3.0553,-3.0782,-3.0367,-3.067,-3.0782,-3.0367,-3.0707,-3.0782,-3.0367,-3.0342,-3.019,-2.9781,-2.9742,-2.9742,-2.9742,-2.964,-2.9782,-3.0323,-3.0458,-3.0747,-3.132,-3.1585,-3.1913,-3.237,-3.1913,-3.1957,-3.2413,-3.2864,-3.2821,-3.237,-3.1913,-3.1705,-3.1705,-3.1705,-3.1705,-3.1705,-3.1705,-3.1705,-3.1705,-3.1705,-3.1705,-3.1705,-3.1705,-3.1705,-3.1705,-3.1705,-3.1256,-3.0647,-3.0372,-2.9845,-2.9249,-2.8714,-2.8466,-2.8326,-2.8089,-2.8002,-2.7893,-2.7893,-2.8042,-2.8231,-2.8351,-2.8351,-2.8351,-2.8351,-2.8351,-2.8311,-2.8231,-2.8203,-2.8203,-2.8203,-2.8203,-2.8151,-2.807,-2.7938,-2.7857,-2.7893,-2.78,-2.7748,-2.7893,-2.7754,-2.7364,-2.6717,-2.6276,-2.5559,-2.4445,-2.4292,-2.4383,-2.4646,-2.467,-2.4658,-2.4658,-2.4765,-2.4601,-2.4189,-2.3802,-2.3324,-1.8394,-1.9392,-2.0676,-2.186,-2.2919,-2.3838,-2.4462,-2.5369,-2.6155,-2.6493,-2.749,-2.8487,-2.904,-2.9462,-2.9754,-2.9774,-3.0077,-3.0113,-2.945,-2.9564,-2.9665,-2.951,-2.9626,-2.9665,-2.9523,-2.9471,-2.9223,-2.855,-2.851,-2.851,-2.851,-2.851,-2.8751,-2.928,-2.9809,-3.0338,-3.091,-3.144,-3.1705,-3.1705,-3.1705,-3.1705,-3.1705,-3.1705,-3.1705,-3.1705,-3.1705,-3.1705,-3.1705,-3.1705,-3.1705,-3.1705,-3.1705,-3.1705,-3.1705,-3.1705,-3.1705,-3.1705,-3.1705,-3.1705,-3.1705,-3.1661,-3.1185,-3.0597,-3.047,-3.0021,-2.9413,-2.8873,-2.8662,-2.8445,-2.8087,-2.787,-2.7771,-2.7771,-2.7771,-2.7841,-2.8099,-2.8139,-2.8139,-2.8139,-2.8139,-2.8111,-2.7921,-2.7893,-2.7893,-2.7893,-2.7893,-2.7881,-2.7841,-2.7534,-2.736,-2.7534,-2.736,-2.7307,-2.7534,-2.7586,-2.7417,-2.7034,-2.6376,-2.5409,-2.4022,-2.3504,-2.3494,-2.4032,-2.4177,-2.4251,-2.4241,-2.4298,-2.3899,-2.3217,-2.3091,-2.2586,-1.8394,-1.9392,-2.0634,-2.1663,-2.2547,-2.324,-2.3817,-2.4374,-2.519,-2.6754,-2.7383,-2.762,-2.7608,-2.7611,-2.7782,-2.829,-2.8237,-2.8084,-2.7968,-2.8966,-2.9445,-2.8736,-2.9302,-2.9445,-2.8736,-2.8657,-2.8618,-2.851,-2.851,-2.851,-2.851,-2.851,-2.8751,-2.928,-2.9809,-3.0338,-3.091,-3.144,-3.1705,-3.1705,-3.1705,-3.1705,-3.1705,-3.1705,-3.1705,-3.1705,-3.1705,-3.1705,-3.1705,-3.1705,-3.1705,-3.1705,-3.1705,-3.1705,-3.1705,-3.1705,-3.1705,-3.1705,-3.1705,-3.1705,-3.1661,-3.1439,-3.1258,-3.1071,-3.0425,-3.0161,-2.9997,-2.9437,-2.8841,-2.8354,-2.8242,-2.777,-2.7313,-2.7313,-2.7313,-2.7394,-2.7841,-2.7921,-2.7921,-2.7921,-2.7921,-2.7921,-2.7893,-2.7893,-2.7893,-2.7893,-2.7893,-2.7841,-2.7563,-2.6857,-2.631,-2.608,-2.6038,-2.6038,-2.608,-2.631,-2.649,-2.6576,-2.5525,-2.4557,-2.3786,-2.3286,-2.2762,-2.2182,-2.2847,-2.3206,-2.3184,-2.3371,-2.2972,-2.2006,-2.1443,-2.1,-1.9076,-1.9765,-2.0558,-2.1632,-2.2456,-2.3156,-2.3685,-2.4386,-2.525,-2.6369,-2.6901,-2.7176,-2.7208,-2.7208,-2.714,-2.7016,-2.7378,-2.7678,-2.7678,-2.8475,-2.8882,-2.855,-2.8803,-2.8882,-2.855,-2.851,-2.851,-2.851,-2.851,-2.851,-2.851,-2.851,-2.8619,-2.8847,-2.9653,-3.0194,-3.0434,-3.1296,-3.1705,-3.1705,-3.1705,-3.1705,-3.1705,-3.1705,-3.1705,-3.1705,-3.1705,-3.1705,-3.1705,-3.1705,-3.1705,-3.1705,-3.1705,-3.1705,-3.1705,-3.1705,-3.1617,-3.1484,-3.1484,-3.1407,-3.1285,-3.1196,-3.1038,-3.0857,-3.05,-3.0308,-3.0115,-2.9616,-2.8813,-2.8005,-2.7467,-2.6675,-2.6095,-2.6335,-2.6445,-2.6475,-2.6682,-2.6857,-2.6951,-2.6951,-2.7249,-2.7516,-2.7516,-2.7516,-2.7516,-2.7516,-2.7516,-2.7476,-2.7342,-2.6517,-2.5913,-2.5819,-2.5368,-2.5073,-2.5073,-2.5168,-2.5293,-2.538,-2.5085,-2.4358,-2.3076,-2.2853,-2.2296,-2.1416,-2.2018,-2.2334,-2.235,-2.2419,-2.1967,-2.1062,-2.0757,-2.0322,-1.928,-1.9831,-2.0429,-2.1748,-2.2488,-2.3091,-2.3685,-2.447,-2.5264,-2.5793,-2.6334,-2.6783,-2.7088,-2.7022,-2.6744,-2.6203,-2.6899,-2.7534,-2.7666,-2.8174,-2.851,-2.851,-2.851,-2.851,-2.851,-2.851,-2.851,-2.851,-2.851,-2.851,-2.851,-2.851,-2.851,-2.851,-2.9412,-2.9953,-3.0086,-3.1175,-3.1705,-3.1705,-3.1705,-3.1661,-3.1617,-3.1661,-3.1661,-3.1617,-3.1661,-3.1705,-3.1705,-3.1705,-3.1661,-3.1617,-3.1617,-3.1584,-3.154,-3.154,-3.1407,-3.1229,-3.1229,-3.1139,-3.0984,-3.0927,-3.0769,-3.0578,-3.0532,-3.0352,-3.009,-2.9466,-2.8656,-2.7751,-2.6703,-2.5737,-2.5168,-2.5391,-2.5453,-2.5537,-2.5735,-2.5799,-2.5852,-2.606,-2.6321,-2.658,-2.6798,-2.6674,-2.6592,-2.6798,-2.6828,-2.6828,-2.6828,-2.606,-2.5358,-2.5147,-2.452,-2.4145,-2.4145,-2.4145,-2.4253,-2.4469,-2.442,-2.3836,-2.2567,-2.2351,-2.188,-2.0967,-2.1184,-2.1385,-2.1453,-2.1474,-2.1016,-2.022,-2.022,-1.9867,-1.85,-1.9335,-2.0332,-2.2051,-2.2601,-2.2917,-2.3619,-2.4181,-2.4676,-2.524,-2.5769,-2.6298,-2.6828,-2.6491,-2.613,-2.6093,-2.6549,-2.7114,-2.7618,-2.8174,-2.851,-2.851,-2.851,-2.851,-2.851,-2.851,-2.851,-2.851,-2.851,-2.851,-2.851,-2.851,-2.851,-2.851,-2.9051,-2.9581,-3.0086,-3.1175,-3.1705,-3.1705,-3.1705,-3.1572,-3.135,-3.1572,-3.1572,-3.135,-3.1572,-3.1705,-3.1705,-3.1705,-3.1528,-3.1306,-3.1306,-3.1184,-3.1029,-3.1029,-3.1029,-3.1029,-3.1029,-3.1029,-3.0972,-3.0724,-3.0623,-3.0532,-3.0306,-3.0216,-2.9977,-2.9026,-2.8399,-2.7692,-2.6222,-2.5461,-2.5003,-2.4645,-2.4584,-2.4787,-2.561,-2.5158,-2.4829,-2.5663,-2.5158,-2.4914,-2.5746,-2.521,-2.4914,-2.5746,-2.5872,-2.5872,-2.5872,-2.5115,-2.4231,-2.3357,-2.3183,-2.3183,-2.3183,-2.3183,-2.3547,-2.4419,-2.3226,-2.2443,-2.2491,-2.2026,-2.1366,-2.0562,-2.0172,-2.0193,-2.0555,-2.0564,-2.0171,-1.935,-1.935,-1.935,-1.8441,-1.9305,-2.0191,-2.1482,-2.216,-2.271,-2.3442,-2.3988,-2.4644,-2.5601,-2.5961,-2.6274,-2.6789,-2.6729,-2.6597,-2.6597,-2.7054,-2.7474,-2.7654,-2.8174,-2.851,-2.851,-2.851,-2.851,-2.851,-2.851,-2.851,-2.851,-2.851,-2.851,-2.851,-2.851,-2.8431,-2.8299,-2.8934,-2.9713,-3.0579,-3.1356,-3.1705,-3.1705,-3.1705,-3.1572,-3.1306,-3.1395,-3.1306,-3.1107,-3.1196,-3.1318,-3.1439,-3.1318,-3.1196,-3.1107,-3.1107,-3.1062,-3.0984,-3.0984,-3.0871,-3.0724,-3.0724,-3.0634,-3.0454,-3.0352,-3.0352,-3.0306,-3.0216,-3.0216,-2.9988,-2.9002,-2.8118,-2.7165,-2.5734,-2.4519,-2.3676,-2.3622,-2.3617,-2.3704,-2.3996,-2.4307,-2.4402,-2.4125,-2.4307,-2.4616,-2.4904,-2.4701,-2.4627,-2.4914,-2.4956,-2.4956,-2.4956,-2.4178,-2.3487,-2.3139,-2.2545,-2.2201,-2.2201,-2.2201,-2.235,-2.2688,-2.2786,-2.2577,-2.2015,-2.2154,-2.1778,-2.0921,-2.0488,-2.0245,-2.0121,-1.9867,-1.9564,-1.9301,-1.9301,-1.9301,-1.8393,-1.9331,-2.034,-2.1411,-2.1987,-2.2514,-2.323,-2.3853,-2.4445,-2.5027,-2.5589,-2.6056,-2.6247,-2.6571,-2.6882,-2.7138,-2.745,-2.775,-2.7957,-2.8294,-2.851,-2.851,-2.851,-2.851,-2.851,-2.851,-2.851,-2.851,-2.851,-2.851,-2.851,-2.8431,-2.8311,-2.8111,-2.8898,-2.9684,-3.0377,-3.1181,-3.1528,-3.1451,-3.1528,-3.1395,-3.1083,-3.1172,-3.1095,-3.0883,-3.0883,-3.1005,-3.1184,-3.1062,-3.0927,-3.0883,-3.0883,-3.0826,-3.0736,-3.0736,-3.0634,-3.0487,-3.0487,-3.0352,-3.0216,-3.0216,-3.0216,-3.0125,-2.9795,-2.9703,-2.9428,-2.806,-2.72,-2.6383,-2.4956,-2.3645,-2.2705,-2.2628,-2.2624,-2.2624,-2.2624,-2.3105,-2.3464,-2.3139,-2.3367,-2.3681,-2.3973,-2.3757,-2.3681,-2.3973,-2.4016,-2.4016,-2.4016,-2.3487,-2.2965,-2.2668,-2.2078,-2.1696,-2.1696,-2.1696,-2.1696,-2.1696,-2.2272,-2.2326,-2.1741,-2.204,-2.1931,-2.1328,-2.09,-2.0551,-2.0287,-1.9774,-1.9506,-1.9506,-1.935,-1.9301,0.0,0.0,0.0,-2.1825,-2.2124,-2.2317,-2.3007,-2.3715,-2.4043,-2.3342,-2.4555,-2.5562,-2.5171,-2.5884,-2.679,-2.7531,-2.7666,-2.7858,-2.8414,-2.8498,-2.851,-2.851,-2.851,-2.851,-2.851,-2.851,-2.851,-2.851,-2.851,-2.851,-2.851,-2.8299,-2.8111,-2.7933,-2.8856,-2.9374,-2.9397,-3.0628,-3.1172,-3.0984,-3.1184,-3.1026,-3.0623,-3.0883,-3.0826,-3.0578,-3.0578,-3.0736,-3.0984,-3.0984,-3.0826,-3.0578,-3.0578,-3.0442,-3.0216,-3.0216,-3.0216,-3.0216,-3.0216,-3.0216,-3.0216,-3.0216,-3.0216,-3.0034,-2.9002,-2.8678,-2.8305,-2.6264,-2.5693,-2.5353,-2.3871,-2.2895,-2.219,-2.1787,-2.1696,-2.1696,-2.1696,-2.1696,-2.1945,-2.2887,-2.2334,-2.1989,-2.2887,-2.229,-2.1989,-2.2921,-2.3052,-2.3052,-2.3052,-2.3052,-2.2711,-2.1776,-2.1696,-2.1696,-2.1696,-2.1696,-2.1696,-2.1696,-2.1696,-2.1696,-2.1696,-2.1696,-2.1696,-2.1696,-2.1346,-2.1123,-2.1114,-2.0315,-1.9914,-1.9916,-1.9506,-1.9301,-1.7531,0.0,0.0,0.0,0.0,0.0,-2.1609,-2.2247,-2.2878,-2.3213,-2.3352,-2.3717,-2.4708,-2.5242,-2.5814,-2.6757,-2.7234,-2.7571,-2.7882,-2.8139,-2.8339,-2.8471,-2.851,-2.851,-2.851,-2.8391,-2.8339,-2.8471,-2.8391,-2.8339,-2.8471,-2.8163,-2.7962,-2.7893,-2.8368,-2.8841,-2.9385,-3.0131,-3.0673,-3.0984,-3.1062,-3.0916,-3.0623,-3.0679,-3.0578,-3.0306,-3.0306,-3.0352,-3.0408,-3.0408,-3.0397,-3.0306,-3.0306,-3.0261,-3.0216,-3.0216,-3.0216,-3.0216,-3.0216,-3.0216,-3.0216,-3.0216,-3.0216,-3.0034,-2.9002,-2.8678,-2.8305,-2.6264,-2.5693,-2.5286,-2.3529,-2.2904,-2.2556,-2.1851,-2.1696,-2.1696,-2.1696,-2.1696,-2.1776,-2.2033,-2.1865,-2.1776,-2.2033,-2.1865,-2.1776,-2.2033,-2.2078,-2.2078,-2.2078,-2.2078,-2.1989,-2.1731,-2.1696,-2.1696,-2.1696,-2.1696,-2.1696,-2.1696,-2.1696,-2.1696,-2.1696,-2.1696,-2.1696,-2.1696,-2.1579,-2.1516,-2.1516,-2.0736,-2.0345,-2.0327,-1.9916,-1.9564,-1.7572,-1.8127,-1.867,-1.8938,0.0,0.0,-2.0885,-2.1385,-2.1918,-2.2573,-2.2718,-2.2995,-2.3874,-2.4354,-2.4921,-2.5726,-2.6295,-2.6747,-2.7165,-2.7412,-2.7647,-2.7992,-2.8107,-2.8218,-2.8367,-2.8259,-2.8219,-2.8243,-2.8151,-2.807,-2.8099,-2.7869,-2.7708,-2.7598,-2.7992,-2.8491,-2.9087,-2.9729,-3.0255,-3.0646,-3.0781,-3.0679,-3.0442,-3.0442,-3.0352,-3.0216,-3.0216,-3.0216,-3.0216,-3.0216,-3.0216,-3.0216,-3.0216,-3.0216,-3.0216,-3.0216,-3.0216,-3.0216,-3.0216,-3.0216,-3.0216,-3.0216,-2.9943,-2.9371,-2.8376,-2.7767,-2.7115,-2.5499,-2.5069,-2.4733,-2.3304,-2.2904,-2.2702,-2.1888,-2.1696,-2.1696,-2.1696,-2.1696,-2.1696,-2.1696,-2.1696,-2.1696,-2.1696,-2.1696,-2.1696,-2.1696,-2.1696,-2.1696,-2.1696,-2.1696,-2.1696,-2.1696,-2.1696,-2.1696,-2.1696,-2.1696,-2.1696,-2.1696,-2.1696,-2.1696,-2.1696,-2.1696,-2.1696,-2.1696,-2.1696,-2.1696,-2.1696,-2.106,-2.0648,-2.0472,-2.0245,-1.9916,-1.7867,-1.8307,-1.8777,-1.8777,-1.8844,0.0,-2.033,-2.0718,-2.0986,-2.1495,-2.2091,-2.2558,-2.2649,-2.3201,-2.3816,-2.4351,-2.4888,-2.555,-2.638,-2.6498,-2.6712,-2.7213,-2.7478,-2.772,-2.8076,-2.8096,-2.8051,-2.7962,-2.7933,-2.7788,-2.751,-2.7522,-2.7412,-2.7231,-2.7667,-2.8161,-2.8689,-2.9366,-2.9831,-3.0216,-3.0442,-3.0442,-3.0216,-3.0216,-3.0216,-3.0216,-3.0216,-3.0125,-3.0023,-3.0023,-3.008,-3.017,-3.008,-3.0023,-3.0034,-2.9886,-2.9886,-2.9886,-2.9886,-2.9886,-2.9886,-2.9886,-2.9279,-2.8341,-2.7342,-2.6398,-2.5499,-2.4489,-2.4202,-2.4018,-2.3114,-2.2904,-2.2702,-2.1888,-2.1696,-2.1696,-2.1696,-2.1696,-2.1696,-2.1696,-2.1696,-2.1696,-2.1696,-2.1696,-2.1696,-2.1696,-2.1696,-2.1696,-2.1696,-2.1696,-2.1696,-2.1696,-2.1696,-2.1696,-2.1696,-2.1696,-2.1696,-2.1696,-2.1696,-2.1696,-2.1696,-2.1696,-2.1696,-2.1696,-2.1696,-2.1696,-2.1696,-2.1346,-2.0953,-2.058,-2.0569,-2.0356,-1.7107,-1.721,-1.7314,-1.7314,-1.7774,0.0,-1.8508,-1.9001,-1.9435,-1.9535,-1.9675,-1.9922,-2.0328,-2.0949,-2.1517,-2.1966,-2.3003,-2.4218,-2.5587,-2.5972,-2.6215,-2.6473,-2.6688,-2.7016,-2.7501,-2.7404,-2.7541,-2.8115,-2.8002,-2.7788,-2.751,-2.7522,-2.7412,-2.7231,-2.7282,-2.7805,-2.8689,-2.8835,-2.9353,-3.0216,-3.0261,-3.0261,-3.0216,-3.0216,-3.0216,-3.0216,-3.0216,-2.9749,-2.9002,-2.9002,-2.9474,-3.0125,-2.9325,-2.9002,-2.8899,-2.8085,-2.7804,-2.7804,-2.7804,-2.7804,-2.7804,-2.7804,-2.7662,-2.7284,-2.6302,-2.5839,-2.5499,-2.4489,-2.4202,-2.4018,-2.3114,-2.2904,-2.2702,-2.1888,-2.1696,-2.1696,-2.1696,-2.1696,-2.1696,-2.1696,-2.1696,-2.1696,-2.1696,-2.1696,-2.1696,-2.1696,-2.1696,-2.1696,-2.1696,-2.1696,-2.1696,-2.1696,-2.1696,-2.1696,-2.1696,-2.1696,-2.1696,-2.1696,-2.1696,-2.1696,-2.1696,-2.1696,-2.1696,-2.1696,-2.1696,-2.1696,-2.1696,-2.1633,-2.14,-2.0998,-2.0968,-2.0771,-1.7257,-1.7202,-1.7156,-1.6954,-1.7166,0.0,0.0,-1.8263,-1.861,-1.8944,-1.9011,-1.9217,-1.9958,-2.0435,-2.0883,-2.1486,-2.2572,-2.3379,-2.3682,-2.4614,-2.5375,-2.5744,-2.6042,-2.6356,-2.6801,-2.6991,-2.7289,-2.7661,-2.7598,-2.7476,-2.7383,-2.733,-2.7301,-2.719,-2.719,-2.7702,-2.8689,-2.87,-2.9206,-3.0216,-3.0216,-3.0216,-3.0216,-3.0216,-2.9932,-2.9474,-2.9474,-2.8899,-2.7955,-2.7955,-2.8236,-2.8656,-2.8143,-2.7955,-2.7908,-2.7379,-2.7189,-2.7189,-2.7189,-2.7189,-2.7189,-2.7189,-2.6867,-2.635,-2.5829,-2.5362,-2.4824,-2.4341,-2.4202,-2.4064,-2.3361,-2.3059,-2.2748,-2.2135,-2.1833,-2.1696,-2.1696,-2.1696,-2.1696,-2.1696,-2.1696,-2.1696,-2.1696,-2.1696,-2.1696,-2.1696,-2.1696,-2.1696,-2.1696,-2.1696,-2.1696,-2.1696,-2.1696,-2.1696,-2.1696,-2.1696,-2.1696,-2.1696,-2.1696,-2.1696,-2.1696,-2.1696,-2.1696,-2.1696,-2.1696,-2.1696,-2.1696,-2.1696,-2.1579,-2.14,-2.14,-2.1176,-1.7734,-1.7614,-1.7541,-1.722,-1.7138,-1.7278,0.0,0.0,0.0,-1.8737,-1.8829,-1.9051,-1.9829,-2.0165,-2.0497,-2.1093,-2.2071,-2.2462,-2.1642,-2.2931,-2.4192,-2.4788,-2.5279,-2.5712,-2.6068,-2.6569,-2.6939,-2.7047,-2.7082,-2.7087,-2.7179,-2.719,-2.719,-2.719,-2.719,-2.7702,-2.8689,-2.87,-2.9206,-3.0216,-3.0216,-3.008,-2.9886,-2.9886,-2.9371,-2.8434,-2.8434,-2.7861,-2.6904,-2.6904,-2.6809,-2.6617,-2.6856,-2.6904,-2.6914,-2.6713,-2.6617,-2.6617,-2.6617,-2.6617,-2.6617,-2.6617,-2.6061,-2.5401,-2.5401,-2.4824,-2.4202,-2.4202,-2.4202,-2.411,-2.3599,-2.3261,-2.2913,-2.2501,-2.2171,-2.195,-2.195,-2.1931,-2.192,-2.192,-2.192,-2.1866,-2.1741,-2.175,-2.1803,-2.1803,-2.1866,-2.192,-2.192,-2.192,-2.192,-2.192,-2.192,-2.192,-2.192,-2.1857,-2.1803,-2.1803,-2.175,-2.1696,-2.1696,-2.1696,-2.1696,-2.1696,-2.1696,-2.1696,-2.1696,-2.1696,-2.1696,-2.1696,-2.1696,-2.1516,-1.8127,-1.8017,-1.7999,-1.7999,-1.7953,-1.7981,-1.8055,0.0,-1.8092,-1.8202,0.0,-1.823,-1.835,0.0,0.0,-1.902,-2.0062,-2.0769,-2.0653,-2.1489,-2.2392,-2.3189,-2.4086,-2.4853,-2.5366,-2.5867,-2.6252,-2.6559,-2.6593,-2.6749,-2.7167,-2.719,-2.719,-2.719,-2.719,-2.7702,-2.8689,-2.87,-2.9206,-3.0216,-3.0216,-2.9749,-2.8863,-2.8863,-2.833,-2.7379,-2.7379,-2.6819,-2.5887,-2.5887,-2.5353,-2.4627,-2.5499,-2.5887,-2.5732,-2.4873,-2.4529,-2.4529,-2.4529,-2.4529,-2.4529,-2.4529,-2.444,-2.435,-2.435,-2.4301,-2.4202,-2.4202,-2.4202,-2.411,-2.3599,-2.3462,-2.3325,-2.2931,-2.2796,-2.2751,-2.2751,-2.2781,-2.2777,-2.2777,-2.2777,-2.2551,-2.1803,-2.1983,-2.2208,-2.2208,-2.2551,-2.2777,-2.2777,-2.2777,-2.2777,-2.2777,-2.2777,-2.2777,-2.2777,-2.2443,-2.2208,-2.2208,-2.1911,-2.1696,-2.1696,-2.1696,-2.1696,-2.1696,-2.1696,-2.1696,-2.1696,-2.1696,-2.1696,-2.1696,-2.1696,-2.1687,-1.8577,-1.8467,-1.8374,-1.8145,-1.8091,-1.8091,-1.8091,-1.8091,-1.8091,-1.8091,0.0,0.0,0.0,0.0,0.0,0.0,-1.9848,-2.0352,-1.9883,-2.0952,-2.1918,-2.2258,-2.2745,-2.3453,-2.4454,-2.5156,-2.5808,-2.6444,-2.6501,-2.6691,-2.7156,-2.719,-2.719,-2.719,-2.719,-2.7702,-2.8689,-2.87,-2.8898,-2.9325,-2.9325,-2.8806,-2.7814,-2.7814,-2.7295,-2.635,-2.635,-2.5781,-2.4824,-2.4824,-2.4587,-2.4251,-2.4686,-2.4824,-2.4775,-2.435,-2.4202,-2.4202,-2.4202,-2.4202,-2.4202,-2.4202,-2.4202,-2.4202,-2.4202,-2.4202,-2.4202,-2.4202,-2.4202,-2.4165,-2.3941,-2.3721,-2.3453,-2.3288,-2.3092,-2.2899,-2.2899,-2.2908,-2.2926,-2.2926,-2.2926,-2.2777,-2.2464,-2.2551,-2.2669,-2.2669,-2.2778,-2.289,-2.289,-2.289,-2.289,-2.289,-2.289,-2.289,-2.289,-2.2767,-2.2666,-2.2671,-2.2497,-2.2272,-2.2037,-2.2037,-2.192,-2.1696,-2.1696,-2.1696,-2.1696,-2.1696,-2.1696,-2.1696,-2.1696,-2.1696,-1.9182,-1.9045,-1.8914,-1.855,-1.8449,-1.8449,-1.8449,-1.8449,-1.8449,-1.8449,-1.8449,0.0,0.0,0.0,-1.8971,-1.9256,0.0,-1.9962,-1.9381,-2.0343,-2.1183,-2.1413,-2.1745,-2.2326,-2.3297,-2.3946,-2.4751,-2.5888,-2.5718,-2.6039,-2.7156,-2.6974,-2.6921,-2.719,-2.719,-2.7702,-2.8689,-2.87,-2.871,-2.8678,-2.8678,-2.8002,-2.6809,-2.6809,-2.6254,-2.5314,-2.5314,-2.4873,-2.4202,-2.4202,-2.4202,-2.4202,-2.4202,-2.4202,-2.4202,-2.4202,-2.4202,-2.4202,-2.4202,-2.4202,-2.4202,-2.4202,-2.4202,-2.4202,-2.4202,-2.4202,-2.4202,-2.4202,-2.4202,-2.4202,-2.4202,-2.3932,-2.3712,-2.3712,-2.3469,-2.3279,-2.3279,-2.3266,-2.3281,-2.3281,-2.3281,-2.3277,-2.3278,-2.3155,-2.3057,-2.3054,-2.3153,-2.326,-2.326,-2.326,-2.326,-2.326,-2.326,-2.326,-2.326,-2.3134,-2.3026,-2.2898,-2.2879,-2.276,-2.2465,-2.2451,-2.2272,-2.1866,-2.1857,-2.1687,-2.1346,-2.157,-2.157,-2.1346,-2.1579,-2.157,-2.0058,-1.9847,-1.9747,-1.9366,-1.9265,-1.9265,-1.9265,-1.9265,-1.9265,-1.9265,-1.9265,-1.9265,-1.9283,-1.9283,-1.9283,-1.9301,-1.9301,0.0,0.0,-1.9341,-1.9687,-2.0459,-2.1298,-2.1804,-2.1852,-2.1901,-2.266,-2.4423,-2.3735,-2.4392,-2.7051,-2.6351,-2.6268,-2.719,-2.719,-2.7702,-2.8689,-2.87,-2.871,-2.8678,-2.8678,-2.7683,-2.5742,-2.5742,-2.5216,-2.4251,-2.4251,-2.4251,-2.4202,-2.4202,-2.4202,-2.4202,-2.4202,-2.4202,-2.4202,-2.4202,-2.4202,-2.4202,-2.4202,-2.4202,-2.4202,-2.4202,-2.4202,-2.4202,-2.4202,-2.4202,-2.4202,-2.4202,-2.4202,-2.4202,-2.4202,-2.4192,-2.4183,-2.4183,-2.4165,-2.4156,-2.4156,-2.4165,-2.4165,-2.4165,-2.4165,-2.4156,-2.4137,-2.3795,-2.3467,-2.3465,-2.3854,-2.4143,-2.4143,-2.4143,-2.4143,-2.4143,-2.4143,-2.4143,-2.4143,-2.3755,-2.33,-2.2938,-2.288,-2.288,-2.288,-2.2871,-2.2678,-2.2272,-2.2272,-2.1633,-2.0339,-2.1239,-2.123,-2.0384,-2.1293,-2.123,-2.0393,-2.0278,-2.0186,-1.9815,-1.9714,-1.9641,-1.9366,-1.9301,-1.9301,-1.9301,-1.9301,-1.9301,-1.9301,-1.9301,-1.9301,-1.9301,-1.9301,-1.9301,0.0,-1.9301,-1.942,-1.9687,-2.0421,-2.0924,-2.0924,-2.1451,-2.2293,-2.348,-2.3273,-2.3771,-2.5347,-2.5126,-2.5084,-2.539,-2.539,-2.583,-2.6786,-2.6797,-2.6736,-2.6686,-2.6686,-2.6022,-2.4686,-2.4686,-2.4538,-2.4202,-2.4202,-2.4202,-2.4202,-2.4202,-2.4202,-2.4202,-2.4202,-2.4202,-2.4202,-2.4202,-2.4202,-2.4202,-2.4202,-2.4202,-2.4202,-2.4202,-2.4202,-2.4202,-2.4202,-2.4202,-2.4202,-2.4202,-2.4202,-2.4202,-2.4202,-2.4202,-2.4202,-2.4202,-2.4202,-2.4202,-2.4202,-2.4202,-2.4202,-2.4202,-2.4202,-2.4202,-2.4202,-2.4068,-2.3949,-2.3943,-2.4084,-2.4202,-2.4202,-2.4202,-2.4202,-2.4202,-2.4202,-2.4202,-2.4202,-2.4066,-2.389,-2.3764,-2.3764,-2.3628,-2.3318,-2.3305,-2.309,-2.2712,-2.252,-2.175,-2.0446,-2.0569,-1.9991,-1.8803,-1.9781,-2.0277,-2.0769,-2.0723,-2.0631,-2.0195,-2.0095,-1.9994,-1.9613,-1.9522,-1.9522,-1.9522,-1.9402,-1.9393,-1.9677,-1.9494,-1.9347,-1.9503,-1.9402,-1.9301,0.0,-1.9301,-1.9301,-1.9301,-1.9766,-2.0079,-2.0079,-2.0576,-2.14,-2.2575,-2.235,-2.2865,-2.4404,-2.4188,-2.4145,-2.4498,-2.4498,-2.4923,-2.5802,-2.5802,-2.5782,-2.5693,-2.5693,-2.5167,-2.4202,-2.4202,-2.4202,-2.4202,-2.4202,-2.4202,-2.4202,-2.4202,-2.4202,-2.4202,-2.4202,-2.4202,-2.4202,-2.4202,-2.4202,-2.4202,-2.4202,-2.4202,-2.4202,-2.4202,-2.4202,-2.4202,-2.4202,-2.4202,-2.4174,-2.3978,-2.4091,-2.4165,-2.3972,-2.4064,-2.4202,-2.4202,-2.4202,-2.4202,-2.4202,-2.4202,-2.4202,-2.4202,-2.4202,-2.4202,-2.4202,-2.4202,-2.4202,-2.4202,-2.4202,-2.4202,-2.4202,-2.4202,-2.4202,-2.4202,-2.4202,-2.4202,-2.4202,-2.4202,-2.4202,-2.4202,-2.4202,-2.4075,-2.3764,-2.3755,-2.3502,-2.3,-2.2815,-2.1817,-1.9959,-2.0167,-1.9303,-1.7613,-1.8647,-1.9055]},{"header":{"parameterUnit":"m.s-1","parameterCategory":1,"la1":30.6,"la2":29.2853,"lo1":-89.7004,"lo2":-87.6739,"dy":0.0162,"dx":0.0183,"nx":112,"ny":82,"refTime":"2023-10-26T18:00:00:Z","depth":0,"parameterNumber":3,"parameterNumberName":"V-component_of_WINDS"},"data":[0.0,0.0,0.0,0.0,0.0,0.0,0.0,0.0,0.0,0.0,0.0,0.0,0.0,0.0,0.0,0.0,0.0,0.0,0.0,0.0,0.0,0.0,0.0,0.0,0.0,0.0,0.0,0.0,0.0,0.0,0.0,0.0,0.0,0.0,0.0,0.0,0.0,0.0,0.0,0.0,0.0,0.0,0.0,0.0,0.0,0.0,0.0,0.0,0.0,0.0,0.0,0.0,0.0,0.0,0.0,0.0,0.0,0.0,0.0,0.0,0.0,0.0,0.0,0.0,0.0,0.0,0.0,0.0,0.0,0.0,0.0,0.0,0.0,0.0,0.0,0.0,0.0,0.0,0.0,0.0,0.0,0.0,0.0,0.0,0.0,0.0,0.0,0.0,0.0,0.0,0.8805,0.8324,0.7681,0.7263,0.7298,0.6775,0.666,0.7119,0.0,0.0,0.0,0.0,0.0,0.0,0.0,0.0,0.0,0.0,0.0,0.0,0.0,0.0,0.0,0.0,0.0,0.0,0.0,0.0,0.0,0.0,0.0,0.0,0.0,0.0,0.0,0.0,0.0,0.0,0.0,0.0,0.0,0.0,0.0,0.0,0.0,0.0,0.0,0.0,0.0,0.0,0.0,0.0,0.0,0.0,0.0,0.0,0.0,0.0,0.0,0.0,0.0,0.0,0.0,0.0,0.0,0.0,0.0,0.0,0.0,0.0,0.0,0.0,0.0,0.0,0.0,0.0,0.0,0.0,0.0,0.0,0.0,0.0,0.0,0.0,0.0,0.0,0.0,0.0,0.0,0.0,0.0,0.0,0.0,0.0,0.0,0.0,0.0,0.0,0.0,0.0,0.0,0.0,0.0,0.0,0.0,0.0,0.0,0.0,0.0,0.0,0.0,0.0,0.9799,0.9997,0.9625,0.9391,0.95,0.8609,0.8225,0.865,0.0,0.0,0.0,0.0,0.0,0.0,0.0,0.0,0.0,0.0,0.0,0.0,0.0,0.0,0.0,0.0,0.0,0.0,0.0,0.0,0.0,0.0,0.0,0.0,0.0,0.0,0.0,0.0,0.0,0.0,0.0,0.0,0.0,0.0,0.0,0.0,0.0,0.0,0.0,0.0,0.0,0.0,0.0,0.0,0.0,0.0,0.0,0.0,0.0,0.0,0.0,0.0,0.0,0.0,0.0,0.0,0.0,0.0,0.0,0.0,0.0,0.0,0.0,0.0,0.0,0.0,0.0,0.0,0.0,0.0,0.0,0.0,0.0,0.0,0.0,0.0,0.0,0.0,0.0,0.0,0.0,0.0,0.0,0.0,0.0,0.0,0.0,0.0,0.0,0.0,0.0,0.0,0.0,0.0,0.0,0.0,0.0,0.0,0.0,0.0,0.0,0.0,0.0,1.0403,1.0533,1.0618,1.044,1.0376,1.0441,0.9845,0.9563,0.9754,0.9044,0.0,0.0,0.0,0.0,0.0,0.0,0.0,0.0,0.0,0.0,0.0,0.0,0.0,0.0,0.0,0.0,0.0,0.0,0.0,0.0,0.0,0.0,0.0,0.0,0.0,0.0,0.0,0.0,0.0,0.0,0.0,0.0,0.0,0.0,0.0,0.0,0.0,0.0,0.0,0.0,0.0,0.0,0.0,0.0,0.0,0.0,0.0,0.0,0.0,0.0,0.0,0.0,0.0,0.0,0.0,0.0,0.0,0.0,0.0,0.0,0.0,0.0,0.0,0.0,0.0,0.0,0.0,0.0,0.0,0.0,0.0,0.0,0.0,0.0,0.0,0.0,0.0,0.0,0.0,0.0,0.0,0.0,0.0,0.0,0.0,0.0,0.0,0.0,0.0,0.0,0.0,0.0,0.0,0.0,0.0,0.0,0.0,0.0,0.0,0.0,0.0,0.0,1.1133,1.0939,1.0855,1.0847,1.0847,1.083,1.0524,1.0384,1.0542,1.0372,0.0,0.0,0.0,0.0,0.0,0.0,0.0,0.0,0.0,0.0,0.0,0.0,0.0,0.0,0.0,0.0,0.0,0.0,0.0,0.0,0.0,0.0,0.0,0.0,0.0,0.0,0.0,0.0,0.0,0.0,0.0,0.0,0.0,0.0,0.0,0.0,0.0,0.0,0.0,0.0,0.0,0.0,0.0,0.0,0.0,0.0,0.0,0.0,0.0,0.0,0.0,0.0,0.0,0.0,0.0,0.0,0.0,0.0,0.0,0.0,0.0,0.0,0.0,0.0,0.0,0.0,0.0,0.0,0.0,0.0,0.0,0.0,0.0,0.0,0.0,0.0,0.0,0.0,0.0,0.0,0.0,0.0,0.0,0.0,0.0,0.0,0.0,0.0,0.0,0.0,0.0,0.0,0.0,0.0,0.0,0.0,0.0,0.0,0.0,0.0,0.0,0.0,1.0931,1.0981,1.0888,1.0964,1.0956,1.0888,1.0364,1.0331,1.1,1.0966,0.0,0.0,0.0,0.0,0.0,0.0,0.0,0.0,0.0,0.0,0.0,0.0,0.0,0.0,0.0,0.0,0.0,0.0,0.0,0.0,0.0,0.0,0.0,0.0,0.0,0.0,0.0,0.0,0.0,0.0,0.0,0.0,0.0,0.0,0.0,0.0,0.0,0.0,0.0,0.0,0.0,0.0,0.0,0.0,0.0,0.0,0.0,0.0,0.0,0.0,0.0,0.0,0.0,0.0,0.0,0.0,0.0,0.0,0.0,0.0,0.0,0.0,0.0,0.0,0.0,0.0,0.0,0.0,0.0,0.0,0.0,0.0,0.0,0.0,0.0,0.0,0.0,0.0,0.0,0.0,0.0,0.0,0.0,0.0,0.0,0.0,0.0,0.0,0.0,0.0,0.0,0.0,0.0,0.0,0.0,0.0,0.0,0.0,0.0,0.0,0.0,0.0,1.2157,1.2181,1.215,1.2166,1.2157,1.215,1.1934,1.192,1.2205,0.0,0.0,0.0,0.0,0.0,0.0,0.0,0.0,0.0,0.0,0.0,0.0,0.0,0.0,0.0,0.0,0.0,0.0,0.0,0.0,0.0,0.0,0.0,0.0,0.0,0.0,0.0,0.0,0.0,0.0,0.0,0.0,0.0,0.0,0.0,0.0,0.0,0.0,0.0,0.0,0.0,0.0,0.0,0.0,0.0,0.0,0.0,0.0,0.0,0.0,0.0,0.0,0.0,0.0,0.0,0.0,0.0,0.0,0.0,0.0,0.0,0.0,0.0,0.0,0.0,0.0,0.0,0.0,0.0,0.0,0.0,0.0,0.0,0.0,0.0,0.0,0.0,0.0,0.0,0.0,0.0,0.0,0.0,0.0,0.0,0.0,0.0,0.0,0.0,0.0,0.0,0.0,0.0,0.0,0.0,0.0,0.0,0.0,0.0,0.0,0.0,0.0,1.2372,1.2372,1.2298,1.2116,1.2421,1.2578,1.2372,1.2529,1.2652,1.2652,0.0,0.0,0.0,0.0,0.0,0.0,0.0,0.0,0.0,0.0,0.0,0.0,0.0,0.0,0.0,0.0,0.0,0.0,0.0,0.0,0.0,0.0,0.0,0.0,0.0,0.0,0.0,0.0,0.0,0.0,0.0,0.0,0.0,0.0,0.0,0.0,0.0,0.0,0.0,0.0,0.0,0.0,0.0,0.0,0.0,0.0,0.0,0.0,0.0,0.0,0.0,0.0,0.0,0.0,0.0,0.0,0.0,0.0,0.0,0.0,0.0,0.0,0.0,0.0,0.0,0.0,0.0,0.0,0.0,0.0,0.0,0.0,0.0,0.0,0.0,0.0,0.0,0.0,0.0,0.0,0.0,0.0,0.0,0.0,0.0,0.0,0.0,0.0,0.0,0.0,0.0,0.0,0.0,0.0,0.0,0.0,0.0,0.0,0.0,0.0,0.0,0.0,1.1225,1.1225,1.0998,1.048,1.1418,1.1868,1.125,1.1769,1.2101,0.0,0.0,0.0,0.0,0.0,0.0,0.0,0.0,0.0,0.0,0.0,0.0,0.0,0.0,0.0,0.0,0.0,0.0,0.0,0.0,0.0,0.0,0.0,0.0,0.0,0.0,0.0,0.0,0.0,0.0,0.0,0.0,0.0,0.0,0.0,0.0,0.0,0.0,0.0,0.0,0.0,0.0,0.0,0.0,0.0,0.0,0.0,0.0,0.0,0.0,0.0,0.0,0.0,0.0,0.0,0.0,0.0,0.0,0.0,0.0,0.0,0.0,0.0,0.0,0.0,0.0,0.0,0.0,0.0,0.0,0.0,0.0,0.0,0.0,0.0,0.0,0.0,0.0,0.0,0.0,0.0,0.0,0.0,0.0,0.0,0.0,0.0,0.0,0.0,0.0,0.0,0.0,0.0,0.0,0.0,0.0,0.0,0.0,0.0,0.0,0.0,0.0,0.0,1.2397,1.2397,1.22,1.1669,1.1893,1.2026,1.1843,1.2002,1.2249,1.2627,0.0,0.0,0.0,0.0,0.0,0.0,0.0,0.0,0.0,0.0,0.0,0.0,0.0,0.0,0.0,0.0,0.0,0.0,0.0,0.0,0.0,0.0,0.0,0.0,0.0,0.0,0.0,0.0,0.0,0.0,0.0,0.0,0.0,0.0,0.0,0.0,0.0,0.0,0.0,0.0,0.0,0.0,0.0,0.0,0.0,0.0,0.0,0.0,0.0,0.0,0.0,0.0,0.0,0.0,0.0,0.0,0.0,0.0,0.0,0.0,0.0,0.0,0.0,0.0,0.0,0.0,0.0,0.0,0.0,0.0,0.0,0.0,0.0,0.0,0.0,0.0,0.0,0.0,0.0,0.0,0.0,0.0,0.0,0.0,0.0,0.0,0.0,0.0,0.0,0.0,0.0,0.0,0.0,0.0,0.0,0.0,0.0,0.0,0.0,0.0,0.0,0.0,1.2578,1.2578,1.2455,1.2126,1.2298,1.2431,1.2431,1.2431,1.2554,1.2881,0.0,0.0,0.0,0.0,0.0,0.0,0.0,0.0,0.0,0.0,0.0,0.0,0.0,0.0,0.0,0.0,0.0,0.0,0.0,0.0,0.0,0.0,0.0,0.0,0.0,0.0,0.0,0.0,0.0,0.0,0.0,0.0,0.0,0.0,0.0,0.0,0.0,0.0,0.0,0.0,0.0,0.0,0.0,0.0,0.0,0.0,0.0,0.0,0.0,0.0,0.0,0.0,0.0,0.0,0.0,0.0,0.0,0.0,0.0,0.0,0.0,0.0,0.0,0.0,0.0,0.0,0.0,0.0,0.0,0.0,0.0,0.0,0.0,0.0,0.0,0.0,0.0,0.0,0.0,0.0,0.0,0.0,0.0,0.0,0.0,0.0,0.0,0.0,0.0,0.0,0.0,0.0,0.0,0.0,0.0,0.0,0.0,0.0,0.0,0.0,0.0,0.0,1.2175,1.2126,1.2101,1.2101,1.2505,1.2749,1.2832,1.2832,1.2856,1.2905,0.0,0.0,0.0,0.0,0.0,0.0,0.0,0.0,0.0,0.0,0.0,0.0,0.0,0.0,0.0,0.0,0.0,0.0,0.0,0.0,0.0,0.0,0.0,0.0,0.0,0.0,0.0,0.0,0.0,0.0,0.0,0.0,0.0,0.0,0.0,0.0,0.0,0.0,0.0,0.0,0.0,0.0,0.0,0.0,0.0,0.0,0.0,0.0,0.0,0.0,0.0,0.0,0.0,0.0,0.0,0.0,0.0,0.0,0.0,0.0,1.5601,1.5898,0.0,0.0,0.0,0.0,0.0,0.0,0.0,0.0,0.0,0.0,0.0,0.0,0.0,0.0,0.0,0.0,0.0,0.0,0.0,0.0,0.0,0.0,0.0,0.0,0.0,0.0,0.0,0.0,0.0,0.0,0.0,0.0,0.0,0.0,0.0,0.0,0.0,0.0,0.0,0.0,1.2735,1.2357,1.2101,1.2101,1.1794,1.176,1.2224,1.2274,1.2446,1.2881,1.2992,0.0,0.0,0.0,0.0,0.0,0.0,0.0,0.0,0.0,0.0,0.0,0.0,0.0,0.0,0.0,0.0,0.0,0.0,0.0,0.0,0.0,0.0,0.0,0.0,0.0,0.0,0.0,0.0,0.0,0.0,0.0,0.0,0.0,0.0,0.0,0.0,0.0,0.0,0.0,0.0,0.0,0.0,0.0,0.0,0.0,0.0,0.0,0.0,0.0,0.0,0.0,0.0,0.0,0.0,0.0,0.0,0.0,0.0,0.0,1.5349,1.5333,0.0,0.0,0.0,0.0,0.0,0.0,0.0,0.0,0.0,0.0,0.0,0.0,0.0,0.0,0.0,0.0,0.0,0.0,0.0,0.0,0.0,0.0,0.0,0.0,0.0,0.0,0.0,0.0,0.0,0.0,0.0,0.0,0.0,0.0,0.0,0.0,0.0,0.0,0.0,0.0,1.2905,1.27,1.2554,1.2505,1.1968,1.1893,1.2529,1.2323,1.2412,1.3007,1.3017,0.0,0.0,0.0,0.0,0.0,0.0,0.0,0.0,0.0,0.0,0.0,0.0,0.0,0.0,0.0,0.0,0.0,0.0,0.0,0.0,0.0,0.0,0.0,0.0,0.0,0.0,0.0,0.0,0.0,0.0,0.0,0.0,0.0,0.0,0.0,0.0,0.0,0.0,0.0,0.0,0.0,0.0,0.0,0.0,0.0,0.0,0.0,0.0,0.0,0.0,0.0,0.0,0.0,1.6415,1.6397,1.6397,1.6397,1.6188,1.5803,1.537,1.4985,1.4637,1.4957,0.0,0.0,0.0,0.0,0.0,0.0,0.0,0.0,0.0,0.0,0.0,0.0,0.0,0.0,0.0,0.0,0.0,0.0,0.0,0.0,0.0,0.0,1.414,1.3716,1.3597,1.3705,1.4163,0.0,0.0,0.0,0.0,0.0,0.0,0.0,0.0,0.0,0.0,0.0,1.2954,1.2968,1.2968,1.2944,1.2471,1.2421,1.3065,1.2657,1.2613,1.317,1.3152,1.3123,0.0,0.0,0.0,0.0,0.0,0.0,0.0,0.0,0.0,0.0,0.0,0.0,0.0,0.0,0.0,0.0,0.0,0.0,0.0,0.0,0.0,0.0,0.0,0.0,0.0,0.0,0.0,0.0,0.0,0.0,0.0,0.0,1.6402,1.6402,0.0,0.0,0.0,0.0,0.0,0.0,0.0,0.0,0.0,0.0,0.0,0.0,0.0,1.6344,1.6413,1.6343,1.6345,1.6411,1.6407,1.6413,1.6413,1.6413,1.6357,1.6279,1.5829,0.0,1.551,1.5159,0.0,0.0,0.0,0.0,0.0,0.0,0.0,0.0,0.0,0.0,0.0,0.0,0.0,0.0,0.0,0.0,0.0,0.0,0.0,0.0,0.0,0.0,1.3692,1.3621,1.3597,1.3621,1.3681,1.3644,1.3621,1.3681,1.3539,1.3386,0.0,0.0,0.0,0.0,0.0,0.0,1.3085,1.272,1.2667,1.3122,1.2677,1.257,1.3146,1.3122,1.3122,1.3184,1.3194,1.3204,1.3204,1.3624,0.0,0.0,0.0,0.0,0.0,0.0,0.0,0.0,0.0,0.0,0.0,0.0,0.0,0.0,0.0,0.0,0.0,0.0,0.0,0.0,0.0,0.0,0.0,0.0,0.0,0.0,0.0,0.0,0.0,1.6107,1.6107,1.6107,1.6107,1.6208,0.0,0.0,0.0,0.0,0.0,0.0,0.0,0.0,0.0,1.68,1.6796,1.6926,1.7164,1.6888,1.6859,1.7122,1.7405,1.7532,1.7532,1.7532,1.7532,1.7512,1.7036,1.6832,1.674,1.5511,1.5275,1.5728,0.0,0.0,0.0,0.0,1.5969,1.5768,1.5277,1.5156,1.5213,1.5274,0.0,0.0,0.0,0.0,0.0,0.0,0.0,1.3975,1.3692,1.3597,1.3597,1.3597,1.3597,1.3597,1.3597,1.3597,1.3597,1.3597,1.3491,1.3396,1.3396,1.3252,0.0,0.0,0.0,1.3248,1.3166,1.3025,1.3016,1.3194,1.2652,1.2555,1.3242,1.2967,1.2943,1.3396,1.3338,1.3314,1.3314,1.3481,1.3826,0.0,0.0,0.0,0.0,0.0,0.0,0.0,0.0,0.0,0.0,0.0,0.0,0.0,0.0,0.0,0.0,0.0,0.0,0.0,0.0,0.0,0.0,0.0,0.0,0.0,0.0,0.0,0.0,1.5975,1.597,1.597,1.5966,1.6089,0.0,0.0,0.0,0.0,0.0,0.0,1.6752,1.7084,1.7316,1.7435,1.7431,1.7659,1.8141,1.7852,1.7884,1.8225,1.8692,1.8899,1.8899,1.8899,1.8899,1.8878,1.8444,1.8257,1.8112,1.628,1.5731,1.6031,1.5913,1.5816,1.5791,1.6232,1.6314,1.6162,1.5724,1.5529,1.5491,1.5347,1.516,1.4996,1.4996,0.0,0.0,0.0,0.0,1.4457,1.407,1.3972,1.3972,1.3972,1.3972,1.3972,1.3972,1.3972,1.39,1.3662,1.3515,1.3443,1.3443,1.3338,0.0,1.3266,1.3338,1.3362,1.3266,1.3372,1.3409,1.3314,1.2856,1.2808,1.3396,1.2991,1.2967,1.3563,1.3515,1.3443,1.3443,1.3362,1.36,1.4246,0.0,0.0,0.0,0.0,0.0,0.0,0.0,0.0,0.0,0.0,0.0,0.0,0.0,0.0,0.0,0.0,0.0,0.0,0.0,0.0,0.0,0.0,0.0,0.0,0.0,0.0,0.0,0.0,0.0,1.6453,1.6417,0.0,0.0,0.0,0.0,1.7069,1.7496,1.7723,1.7716,1.7741,1.7937,1.8333,1.8321,1.856,1.9027,1.944,1.9668,1.9699,2.011,2.0281,2.0281,2.0281,2.0281,2.0296,1.9886,1.9689,1.9554,1.7657,1.6903,1.6901,1.6506,1.6358,1.6348,1.6386,1.6106,1.5731,1.5704,1.5386,1.5023,1.5023,1.5013,1.4992,1.4992,1.4997,0.0,0.0,1.4977,1.4951,1.4925,1.4925,1.4925,1.4925,1.4925,1.4925,1.4925,1.4925,1.4676,1.3762,1.3586,1.3597,1.3597,0.0,1.3396,1.3396,1.3396,1.3396,1.3386,1.3515,1.3597,1.3586,1.3549,1.3549,1.3597,1.3563,1.3563,1.3597,1.3586,1.3597,1.3597,1.3586,1.3834,1.4373,1.4384,0.0,0.0,0.0,0.0,0.0,0.0,0.0,0.0,0.0,0.0,0.0,0.0,0.0,0.0,0.0,0.0,0.0,0.0,0.0,0.0,0.0,0.0,0.0,0.0,0.0,0.0,0.0,0.0,1.685,1.6598,0.0,1.7241,1.7451,1.7654,1.7918,1.8091,1.8328,1.8628,1.8911,1.9161,1.9295,1.9551,1.9779,1.9934,2.011,2.0193,2.0193,2.0648,2.0829,2.0829,2.0829,2.0829,2.0845,2.0389,2.0193,2.0141,1.9455,1.867,1.7895,1.7729,1.7502,1.7253,1.7253,1.712,1.7005,1.7005,1.6862,1.6676,1.6386,1.6283,1.6231,1.597,1.5887,1.5825,1.5525,1.5442,1.537,1.507,1.4997,1.4997,1.4997,1.4997,1.4997,1.4997,1.4997,1.4894,1.4573,1.4511,1.4511,1.4511,1.4202,1.3982,1.3982,1.3734,1.3515,1.3515,1.3563,1.3597,1.3597,1.3515,1.3515,1.3586,1.3515,1.3515,1.3586,1.3597,1.3597,1.3597,1.3597,1.3681,1.3871,1.3905,1.414,0.0,0.0,0.0,0.0,0.0,0.0,0.0,0.0,0.0,0.0,0.0,0.0,0.0,0.0,0.0,0.0,0.0,0.0,0.0,0.0,0.0,0.0,0.0,0.0,0.0,1.6948,1.7205,1.7484,1.7461,1.7629,1.8176,1.837,1.8596,1.8861,1.8982,1.921,1.951,1.982,2.0093,2.0249,2.0503,2.0695,2.085,2.085,2.085,2.0897,2.1207,2.1352,2.1352,2.1352,2.1352,2.1331,2.1021,2.085,2.085,2.085,2.0265,1.9292,1.9127,1.8889,1.8608,1.8608,1.8547,1.8371,1.8061,1.7957,1.7843,1.7389,1.7244,1.7192,1.6922,1.6839,1.6767,1.6467,1.6374,1.6312,1.6001,1.5918,1.5918,1.5918,1.5804,1.5653,1.5653,1.5566,1.5463,1.5463,1.5214,1.4997,1.4997,1.4738,1.4542,1.4542,1.4283,1.4076,1.4076,1.4076,1.4,1.3845,1.3751,1.369,1.3607,1.3515,1.3515,1.3586,1.3597,1.3597,1.3597,1.3597,1.3597,1.3597,1.3597,1.3776,1.414,0.0,0.0,0.0,0.0,0.0,0.0,0.0,0.0,0.0,0.0,0.0,0.0,0.0,0.0,0.0,0.0,0.0,0.0,0.0,0.0,0.0,0.0,0.0,1.7356,1.776,1.8233,1.8419,1.9031,1.9329,1.9164,1.9554,1.9824,1.9834,2.0203,2.0416,2.0426,2.0426,2.0633,2.1124,2.1135,2.1352,2.1797,2.1807,2.1807,2.1807,2.1807,2.1807,2.1807,2.1807,2.1807,2.1807,2.1807,2.1807,2.1807,2.1807,2.1538,2.1093,2.0627,2.0395,2.0385,2.0385,2.0151,1.9689,1.8787,1.8476,1.8382,1.7926,1.7781,1.7781,1.7781,1.7781,1.7761,1.775,1.773,1.7719,1.7709,1.7699,1.7699,1.7699,1.7358,1.7027,1.7027,1.6726,1.6454,1.6454,1.5728,1.507,1.5049,1.5028,1.5018,1.5018,1.5007,0.0,1.4997,1.4997,1.4831,1.4376,1.4324,1.4138,1.3659,1.3607,1.3631,1.3597,1.3597,1.3597,1.3597,1.3597,1.3597,1.3597,1.3597,1.361,1.3634,0.0,0.0,0.0,0.0,0.0,0.0,0.0,0.0,0.0,0.0,0.0,0.0,0.0,0.0,0.0,0.0,0.0,0.0,0.0,0.0,0.0,1.9105,1.9247,1.8897,1.9337,1.9638,1.944,1.9561,1.9789,2.0006,2.0172,2.0379,2.0721,2.0855,2.1073,2.1414,2.1424,2.1487,2.1611,2.1621,2.1673,2.1807,2.1807,2.1807,2.1807,2.1807,2.1807,2.1807,2.1807,2.1807,2.1807,2.1807,2.1807,2.1807,2.1807,2.1725,2.1569,2.1104,2.0684,2.0385,2.0385,2.0348,2.0203,1.9944,1.9862,1.9841,1.9693,1.9651,1.9651,1.9651,1.9458,1.9137,1.8796,1.8464,1.8133,1.7781,1.7699,1.7699,1.7699,1.7606,1.7513,1.7513,1.742,1.7337,1.7337,1.713,1.6777,1.6115,1.5722,1.5504,1.5504,1.5214,1.4997,1.4997,1.4997,1.4945,1.4821,1.4811,1.4624,1.4159,1.4117,1.3948,1.3607,1.3597,1.3597,1.3597,1.3597,1.3597,1.3597,1.3597,1.3787,0.0,0.0,0.0,0.0,0.0,0.0,0.0,0.0,0.0,0.0,0.0,0.0,0.0,0.0,0.0,0.0,0.0,0.0,0.0,0.0,0.0,0.0,2.0555,2.0775,2.1037,2.0771,2.0479,2.0354,2.06,2.0814,2.0959,2.1,2.1197,2.1662,2.1694,2.189,2.2356,2.2387,2.2387,2.2387,2.2387,2.2387,2.2387,2.2387,2.2387,2.2387,2.219,2.2097,2.2087,2.189,2.1807,2.1807,2.1807,2.1807,2.1807,2.1807,2.1807,2.1776,0.0,0.0,0.0,0.0,2.1,2.0979,2.0746,2.0674,2.0643,2.0447,2.0385,2.0385,2.0385,2.0245,1.9986,1.9717,1.9448,1.9137,1.8692,1.8578,1.8537,1.834,1.8143,1.7999,1.7999,1.7833,1.7699,1.7699,1.7699,0.0,1.7036,1.656,1.6198,1.6011,1.5753,1.5577,1.5577,1.5577,1.5504,1.5308,1.5287,1.5101,1.4635,1.4593,0.0,0.0,0.0,1.3817,1.3597,1.3597,0.0,0.0,0.0,1.3752,1.4069,1.3763,0.0,0.0,1.4339,1.4547,0.0,0.0,0.0,0.0,0.0,0.0,0.0,0.0,0.0,0.0,0.0,0.0,0.0,0.0,0.0,0.0,2.2384,2.2594,2.3109,2.1917,2.1064,2.125,2.1776,2.2104,2.1959,2.1963,2.2128,2.2542,2.2573,2.2749,2.3163,2.3184,0.0,0.0,0.0,2.3184,2.3184,2.3184,2.3184,2.3184,2.277,2.2573,2.2563,2.2149,2.1932,2.188,2.188,2.1859,2.1807,2.1807,2.1807,2.1807,2.1807,2.1807,2.1807,2.1807,2.1807,2.1745,2.1331,0.0,0.0,2.0674,2.055,2.055,2.0576,2.0545,2.0467,2.0503,2.0462,2.0338,1.9969,1.9865,1.9761,1.9357,1.8901,1.8569,1.8569,1.8195,1.7854,1.7854,1.7854,1.7833,1.7781,1.7399,1.6955,1.6591,1.6487,1.6485,1.6485,1.6444,1.6247,1.5804,1.579,0.0,1.5121,1.507,1.4883,1.4417,1.4386,1.4179,1.3714,1.3669,1.3638,1.3597,1.3597,1.3597,1.3597,1.3597,1.3597,1.3597,1.3597,1.4082,0.0,0.0,0.0,0.0,0.0,0.0,0.0,0.0,0.0,0.0,0.0,0.0,0.0,0.0,0.0,2.2674,2.294,2.2925,2.2419,2.2227,2.2178,2.2211,2.2338,2.2564,2.2913,2.2915,2.2956,2.3049,2.3049,2.3091,2.3184,2.3184,2.3184,2.3184,2.3184,2.3184,2.3184,2.3184,2.3184,2.3184,2.3101,0.0,2.3049,2.2956,2.2718,2.2366,2.2366,2.2149,2.1807,2.1807,2.1807,2.1807,2.1807,2.1807,2.1807,2.1807,2.1807,2.1797,2.1704,2.1673,2.1652,2.1569,2.1538,2.1576,2.1726,2.138,0.0,2.1162,2.0819,2.0364,2.0317,2.0296,2.0276,2.0182,1.982,1.9523,1.9523,1.917,1.8839,1.8839,1.8839,1.8725,1.8319,1.7895,1.7544,1.7451,1.713,1.6882,1.6882,1.6601,1.6381,1.6278,1.6249,1.6053,1.5597,1.5556,1.5359,1.4894,1.4863,1.4656,1.419,1.4144,1.4003,1.3597,1.3597,1.3597,1.3597,1.3597,1.3597,1.3597,1.3597,1.3705,0.0,0.0,0.0,0.0,0.0,0.0,0.0,0.0,0.0,0.0,0.0,2.1333,2.2442,0.0,2.2799,2.3514,2.3454,2.3227,2.294,2.3015,2.2939,2.253,2.2708,2.2936,2.3163,2.3184,2.3287,2.3515,2.3536,2.3629,2.3857,2.3867,2.3867,2.3867,2.3867,2.3867,2.3867,2.3867,2.3867,2.3867,2.3639,2.3536,2.3525,2.3298,2.306,2.2842,2.2842,2.2708,2.248,2.2242,2.2149,2.2128,2.189,2.1845,2.1959,2.1959,2.1987,2.2101,2.2101,2.2258,2.2457,2.2457,2.2604,2.2822,2.2949,2.2506,2.1959,2.2063,2.1626,2.1062,2.0798,2.0736,2.0674,2.0447,2.0255,2.0089,2.0089,1.9772,1.945,1.945,1.9264,1.9025,1.8797,1.8547,1.8247,1.7771,1.7502,1.7358,1.7358,1.7161,1.6964,1.6736,1.6715,1.6529,1.6102,1.5853,1.5587,1.5359,1.5121,1.4894,1.4666,1.4656,1.4438,1.3972,1.3962,1.3824,1.3597,1.3597,1.3597,1.3597,1.3597,1.3597,0.0,0.0,0.0,0.0,0.0,0.0,0.0,2.0475,2.1017,2.1234,2.165,2.2303,2.3336,2.2847,2.2714,2.4071,2.3792,2.3405,2.3465,2.3621,2.3517,2.2839,2.3091,2.336,2.3443,2.3453,2.3608,2.3981,2.4002,2.4167,2.4476,2.4497,2.4497,2.4497,2.4497,2.4497,2.4497,2.4497,2.4497,2.4497,2.4178,2.4002,2.3991,2.3619,2.3401,2.3318,2.3266,2.3265,2.3274,2.2939,2.2743,2.2702,2.2327,2.2335,2.2467,2.2212,2.2225,2.2402,2.2402,2.2658,2.2977,2.2977,2.3285,2.3687,2.3787,2.3427,2.3008,2.3047,2.2667,2.2067,2.1609,2.1495,2.137,2.0912,2.0725,2.0627,2.0591,2.0274,1.9952,1.9927,1.9554,1.9233,1.9233,1.916,1.8859,1.8102,1.7884,1.7823,1.7823,1.775,1.7564,1.7192,1.7151,1.6965,1.655,1.6084,1.5853,1.5853,1.5473,1.5225,1.5132,1.5132,1.4914,1.4449,1.4438,1.4252,1.3865,1.3865,1.3865,1.3879,1.3772,1.3679,1.9592,2.006,2.0252,2.0374,2.0727,2.0926,0.0,2.1198,2.1782,2.1233,2.233,2.3499,2.3924,2.4208,2.4173,2.3559,2.3552,2.3416,2.2744,2.3356,2.3846,2.3764,2.3774,2.395,2.4311,2.4342,2.4373,2.4425,2.4425,2.4445,2.4497,2.4497,2.4497,2.4497,2.4497,2.4497,2.4497,2.4497,2.4497,2.4497,2.4445,2.4425,2.4425,2.4373,2.4178,2.3815,2.3563,2.3566,2.3735,2.3743,2.3722,2.366,2.3607,2.3755,2.3828,2.2558,2.2225,2.2402,2.2402,2.2434,2.2477,2.2477,2.2807,2.3229,2.3384,2.3542,2.3751,2.396,2.3838,2.348,2.2995,2.2878,2.2762,2.2285,2.185,2.1506,2.1324,2.0921,2.0561,2.0384,1.9986,1.972,1.972,1.9378,1.9067,1.8973,1.86,1.8309,1.8309,1.7968,1.7688,1.7637,1.7626,1.744,1.6975,1.656,1.633,1.633,1.6278,1.607,1.5628,1.5608,1.539,1.4925,1.4925,1.4894,1.4842,1.4842,1.4842,1.4831,1.4417,1.4014,1.8638,1.9315,2.0001,2.0379,2.0605,2.0956,2.1624,2.2457,2.3114,2.3198,2.3558,2.4087,2.4703,2.4015,2.3349,2.3302,2.3243,2.3112,2.2932,2.3463,2.4054,2.443,2.4345,2.4333,2.4476,2.4497,2.4497,2.4497,2.4497,2.4497,2.4497,2.4497,2.4497,2.4497,2.4497,2.4497,2.4497,2.4497,2.4497,2.4497,2.4658,2.4658,2.4497,2.4786,2.4808,2.4661,2.4545,2.4532,2.4583,2.4358,2.4241,2.4168,2.3943,2.3995,2.4079,2.3178,2.297,2.3118,2.2837,2.2924,2.3161,2.3161,2.3496,2.3989,2.4328,2.427,2.4075,2.4165,2.3802,2.3349,2.3158,2.3115,2.3062,2.286,2.2658,2.2407,2.2057,2.1623,2.1259,2.1186,2.0701,2.0317,2.0317,1.9872,1.9547,1.9614,1.9152,1.8818,1.8818,1.863,1.8413,1.8143,1.7854,1.7626,1.743,1.6996,1.6738,1.6738,1.6529,1.6319,1.6122,1.6122,1.5905,1.5411,1.5401,1.5266,1.4997,1.5091,1.5107,1.5107,1.4909,1.471,1.8456,1.9261,2.0268,2.0622,2.0831,2.1256,2.2406,2.3329,2.3968,2.4023,2.4236,2.4491,2.463,2.3627,2.2868,2.3113,2.3286,2.3413,2.3374,2.4082,2.4703,2.4946,2.4828,2.47,2.47,2.4625,2.4625,2.4625,2.4658,2.4668,2.4625,2.4625,2.4583,2.4497,2.4786,2.4946,2.4946,2.5263,2.5306,2.5062,2.5505,2.5474,2.5062,2.539,2.56,2.5642,2.5642,2.5799,2.6058,2.5705,2.5591,2.5518,2.4996,2.4905,2.493,2.4183,2.3894,2.3886,2.3536,2.3547,2.3694,2.3694,2.3973,2.4344,2.4672,2.4549,2.4295,2.4295,2.3888,2.3442,2.3302,2.327,2.3238,2.3099,2.3209,2.3254,2.2869,2.2522,2.2262,2.22,2.1534,2.0965,2.0965,2.0526,2.0257,2.0557,1.9925,1.9387,1.9252,1.9208,1.9007,1.8674,1.8248,1.7989,1.7989,1.7563,1.7293,1.7293,1.6867,1.6675,1.6694,1.655,1.6321,1.6015,1.5988,1.5793,1.5504,1.5573,1.5616,1.5643,1.5479,1.5416,1.9532,2.0605,2.1917,2.1772,2.2158,2.2548,2.2582,2.3532,2.4,2.2664,2.3894,2.4814,2.3338,2.3438,2.3537,2.2841,2.4007,2.4753,2.3897,2.5311,2.6099,2.5274,2.52,2.52,2.52,2.4988,2.4903,2.4903,2.5073,2.5073,2.4903,2.4903,2.4786,2.4497,2.5505,2.6038,2.6038,2.7157,2.7279,2.6442,2.7319,2.7279,2.6442,2.6431,2.6565,2.673,2.673,2.7331,2.8307,2.8283,2.8283,2.8203,2.7412,2.7087,2.696,2.5621,2.4847,2.4465,2.4454,2.4126,2.3694,2.3694,2.3705,2.3716,2.3727,2.4104,2.4486,2.4486,2.4476,2.4355,2.3825,2.3694,2.3575,2.3095,2.3545,2.4022,2.3781,2.3734,2.3686,2.3492,2.2469,2.1668,2.1668,2.1275,2.1237,2.2001,2.1078,2.0092,1.9636,1.9407,1.9274,1.9264,1.8921,1.869,1.869,1.8228,1.7986,1.7986,1.7545,1.733,1.7456,1.6887,1.6655,1.6768,1.6645,1.6634,1.6747,1.6624,1.6624,1.6736,1.6149,1.5938,2.0037,2.0775,2.1936,2.2685,2.3006,2.334,2.4201,2.5064,2.544,2.4472,2.5215,2.5819,2.519,2.4894,2.4789,2.474,2.4998,2.521,2.5354,2.5544,2.5799,2.6205,2.5924,2.5711,2.5905,2.5722,2.5658,2.5935,2.6189,2.6233,2.5966,2.5852,2.5527,2.4999,2.5316,2.5516,2.5516,2.5872,2.5924,2.5642,2.5913,2.6091,2.6135,2.6936,2.7395,2.7614,2.7916,2.8264,2.8559,2.7949,2.8022,2.8559,2.8318,2.8624,2.9142,2.8675,2.8427,2.8017,2.5994,2.5555,2.5899,2.5899,2.5899,2.5957,2.6247,2.5862,2.5305,2.5305,2.5029,2.4621,2.3881,2.4104,2.4314,2.3628,2.366,2.3712,2.3342,2.3276,2.3375,2.3818,2.3475,2.3243,2.382,2.2983,2.2275,2.232,2.1632,2.0731,1.9735,1.9539,1.9517,1.9517,1.9379,1.9284,1.9284,1.8882,1.8606,1.8606,1.8161,1.7926,1.7945,1.785,1.7629,1.7283,1.7303,1.7151,1.6818,1.6853,1.6899,1.6927,1.671,1.6663,2.0951,2.1535,2.2366,2.3084,2.3244,2.3466,2.4302,2.5252,2.5791,2.504,2.5674,2.6273,2.59,2.5457,2.5324,2.584,2.5869,2.5935,2.6252,2.6132,2.6181,2.6442,2.6431,2.6417,2.6598,2.6624,2.6581,2.6431,2.6794,2.6769,2.6196,2.6071,2.5748,2.52,2.5558,2.5757,2.5757,2.6453,2.6964,2.729,2.6964,2.7079,2.7625,2.8392,2.8917,2.9207,2.9553,2.9822,3.0085,2.9496,2.9581,3.0085,2.9792,3.0043,3.0597,3.0318,3.0401,3.0294,2.7822,2.7248,2.7519,2.7326,2.7132,2.7048,2.7374,2.6862,2.6156,2.6156,2.5744,2.5224,2.4676,2.4811,2.4895,2.4388,2.4488,2.4581,2.4284,2.4215,2.436,2.4838,2.4361,2.4072,2.4576,2.4165,2.3618,2.3247,2.3089,2.2356,2.0578,2.0369,2.0205,1.9758,1.9704,1.9802,2.002,1.9587,1.9372,1.9595,1.8962,1.8693,1.8978,1.8618,1.85,1.8652,1.8436,1.8165,1.7834,1.7862,1.7717,1.7366,1.7309,1.7212,2.2229,2.278,2.3249,2.3103,2.3075,2.3075,2.3139,2.4299,2.5158,2.4373,2.5405,2.6255,2.5512,2.519,2.5275,2.6082,2.6576,2.6792,2.6593,2.7105,2.7172,2.6193,2.6768,2.7219,2.7219,2.7667,2.7533,2.6455,2.6925,2.685,2.5812,2.577,2.5675,2.5359,2.6329,2.6894,2.6894,2.8703,3.0063,3.0861,3.0024,2.9966,3.053,3.0595,3.0937,3.1468,3.1452,3.1924,3.2697,3.2645,3.2658,3.2605,3.1803,3.1505,3.1465,3.0695,3.089,3.1348,3.0,2.9221,2.8715,2.8118,2.7609,2.7258,2.7222,2.716,2.7099,2.7099,2.6662,2.619,2.6166,2.5817,2.5419,2.536,2.5875,2.6383,2.6358,2.6346,2.6346,2.638,2.5264,2.4253,2.4217,2.485,2.5214,2.4764,2.5289,2.4781,2.2151,2.1794,2.1349,2.0172,2.0064,2.0281,2.0871,2.0345,2.028,2.0871,1.9936,1.9702,2.0461,1.9318,1.9321,2.0713,1.9983,1.9649,1.9743,1.9608,1.9068,1.813,1.7962,1.7752,2.2283,2.2663,2.3205,2.3697,2.3841,2.412,2.5276,2.5849,2.607,2.5849,2.6539,2.7135,2.6849,2.6804,2.7065,2.7729,2.6938,2.6785,2.8344,2.7495,2.7199,2.8576,2.811,2.7706,2.7706,2.8403,2.8485,2.7575,2.8108,2.8263,2.773,2.8171,2.8171,2.7614,2.7855,2.7988,2.7988,2.8505,2.8821,2.9057,2.8821,2.9034,2.9675,3.0717,3.1531,3.2084,3.2432,3.2735,3.2874,3.2184,3.2311,3.2916,3.2693,3.3,3.361,3.3389,3.3444,3.3532,3.2785,3.2126,3.1548,3.0932,3.0663,3.0509,3.0086,2.9276,2.8475,2.8475,2.8076,2.747,2.6918,2.7078,2.7124,2.613,2.6033,2.6079,2.5667,2.5581,2.5721,2.6277,2.6552,2.6471,2.5918,2.5988,2.6102,2.5952,2.6099,2.5518,2.3505,2.3275,2.2986,2.2295,2.2215,2.1891,2.1106,2.1333,2.1396,2.1071,2.126,2.1447,2.1663,2.1404,2.1245,2.1233,2.1076,2.0811,2.0435,2.0406,2.0248,1.9986,1.9454,1.9443,2.2735,2.3051,2.3486,2.3585,2.3877,2.4325,2.5193,2.5721,2.6004,2.6004,2.6396,2.6739,2.6652,2.6824,2.7075,2.7464,2.6949,2.6978,2.8384,2.774,2.7611,2.8971,2.8863,2.8693,2.8693,2.9137,2.9217,2.8733,2.9056,2.8991,2.8438,2.8755,2.8794,2.8426,2.8386,2.8585,2.8978,2.8978,2.9135,2.9537,2.9537,2.9961,3.0829,3.1627,3.2416,3.3264,3.3517,3.3602,3.356,3.3036,3.3122,3.3602,3.3602,3.3953,3.4397,3.4397,3.4397,3.4358,3.4058,3.3731,3.3313,3.2489,3.2176,3.2071,3.1535,3.0814,3.0176,2.9933,2.9422,2.8877,2.8473,2.848,2.8431,2.767,2.7287,2.7024,2.6737,2.6452,2.6277,2.638,2.6735,2.6905,2.6483,2.638,2.6517,2.6837,2.6871,2.6527,2.5548,2.495,2.4296,2.3446,2.3353,2.3071,2.2428,2.2443,2.2335,2.2002,2.2039,2.2224,2.2531,2.2279,2.2298,2.2577,2.2322,2.2043,2.1736,2.1736,2.1496,2.1003,2.0611,2.0364,2.3568,2.3779,2.4131,2.346,2.3722,2.416,2.4257,2.4873,2.5402,2.5426,2.5576,2.5675,2.5675,2.5921,2.6219,2.6425,2.6691,2.7119,2.7726,2.7928,2.8176,2.8563,2.9254,2.9704,2.9704,2.9704,2.9704,2.9704,2.9819,2.9498,2.8624,2.8664,2.8743,2.8743,2.8743,2.9108,2.9858,2.9858,3.0266,3.0986,3.0986,3.1548,3.2581,3.2659,3.3273,3.4293,3.4371,3.4397,3.4397,3.4397,3.4397,3.4397,3.4397,3.4397,3.4397,3.4397,3.4397,3.4397,3.4397,3.4397,3.4228,3.3156,3.2816,3.2712,3.2084,3.1863,3.1693,3.1248,3.0686,3.0218,3.0218,2.9876,2.9519,2.9418,2.9,2.8595,2.8551,2.8046,2.7426,2.6802,2.6615,2.6564,2.6564,2.6564,2.6769,2.739,2.749,2.749,2.749,2.6583,2.5473,2.4308,2.4181,2.4168,2.4104,2.3645,2.3336,2.3238,2.2763,2.2708,2.322,2.2665,2.2919,2.4083,2.3531,2.325,2.325,2.325,2.2718,2.1743,2.1684,2.1134,2.4957,2.4981,2.5052,2.4945,2.4601,2.4511,2.5114,2.5054,2.4892,2.5063,2.511,2.5149,2.5149,2.5183,2.5532,2.6499,2.6166,2.6362,2.8039,2.8157,2.853,2.9661,2.9745,2.9704,2.9704,2.9704,2.9704,2.9704,3.0381,3.0381,2.9498,3.0139,3.0545,3.0545,3.0545,3.0621,3.0785,3.0785,3.0861,3.0986,3.0986,3.1339,3.1967,3.2476,3.3064,3.3757,3.4201,3.4397,3.4397,3.4397,3.4397,3.4397,3.4397,3.4397,3.4397,3.4397,3.4397,3.4397,3.4397,3.4397,3.4293,3.3639,3.343,3.3326,3.2725,3.2215,3.1784,3.168,3.1274,3.083,3.083,3.0764,3.0568,3.0061,2.9865,2.9657,2.9222,2.866,2.8195,2.8092,2.7647,2.7323,2.7323,2.7323,2.7356,2.7503,2.749,2.749,2.749,2.7311,2.6913,2.6278,2.6214,2.5775,2.474,2.5064,2.4878,2.3903,2.4246,2.4313,2.3949,2.3806,2.3865,2.4083,2.3995,2.3923,2.3923,2.3923,2.3813,2.3621,2.3051,2.3001,2.5523,2.5581,2.5791,2.5418,2.5133,2.5059,2.5428,2.4912,2.442,2.4523,2.4063,2.3736,2.4008,2.4321,2.4775,2.5557,2.6145,2.6845,2.7725,2.8597,2.9398,3.0025,3.0248,3.0381,3.0381,3.0381,3.0381,3.0381,3.102,3.1097,3.0394,3.0785,3.0986,3.0986,3.0986,3.0986,3.0986,3.0986,3.0986,3.0986,3.0986,3.1287,3.181,3.2084,3.2738,3.36,3.3862,3.4136,3.4397,3.4397,3.4397,3.4397,3.4397,3.4397,3.4397,3.4397,3.4397,3.4397,3.4397,3.4397,3.4358,3.4097,3.4018,3.3901,3.3326,3.2973,3.262,3.198,3.1602,3.1365,3.1065,3.0986,3.0921,3.0647,3.0309,2.9944,2.9405,2.9087,2.88,2.8472,2.8164,2.7876,2.7542,2.749,2.749,2.749,2.749,2.749,2.749,2.749,2.7385,2.7144,2.7118,2.6739,2.5852,2.6083,2.5894,2.4998,2.5252,2.5288,2.4984,2.4713,2.4557,2.4557,2.4269,2.4083,2.4083,2.4083,2.4083,2.4083,2.3763,2.3603,2.6045,2.6173,2.6458,2.5748,2.5576,2.5486,2.5259,2.4523,2.3822,2.3574,2.2818,2.2349,2.2766,2.3313,2.392,2.4475,2.6013,2.7154,2.7163,2.8763,2.9918,2.9918,3.0568,3.0986,3.0986,3.0986,3.1039,3.1156,3.1692,3.1732,3.1196,3.1169,3.1117,3.0986,3.0986,3.0986,3.0986,3.0986,3.0986,3.0986,3.0986,3.1222,3.1628,3.1745,3.2306,3.3234,3.3483,3.3835,3.4241,3.4345,3.4397,3.4397,3.4397,3.4397,3.4397,3.4397,3.4397,3.4397,3.4397,3.4397,3.4397,3.4397,3.4397,3.4319,3.3901,3.3679,3.3378,3.2319,3.1902,3.168,3.113,3.0986,3.0986,3.0986,3.0647,3.0189,2.9745,2.9549,2.9327,2.8843,2.866,2.8386,2.7811,2.7673,2.7633,2.7516,2.749,2.749,2.749,2.749,2.749,2.749,2.749,2.732,2.6896,2.6857,2.6608,2.6046,2.6007,2.591,2.5806,2.5393,2.5123,2.4992,2.4517,2.4243,2.4083,2.4083,2.4083,2.4083,2.4083,2.3822,2.7213,2.7356,2.7272,2.672,2.6161,2.5491,2.4463,2.3741,2.3001,2.1942,2.1668,2.1603,2.1655,2.2165,2.2921,2.3969,2.5175,2.6145,2.6674,2.826,2.9353,2.9353,3.032,3.0986,3.0986,3.0986,3.1196,3.168,3.2293,3.2359,3.1758,3.1732,3.1484,3.0999,3.0986,3.0986,3.0986,3.0986,3.0986,3.0986,3.0986,3.1013,3.1078,3.1562,3.1863,3.2019,3.313,3.3626,3.3705,3.4188,3.4397,3.4397,3.4397,3.4397,3.4397,3.4397,3.4397,3.4397,3.4397,3.4397,3.4397,3.4397,3.4397,3.4384,3.4332,3.3979,3.3456,3.279,3.2241,3.168,3.113,3.0986,3.0986,3.0986,3.0947,3.0895,3.0843,3.0424,3.0009,2.9944,2.9549,2.9048,2.8399,2.8307,2.8124,2.7568,2.749,2.749,2.749,2.749,2.749,2.749,2.749,2.7477,2.7425,2.7425,2.7196,2.6667,2.6627,2.636,2.5806,2.5741,2.5497,2.5005,2.4953,2.4635,2.4083,2.4083,2.4083,2.4083,2.4083,2.4083,2.6438,2.6472,2.6419,2.6216,2.5795,2.5214,2.4413,2.3563,2.2736,2.1903,2.1416,2.1247,2.155,2.2048,2.2752,2.39,2.5367,2.6543,2.7105,2.8699,2.9797,2.9797,3.0503,3.0986,3.0986,3.0986,3.1365,3.228,3.2555,3.2751,3.2881,3.2189,3.1693,3.1509,3.1169,3.0986,3.0986,3.0986,3.0986,3.0986,3.0986,3.0986,3.0999,3.1222,3.1471,3.185,3.2698,3.326,3.3639,3.4175,3.4397,3.4397,3.4397,3.4397,3.4397,3.4397,3.4397,3.4397,3.4397,3.4397,3.4397,3.4397,3.4397,3.4397,3.4397,3.4241,3.3953,3.3391,3.2816,3.2228,3.1615,3.1248,3.0986,3.0986,3.0986,3.0986,3.0986,3.0803,3.0542,3.0166,2.9918,2.9614,2.9026,2.8656,2.8307,2.8072,2.7745,2.749,2.749,2.749,2.749,2.749,2.749,2.749,2.749,2.749,2.7398,2.721,2.7183,2.7079,2.6824,2.6517,2.6229,2.6026,2.5654,2.5197,2.4622,2.4622,2.4452,2.4083,2.4083,2.4083,2.5875,2.5936,2.5897,2.5726,2.5344,2.48,2.403,2.3161,2.2352,2.1753,2.1264,2.1043,2.1402,2.2023,2.2702,2.3485,2.5197,2.6621,2.7196,2.8743,2.9905,3.0074,3.0634,3.0986,3.0986,3.1143,3.164,3.262,3.2855,3.3143,3.3574,3.2633,3.1967,3.181,3.1287,3.0986,3.0986,3.0986,3.0986,3.0986,3.0986,3.0986,3.0986,3.0986,3.1209,3.1588,3.2372,3.2934,3.3378,3.411,3.4397,3.4397,3.4397,3.4397,3.4397,3.4397,3.4397,3.4397,3.4397,3.4397,3.4397,3.4397,3.4397,3.4397,3.4397,3.4397,3.428,3.3744,3.3038,3.2346,3.1902,3.1418,3.0986,3.0986,3.0986,3.0986,3.0986,3.0986,3.0869,3.0464,3.0348,3.0202,2.9699,2.9289,2.8948,2.8868,2.8287,2.7852,2.7852,2.7641,2.749,2.749,2.7556,2.7556,2.749,2.749,2.749,2.749,2.749,2.749,2.749,2.7144,2.6876,2.677,2.6332,2.5847,2.5345,2.5345,2.4983,2.4374,2.4403,2.4328,2.5957,2.6294,2.6161,2.5545,2.4944,2.4213,2.3084,2.2339,2.1727,2.1141,2.0997,2.0972,2.0926,2.1812,2.2576,2.2426,2.4347,2.6033,2.6641,2.8224,2.9497,3.0035,3.0634,3.0986,3.0986,3.1496,3.2032,3.2646,3.3247,3.3587,3.3587,3.3012,3.2424,3.1823,3.1287,3.0986,3.0986,3.0986,3.0986,3.0986,3.0986,3.0986,3.0986,3.0986,3.0986,3.1052,3.2202,3.2685,3.279,3.3927,3.4397,3.4397,3.4397,3.4397,3.4397,3.4397,3.4397,3.4397,3.4397,3.4397,3.4397,3.4397,3.4397,3.4397,3.4397,3.4397,3.428,3.3744,3.2751,3.181,3.1797,3.1418,3.0986,3.0986,3.0986,3.0986,3.0986,3.0986,3.0986,3.0973,3.0973,3.0865,3.0471,3.0401,3.0275,2.9926,2.9215,2.8686,2.8686,2.799,2.749,2.749,2.7689,2.7723,2.7523,2.749,2.749,2.749,2.749,2.749,2.749,2.749,2.7315,2.6899,2.6886,2.6628,2.6078,2.6078,2.5695,2.4992,2.5129,2.4873,2.3817,2.3895,2.3855,2.3669,2.3565,2.3272,2.2509,2.2237,2.1992,2.1399,2.1204,2.1144,2.1095,2.1993,2.2724,2.267,2.4614,2.6435,2.7341,2.8302,2.9337,3.0555,3.0869,3.0986,3.0986,3.1143,3.1496,3.2032,3.2241,3.2568,3.2947,3.2424,3.1993,3.181,3.1287,3.0986,3.0986,3.0986,3.0986,3.0986,3.0986,3.0986,3.0986,3.0986,3.0986,3.1052,3.2202,3.2685,3.2777,3.3927,3.4397,3.4397,3.4577,3.466,3.4714,3.4825,3.4867,3.4867,3.4867,3.4867,3.4867,3.4867,3.4867,3.4867,3.4867,3.4784,3.4596,3.4138,3.345,3.2748,3.2377,3.1847,3.1373,3.1235,3.1198,3.1161,3.1024,3.1099,3.1198,3.1198,3.1323,3.1357,3.1246,3.0861,3.0552,3.0472,2.9917,2.9363,2.8978,2.8684,2.8385,2.7954,2.798,2.7934,2.7723,2.7723,2.7723,2.7723,2.759,2.749,2.749,2.7623,2.763,2.7512,2.7656,2.7429,2.6862,2.6862,2.6538,2.5862,2.5508,2.5233,2.2909,2.2951,2.2951,2.2951,2.2829,2.2638,2.2273,2.2054,2.1857,2.148,2.1326,2.1253,2.1204,2.2121,2.2844,2.2804,2.4776,2.6658,2.7657,2.8364,2.9323,3.0734,3.1029,3.1099,3.1099,3.1099,3.1297,3.1758,3.1797,3.1954,3.2346,3.1993,3.1706,3.1484,3.1169,3.0986,3.0986,3.0986,3.0986,3.0986,3.1099,3.1061,3.0986,3.1099,3.1179,3.1365,3.2358,3.2935,0.0,3.4265,3.4647,3.4701,3.4839,3.4921,3.4921,3.5044,3.5086,3.5086,3.5086,3.5086,3.5086,3.5086,3.5086,3.5127,3.5195,3.5086,3.4841,3.4605,3.394,3.3207,3.2874,3.2195,3.1572,3.1434,3.1397,3.136,3.1248,3.1323,3.1397,3.1397,3.1522,3.1609,3.172,3.1399,3.1181,3.124,3.073,3.0186,2.9789,2.9327,2.8845,2.8485,2.8265,2.8118,2.8006,2.7954,2.7921,2.7921,2.7802,2.7736,2.7736,2.7868,2.7954,2.8006,2.8118,2.8009,2.7621,2.7344,2.7037,2.6707,2.6132,2.5865,0.0,2.3105,2.3079,2.3079,2.2646,2.2251,2.2251,2.1792,0.0,2.1399,2.1399,2.1388,2.1282,2.2225,2.2991,2.2911,2.4871,2.6742,2.7703,2.8557,2.9496,3.057,3.1063,3.131,3.131,3.131,3.1422,3.1744,3.1784,3.1784,3.1784,3.1784,3.1535,3.1075,3.1061,3.1024,3.1024,3.1024,3.1061,3.1061,3.1248,3.1235,3.1061,3.1288,3.1553,3.1914,3.2712,3.341,3.3978,3.4764,3.5086,3.5086,3.5127,3.5127,3.5127,3.5113,3.5113,3.5113,3.5113,3.5113,3.5113,3.5113,3.5113,3.5154,3.5305,3.525,3.5113,3.5073,3.422,3.3326,3.3286,3.2459,3.1646,3.1609,3.1609,3.1609,3.1609,3.1609,3.1609,3.1609,3.1646,3.172,3.189,3.1927,3.1963,3.2182,3.1573,3.1087,3.1047,2.9918,2.914,2.906,2.8638,2.8406,2.8384,2.8229,2.8112,2.8112,2.8112,2.8112,2.8112,2.8112,2.8164,2.8287,2.832,2.832,2.832,2.7621,2.7354,2.7467,2.6933,2.6677,2.2488,0.0,2.1819,2.1819,2.1711,2.1602,0.0,2.1494,2.1399,2.1399,2.1399,2.1534,2.1957,2.2648,2.3284,2.373,2.581,2.7557,2.8103,2.9792,3.0916,3.0716,3.1186,3.1522,3.1522,3.1522,3.1501,3.1433,3.1408,3.1408,3.1408,3.1408,3.1431,3.1461,3.1447,3.1373,3.1235,3.1373,3.1447,3.1447,3.1522,3.1485,3.1474,3.1987,3.2266,3.2414,3.3475,3.3993,3.4179,3.4846,3.5086,3.5127,3.5277,3.5318,3.5358,3.5521,3.5562,3.5562,3.5562,3.5562,3.5562,3.5562,3.5562,3.5467,3.5061,3.5117,3.5264,3.4981,3.4346,3.3684,3.3263,3.2614,3.2036,3.1853,3.1817,3.178,3.1646,3.172,3.1817,3.1817,3.1963,3.2073,3.2109,3.2146,3.2146,3.2182,3.206,3.1766,3.127,3.0937,3.041,2.9477,2.928,2.9212,2.9216,2.8629,2.8235,2.8235,2.8164,2.8112,2.8112,2.8183,2.8268,2.8287,2.8444,2.8522,2.8522,2.8355,2.8287,2.8292,2.771,2.7439,2.2655,2.2147,2.1769,2.1769,2.1592,2.1399,2.1399,2.1399,2.1399,2.1399,2.1616,2.1925,2.2251,2.3268,2.4123,2.4448,2.6538,2.8392,2.9173,3.0606,3.1456,3.1034,3.1418,3.1743,3.1743,3.1743,3.1633,3.1434,3.1434,3.1434,3.1434,3.1434,3.1485,3.1609,3.1683,3.1633,3.1434,3.1572,3.1609,3.1609,3.1683,3.1816,3.2022,3.2442,3.2869,3.3314,3.4019,3.4473,3.4794,3.5183,3.5399,3.5399,3.5521,3.5562,3.5562,3.5669,3.571,3.571,3.571,3.571,3.571,3.571,3.5533,3.5209,3.4897,3.475,3.4684,3.4438,3.3962,3.3471,3.3183,3.2653,3.2182,3.2073,3.2036,3.2,3.189,3.1963,3.2036,3.2036,3.2146,3.2218,3.2218,3.2218,3.2218,3.2218,3.2218,3.2096,3.1734,3.1754,3.1413,3.0427,3.0397,3.0284,2.9976,2.9549,2.9188,2.8871,2.8789,2.8624,2.8341,2.8675,2.8839,2.8839,2.8688,2.8734,2.9026,2.9026,2.9026,2.9012,2.8695,2.8543,2.3157,2.2686,2.2301,2.2231,2.1864,2.1496,2.1423,2.1399,2.1426,2.1507,2.1952,2.2386,2.2658,2.3892,2.4964,2.5236,2.7149,2.9048,3.0364,3.1124,3.1535,3.1441,3.1726,3.1963,3.1963,3.1963,3.1853,3.1646,3.1646,3.1646,3.1646,3.1646,3.1646,3.1683,3.1947,3.1988,3.184,3.176,3.176,3.184,3.1988,3.2297,3.2722,3.2993,3.3545,3.43,3.4579,3.4969,3.548,3.5642,3.571,3.571,3.571,3.571,3.571,3.571,3.571,3.571,3.571,3.571,3.5696,3.5601,3.5209,3.4761,3.4572,3.4165,3.3758,3.3664,3.3376,3.3074,3.2993,3.2659,3.235,3.2205,3.2277,3.23,3.2205,3.2277,3.2336,3.2336,3.2444,3.2516,3.2516,3.2408,3.2372,3.2516,3.2408,3.2372,3.2516,3.2584,3.2337,3.1683,3.1642,3.1413,3.0833,3.0612,3.0299,2.9844,2.969,2.9407,2.8926,2.9376,2.9659,2.9659,2.9153,2.9153,2.9659,2.9659,2.9659,2.9659,2.9659,2.9659,2.376,2.3238,2.2686,2.2301,2.2137,2.1973,2.1496,2.1399,2.1534,2.2074,2.2251,2.278,2.4313,2.4408,2.4733,2.6264,2.7691,2.9197,3.092,3.1278,3.1514,3.1992,3.2128,3.2146,3.2146,3.2146,3.2073,3.1853,3.1853,3.1853,3.1853,3.1853,3.1927,3.2109,3.2634,3.2891,3.2854,3.2353,3.2353,3.2854,3.2891,3.3203,3.3709,3.4262,3.4587,3.475,3.5277,3.5548,3.5669,3.5669,3.571,3.571,3.571,3.571,3.571,3.571,3.571,3.571,3.571,3.571,3.5642,3.5087,3.487,3.4612,3.3634,3.3305,3.3129,3.2589,3.2789,3.2979,3.2477,3.2701,3.2889,3.2336,3.2632,3.2889,3.23,3.2632,3.3052,3.3052,3.3561,3.3973,3.3973,3.3457,3.3262,3.3871,3.3437,3.3262,3.3905,3.3989,3.3753,3.3151,3.2579,3.2238,3.2184,3.116,3.0703,3.1175,3.0659,3.0299,3.0222,3.0299,3.0359,3.0359,3.0238,3.0238,3.0359,3.0359,3.0359,3.0359,3.0359,3.0359,2.4213,2.3909,2.3486,2.2754,2.217,2.1712,2.1471,2.1643,2.1979,2.2251,2.2834,2.354,2.4367,2.5085,2.6142,2.7963,2.8994,2.9971,3.1137,3.1572,3.187,3.2191,3.2504,3.2572,3.2246,3.2504,3.2521,3.21,3.237,3.2546,3.2546,3.2806,3.3019,3.3132,3.3403,3.3539,3.3539,3.3268,3.3268,3.3539,3.3539,3.3851,3.4395,3.4666,3.4965,3.5276,3.5601,3.571,3.571,3.571,3.571,3.575,3.6076,3.6198,3.6239,3.6523,3.6483,3.6198,3.6198,3.6032,3.5744,3.5468,3.5221,3.4936,3.4395,3.4001,3.3677,3.3417,3.2982,3.2618,3.2715,3.296,3.3213,3.3311,3.3575,3.3699,3.3402,3.3575,3.3788,3.3788,3.4075,3.4312,3.4312,3.4007,3.3905,3.4245,3.3993,3.3939,3.4245,3.4647,3.4643,3.3994,3.3704,3.3397,3.3027,3.2099,3.1522,3.1508,3.0881,3.0673,3.1028,3.0703,3.0673,3.1028,3.0673,3.0673,3.1028,3.1028,3.1028,3.1028,3.1028,3.1028,2.4523,2.4359,2.3994,2.3246,2.2397,2.1739,2.1635,2.1979,2.2386,2.2671,2.3472,2.4272,2.4828,2.6321,2.7841,2.9108,2.9794,3.0405,3.1002,3.1599,3.2055,3.2191,3.2612,3.2721,3.2259,3.2626,3.2707,3.2246,3.2762,3.3101,3.3101,3.3634,3.3908,3.3908,3.4043,3.4111,3.4111,3.4246,3.4246,3.4111,3.4111,3.4423,3.4992,3.4992,3.5249,3.571,3.571,3.571,3.571,3.571,3.5791,3.5967,3.6429,3.6687,3.6877,3.7309,3.7187,3.6864,3.7044,3.6776,3.6326,3.6245,3.5876,3.5381,3.5091,3.4656,3.4312,3.4312,3.3506,3.281,3.3332,3.3596,3.3802,3.4211,3.4447,3.4514,3.4346,3.4447,3.4547,3.4547,3.4681,3.4828,3.4828,3.4681,3.4614,3.478,3.4681,3.4614,3.478,3.5302,3.5477,3.4933,3.479,3.4382,3.3475,3.2782,3.2188,3.1737,3.1233,3.1175,3.168,3.1233,3.1204,3.1709,3.1204,3.1204,3.1709,3.1709,3.1709,3.1709,3.1709,3.1709,2.4589,2.4219,2.3797,2.361,2.3179,2.2692,2.2325,2.2278,2.2631,2.373,2.4042,2.4773,2.704,2.8451,2.919,2.8722,2.9157,2.9801,3.0391,3.0975,3.1558,3.2151,3.2259,3.2259,3.2218,3.2259,3.2259,3.2218,3.2762,3.3101,3.3101,3.3634,3.3908,3.3908,3.4436,3.4734,3.4734,3.5276,3.5276,3.4734,3.4734,3.5032,3.5655,3.5655,3.5683,3.571,3.571,3.571,3.571,3.571,3.6035,3.6537,3.6578,3.6958,3.7431,3.7472,3.7458,3.7531,3.8352,3.819,3.7605,3.7215,3.6657,3.5923,3.4733,3.4341,3.4312,3.4312,3.4245,3.4177,3.4211,3.4714,3.5091,3.4447,3.4813,3.5124,3.4447,3.4846,3.5335,3.5335,3.5864,3.6352,3.6352,3.5769,3.5561,3.6258,3.5769,3.5576,3.6258,3.6383,3.6399,3.6352,3.5814,3.489,3.3521,3.2782,3.2398,3.2342,3.2272,3.2272,3.2327,3.2272,3.2272,3.2327,3.2272,3.2272,3.2342,3.2342,3.2342,3.2342,3.2342,3.2342,2.4609,2.4364,2.4122,2.4191,2.385,2.3427,2.3326,2.3649,2.4215,2.5037,2.5217,2.5846,2.7881,2.8329,2.8668,2.9577,2.9903,3.0269,3.0866,3.1477,3.1924,3.2191,3.2544,3.2612,3.2259,3.2544,3.2612,3.2246,3.2762,3.3264,3.362,3.419,3.4626,3.4992,3.5222,3.5344,3.5344,3.5601,3.5601,3.5344,3.5344,3.5506,3.571,3.571,3.571,3.571,3.571,3.571,3.575,3.6103,3.6388,3.6714,3.8007,3.888,3.952,4.0069,4.0064,3.9806,4.0118,3.9305,3.8106,3.7933,3.7193,3.6288,3.5823,3.5672,3.5672,3.5672,3.5672,3.5561,3.5091,3.519,3.5432,3.564,3.5879,3.6022,3.5737,3.5879,3.607,3.607,3.632,3.6492,3.6492,3.6289,3.6179,3.646,3.6258,3.6179,3.646,3.6492,3.6492,3.6492,3.5891,3.4922,3.3521,3.3167,3.2844,3.2428,3.2398,3.2398,3.2398,3.2398,3.2398,3.2398,3.2398,3.2398,3.2398,3.2398,3.2398,3.2398,3.2398,3.2398,2.4609,2.4637,2.4752,2.5068,2.4893,2.4769,2.5218,2.5333,2.5428,2.5827,2.6507,2.7369,2.8397,2.8573,2.8967,3.0215,3.0405,3.0622,3.1219,3.1802,3.2218,3.2218,3.2572,3.2653,3.2259,3.2572,3.2653,3.2246,3.2762,3.3292,3.3675,3.4626,3.537,3.5782,3.5987,3.6097,3.6097,3.5831,3.571,3.571,3.571,3.571,3.571,3.571,3.571,3.571,3.571,3.571,3.575,3.6157,3.6702,3.7456,3.9075,4.0224,4.1113,4.1769,4.1741,4.1401,4.1437,4.0497,3.9155,3.8802,3.7971,3.7046,3.6615,3.6492,3.6492,3.6492,3.6492,3.6383,3.5879,3.5737,3.5864,3.6383,3.6492,3.6492,3.6492,3.6492,3.6492,3.6492,3.6492,3.6492,3.6492,3.6492,3.6492,3.6492,3.6492,3.6492,3.6492,3.6492,3.6492,3.6492,3.5891,3.4999,3.3844,3.3537,3.3106,3.2428,3.2398,3.2398,3.2398,3.2398,3.2398,3.2398,3.2398,3.2398,3.2398,3.2398,3.2398,3.2398,3.2398,3.2398,2.463,2.5041,2.5632,2.6164,2.6394,2.6822,2.811,2.7169,2.5993,2.5923,2.7845,2.9325,2.8741,2.9591,3.0405,3.0418,3.0418,3.0622,3.1219,3.1802,3.2218,3.2218,3.2218,3.2218,3.2218,3.2218,3.2218,3.2218,3.2762,3.3088,3.3101,3.4946,3.5991,3.6005,3.6599,3.6897,3.6897,3.6137,3.571,3.571,3.571,3.571,3.571,3.571,3.571,3.571,3.571,3.571,3.571,3.5723,3.6959,3.8874,3.9479,4.0641,4.1976,4.2017,4.2017,4.2038,4.2248,4.1833,4.101,3.9879,3.9062,3.8246,3.6907,3.6492,3.6492,3.6492,3.6492,3.6492,3.6492,3.6492,3.6492,3.6492,3.6492,3.6492,3.6492,3.6492,3.6492,3.6492,3.6492,3.6492,3.6492,3.6492,3.6492,3.6492,3.6492,3.6492,3.6492,3.6492,3.6492,3.6492,3.5922,3.5244,3.4566,3.3829,3.3121,3.2444,3.2398,3.2398,3.2398,3.2398,3.2398,3.2398,3.2398,3.2398,3.2398,3.2398,3.2398,3.2398,3.2398,3.2398,2.4762,2.5119,2.5654,2.6291,2.6464,2.6862,2.8162,2.777,2.7265,2.7693,2.8356,2.9075,2.9748,2.9813,3.018,3.1446,3.1315,3.1232,3.1829,3.211,3.2218,3.2218,3.2218,3.2218,3.2218,3.2218,3.2218,3.2218,3.2381,3.2653,3.3074,3.4585,3.562,3.5991,3.713,3.7738,3.7738,3.751,3.7102,3.6559,3.7102,3.6805,3.571,3.571,3.6017,3.6559,3.6559,3.6883,3.7424,3.7855,3.8628,3.965,4.0456,4.1013,4.1516,4.219,4.241,4.2417,4.2498,4.1733,4.0649,4.0313,3.9123,3.7723,3.7323,3.6861,3.6492,3.6492,3.6492,3.6492,3.6492,3.6492,3.6492,3.6492,3.6492,3.6492,3.6492,3.6492,3.6492,3.6492,3.6492,3.6492,3.6492,3.6492,3.6492,3.6492,3.6492,3.6492,3.6492,3.6492,3.6492,3.6492,3.6307,3.5922,3.5275,3.4582,3.3889,3.3152,3.2659,3.2398,3.2398,3.2398,3.2398,3.2398,3.2398,3.2398,3.2398,3.2398,3.2398,3.2398,3.2398,3.2398,2.4726,2.5279,2.6006,2.6686,2.6875,2.7184,2.8247,2.8269,2.8218,2.8819,2.8957,2.9179,2.99,2.9925,3.0283,3.164,3.1541,3.1597,3.2478,3.2596,3.2596,3.2596,3.2596,3.2596,3.2596,3.2596,3.2704,3.3009,3.3044,3.3176,3.3575,3.4918,3.5963,3.6533,3.7609,3.8297,3.8583,3.825,3.7838,3.7372,3.7875,3.7572,3.6649,3.6649,3.6908,3.7372,3.7372,3.7663,3.813,3.8498,3.9241,4.0147,4.068,4.1257,4.1812,4.2404,4.2602,4.2571,4.2309,4.1663,4.0828,4.0274,3.9108,3.7861,3.7584,3.703,3.6492,3.6492,3.6492,3.6492,3.6492,3.6492,3.6492,3.6492,3.6492,3.6492,3.6492,3.6492,3.6492,3.6492,3.6492,3.6492,3.6492,3.6492,3.6492,3.6492,3.6492,3.6492,3.6492,3.6554,3.6554,3.6523,3.6554,3.6276,3.5568,3.5136,3.4489,3.346,3.3013,3.2702,3.2496,3.2425,3.2425,3.248,3.248,3.248,3.248,3.248,3.2453,3.2398,3.2398,3.241,2.4609,2.549,2.6556,2.7172,2.7528,2.7925,2.8466,2.8799,2.9068,2.9507,2.9495,2.9481,2.9654,3.0119,3.0698,3.1389,3.1525,3.1991,3.3143,3.3248,3.3213,3.3283,3.3248,3.3213,3.3283,3.3283,3.3596,3.4245,3.4312,3.4312,3.4312,3.5648,3.672,3.7379,3.8072,3.8717,3.9376,3.8672,3.8287,3.8213,3.8287,3.8287,3.8213,3.8138,3.8138,3.8213,3.8287,3.8324,3.8324,3.8324,3.9136,4.0409,4.0409,4.124,4.2417,4.2417,4.2417,4.2325,4.1709,4.1509,4.1294,4.0031,3.9154,3.8477,3.78,3.7123,3.6569,3.6507,3.6523,3.6523,3.6523,3.6523,3.6554,3.6554,3.6523,3.6492,3.6492,3.6492,3.6492,3.6492,3.6492,3.6492,3.6492,3.6492,3.6492,3.6492,3.6492,3.6492,3.6523,3.6631,3.6662,3.6554,3.6662,3.6414,3.569,3.5552,3.4936,3.3611,3.3473,3.319,3.2652,3.2496,3.248,3.2621,3.2621,3.2621,3.2621,3.2621,3.2551,3.2437,3.2407,3.24,2.4762,2.5596,2.6507,2.6662,2.8264,2.967,2.9307,3.0098,3.0763,3.0295,2.9435,2.9224,3.0725,3.1124,3.1606,3.2673,3.3321,3.3762,3.4013,3.3561,3.3422,3.3993,3.3561,3.3422,3.4007,3.4075,3.4143,3.4279,3.4312,3.4312,3.4312,3.5648,3.672,3.7379,3.8618,3.9543,4.025,4.0076,3.9657,3.9052,3.9692,3.9657,3.9,3.8399,3.8436,3.9088,3.9692,3.999,3.999,3.999,4.0167,4.0495,4.0495,4.0657,4.0935,4.0935,4.0935,4.092,4.0782,4.072,4.0674,4.0366,3.9828,3.9136,3.8492,3.7815,3.7169,3.6645,3.6585,3.6662,3.6662,3.677,3.6877,3.6877,3.6677,3.6492,3.6492,3.6492,3.6492,3.6492,3.6492,3.6492,3.6492,3.6492,3.6492,3.6492,3.6492,3.6554,3.6631,3.6693,3.6754,3.6877,3.6908,3.6892,3.6705,3.6056,3.5344,3.4607,3.3978,3.3389,3.2874,3.2648,3.2648,3.2843,3.2843,3.2843,3.2843,3.2676,3.2617,3.2637,3.2482,3.2395,2.4802,2.5617,2.6653,2.7273,2.8913,3.0215,2.9555,3.0479,3.1395,3.1006,2.9913,2.9428,3.0697,3.1221,3.1891,3.3089,3.3858,3.4413,3.478,3.4514,3.4413,3.478,3.448,3.4413,3.478,3.4828,3.496,3.5335,3.5367,3.5367,3.5367,3.6036,3.6778,3.7446,3.8463,3.9354,3.9997,4.0336,4.0301,3.9884,4.0301,4.0266,3.9849,3.9427,3.9463,3.9884,4.0301,4.0489,4.0489,4.0489,4.0489,4.0489,4.0489,4.0489,4.0489,4.0489,4.0489,4.0489,4.0489,4.0489,4.0489,4.0489,4.0096,3.9581,3.9226,3.8719,3.8118,3.7421,3.7266,3.725,3.6939,3.6908,3.7015,3.7015,3.6877,3.6708,3.6616,3.6616,3.6616,3.6616,3.6616,3.6647,3.6708,3.6754,3.6754,3.6754,3.6754,3.677,3.6831,3.6907,3.6968,3.7015,3.706,3.7075,3.7015,3.6581,3.6068,3.5455,3.4711,3.4151,3.3879,3.3435,3.3102,3.3005,3.2962,3.2947,3.2947,3.2939,3.2795,3.2541,3.2462,3.2399,2.4802,2.5617,2.6824,2.8105,2.9335,3.0103,2.9674,3.0571,3.1518,3.1643,3.0598,2.9888,3.0602,3.1251,3.2047,3.314,3.3995,3.4717,3.5332,3.5389,3.5432,3.5561,3.5464,3.5432,3.5576,3.5593,3.5847,3.646,3.6492,3.6492,3.6492,3.6492,3.6799,3.7477,3.8154,3.8831,3.9474,4.0151,4.0489,4.0489,4.0489,4.0489,4.0489,4.0489,4.0489,4.0489,4.0489,4.0489,4.0489,4.0489,4.0489,4.0489,4.0489,4.0489,4.0489,4.0489,4.0489,4.0489,4.0489,4.0489,4.0489,4.0524,4.0276,3.9964,3.9889,3.9568,3.9121,3.8403,3.8122,3.7919,3.7357,3.7154,3.7106,3.7106,3.7106,3.703,3.6785,3.6754,3.6754,3.6754,3.6754,3.68,3.6969,3.7015,3.7015,3.7015,3.7015,3.6999,3.703,3.721,3.7314,3.721,3.7314,3.7328,3.721,3.7195,3.6883,3.6121,3.5564,3.5134,3.487,3.4278,3.3787,3.3382,3.3277,3.315,3.3061,3.3214,3.3045,3.2549,3.2447,3.2634,2.4802,2.5617,2.6831,2.8232,2.9055,2.9679,3.0144,3.0849,3.1598,3.2239,3.1293,3.0743,3.19,3.2257,3.26,3.327,3.4484,3.5386,3.5477,3.5453,3.564,3.6289,3.5784,3.564,3.6289,3.6352,3.6383,3.6492,3.6492,3.6492,3.6492,3.6492,3.6799,3.7477,3.8154,3.8831,3.9474,4.0151,4.0489,4.0489,4.0489,4.0489,4.0489,4.0489,4.0489,4.0489,4.0489,4.0489,4.0489,4.0489,4.0489,4.0489,4.0489,4.0489,4.0489,4.0489,4.0489,4.0489,4.0489,4.0489,4.0524,4.0696,4.0737,4.0585,4.0193,4.0025,3.9807,3.9153,3.8623,3.8231,3.8167,3.7787,3.7421,3.7421,3.7421,3.7361,3.703,3.6969,3.6969,3.6969,3.6969,3.6969,3.7015,3.7015,3.7015,3.7015,3.7015,3.703,3.7164,3.7653,3.8014,3.8124,3.8153,3.8153,3.8124,3.8014,3.7482,3.6411,3.6538,3.6066,3.4771,3.4686,3.4635,3.4569,3.4274,3.3843,3.3265,3.33,3.3269,3.3169,3.2628,3.3607,2.578,2.6289,2.6914,2.8256,2.9002,2.9571,3.0248,3.1213,3.2173,3.2856,3.2852,3.2676,3.2497,3.2497,3.2705,3.3288,3.4574,3.5506,3.5506,3.5798,3.6148,3.646,3.6211,3.6148,3.646,3.6492,3.6492,3.6492,3.6492,3.6492,3.6492,3.6492,3.663,3.6923,3.7954,3.8646,3.8954,3.9967,4.0489,4.0489,4.0489,4.0489,4.0489,4.0489,4.0489,4.0489,4.0489,4.0489,4.0489,4.0489,4.0489,4.0489,4.0489,4.0489,4.0489,4.0489,4.0558,4.0662,4.0662,4.0746,4.0864,4.0932,4.1003,4.1042,4.0845,4.0866,4.0791,4.0115,4.0024,3.9903,3.9136,3.8995,3.8869,3.8139,3.7943,3.7899,3.7754,3.7653,3.761,3.761,3.7419,3.7271,3.7271,3.7271,3.7271,3.7271,3.7271,3.7301,3.7375,3.787,3.8238,3.8278,3.8601,3.8794,3.8794,3.8756,3.8487,3.7984,3.7454,3.6975,3.6662,3.5786,3.5423,3.5643,3.4396,3.3584,3.3291,3.444,3.4984,3.4967,3.4717,3.5199,2.672,2.6922,2.711,2.8536,2.9175,2.9622,3.0248,3.132,3.2336,3.3013,3.3706,3.3974,3.3154,3.2854,3.2879,3.3312,3.4429,3.5321,3.5491,3.6061,3.6492,3.6492,3.6492,3.6492,3.6492,3.6492,3.6492,3.6492,3.6492,3.6492,3.6492,3.6492,3.6492,3.6492,3.7646,3.8338,3.8508,3.9813,4.0489,4.0489,4.0489,4.0524,4.0558,4.0524,4.0524,4.0558,4.0524,4.0489,4.0489,4.0489,4.0524,4.0558,4.0558,4.0608,4.0643,4.0643,4.0746,4.0882,4.0882,4.095,4.1117,4.1135,4.1205,4.1323,4.1357,4.1489,4.1511,4.1214,4.1307,4.1239,4.0154,4.0109,3.9985,3.882,3.8546,3.849,3.8334,3.8339,3.8327,3.8185,3.803,3.7873,3.7743,3.7831,3.7889,3.7743,3.7698,3.7698,3.7698,3.8185,3.8585,3.8723,3.9146,3.9401,3.9401,3.9401,3.9289,3.9063,3.8517,3.8146,3.8026,3.7382,3.6776,3.6315,3.4825,3.4057,3.4084,3.5562,3.6309,3.629,3.629,3.6306,2.7171,2.7232,2.7353,2.9262,2.9654,2.9732,3.0299,3.0951,3.1655,3.2305,3.2982,3.366,3.4261,3.3831,3.337,3.3398,3.4058,3.4782,3.5429,3.6061,3.6492,3.6492,3.6492,3.6492,3.6492,3.6492,3.6492,3.6492,3.6492,3.6492,3.6492,3.6492,3.6492,3.6492,3.7184,3.7861,3.8508,3.9813,4.0489,4.0489,4.0489,4.0593,4.0765,4.0593,4.0593,4.0765,4.0593,4.0489,4.0489,4.0489,4.0627,4.0799,4.0799,4.0916,4.1083,4.1083,4.1083,4.1083,4.1083,4.1083,4.1102,4.1239,4.129,4.1357,4.1522,4.1588,4.1737,4.2332,4.2004,4.1443,4.1259,4.0746,4.0111,3.9344,3.9152,3.9001,3.8418,3.8739,3.8974,3.8407,3.8739,3.892,3.8351,3.8728,3.892,3.8351,3.8266,3.8266,3.8266,3.8767,3.9348,3.9851,3.9952,3.9952,3.9952,3.9952,3.958,3.8702,3.9927,3.9768,3.7617,3.9532,3.9249,3.6344,3.6205,3.6149,3.6146,3.6254,3.6295,3.6297,3.6297,3.6297,2.7211,2.7253,2.7287,2.8834,2.9474,2.9866,3.0412,3.1051,3.1828,3.2841,3.3229,3.3629,3.4366,3.4289,3.412,3.412,3.4705,3.5244,3.5475,3.6061,3.6492,3.6492,3.6492,3.6492,3.6492,3.6492,3.6492,3.6492,3.6492,3.6492,3.6492,3.6492,3.6554,3.6631,3.7201,3.8031,3.9139,4.0043,4.0489,4.0489,4.0489,4.0593,4.0799,4.073,4.0799,4.1,4.0932,4.0814,4.0696,4.0814,4.0932,4.1,4.1,4.1034,4.1117,4.1117,4.1153,4.1239,4.1239,4.1305,4.1439,4.1489,4.1489,4.1522,4.1588,4.1588,4.1753,4.2396,4.2684,4.2743,4.2618,4.2361,4.1741,4.0103,3.9697,3.9645,3.9447,3.9279,3.9242,3.9368,3.9279,3.9109,3.8903,3.9055,3.9125,3.892,3.8892,3.8892,3.8892,3.9358,3.9774,3.9978,4.036,4.0573,4.0573,4.0573,4.0424,4.0101,4.0584,4.0521,3.9717,3.9057,3.8887,3.9244,3.9252,3.8276,3.63,3.6306,3.6315,3.6301,3.6301,3.6301,2.7854,2.7737,2.7614,2.8936,2.9579,3.0014,3.055,3.1156,3.1785,3.2396,3.3048,3.3576,3.3823,3.4239,3.4641,3.4813,3.5213,3.5598,3.5784,3.6215,3.6492,3.6492,3.6492,3.6492,3.6492,3.6492,3.6492,3.6492,3.6492,3.6492,3.6492,3.6554,3.6647,3.68,3.7575,3.8424,3.932,4.018,4.0627,4.0712,4.0627,4.073,4.0969,4.0901,4.0984,4.1169,4.1169,4.1052,4.0916,4.1034,4.1135,4.1169,4.1169,4.1187,4.1254,4.1254,4.1305,4.139,4.139,4.1489,4.1588,4.1588,4.1588,4.1654,4.1867,4.1932,4.2126,4.3003,4.3529,4.3801,4.3664,4.3211,4.2366,4.0717,4.0294,4.0294,4.0294,4.002,3.9833,3.9978,3.9868,3.9705,3.9506,3.9636,3.9705,3.9506,3.948,3.948,3.948,3.9774,4.0078,4.0269,4.0662,4.0912,4.0912,4.0912,4.0912,4.0912,4.0913,4.0906,4.0888,3.9457,3.9361,4.0862,4.0908,3.9901,3.7856,3.6801,3.6302,3.6302,3.6297,3.6301,0.0,0.0,0.0,2.9698,3.0036,3.016,3.067,3.1187,3.1404,3.0906,3.2291,3.3389,3.2729,3.3733,3.4835,3.5397,3.5491,3.5737,3.6368,3.6476,3.6492,3.6492,3.6492,3.6492,3.6492,3.6492,3.6492,3.6492,3.6492,3.6492,3.6492,3.6631,3.68,3.6984,3.8294,3.898,3.9011,4.0186,4.0901,4.1117,4.0916,4.0987,4.129,4.1169,4.1187,4.1323,4.1323,4.1254,4.1117,4.1117,4.1187,4.1323,4.1323,4.1423,4.1588,4.1588,4.1588,4.1588,4.1588,4.1588,4.1588,4.1588,4.1588,4.172,4.2396,4.2617,4.2865,4.4145,4.4502,4.4472,4.4311,4.3172,4.1843,4.1084,4.0912,4.0912,4.0912,4.0912,4.0734,4.0145,4.05,4.071,4.0145,4.0524,4.071,4.0103,4.0028,4.0028,4.0028,4.0028,4.0245,4.0847,4.0912,4.0912,4.0912,4.0912,4.0912,4.0912,4.0912,4.0912,4.0912,4.0912,4.0912,4.0912,4.0897,4.0903,4.0886,3.7907,3.6392,3.6302,3.6302,3.6301,2.9614,0.0,0.0,0.0,0.0,0.0,3.0648,3.0551,3.0498,3.0735,3.0849,3.126,3.2493,3.297,3.3565,3.4713,3.5332,3.5688,3.5768,3.6261,3.66,3.6523,3.6492,3.6492,3.6492,3.6585,3.66,3.6523,3.6585,3.66,3.6523,3.6785,3.6938,3.7015,3.7903,3.8623,3.8996,3.9804,4.052,4.1117,4.1034,4.112,4.129,4.1272,4.1323,4.1522,4.1522,4.1489,4.1472,4.1472,4.1456,4.1522,4.1522,4.1555,4.1588,4.1588,4.1588,4.1588,4.1588,4.1588,4.1588,4.1588,4.1588,4.172,4.2396,4.2617,4.2865,4.4145,4.4502,4.4353,4.3675,4.3189,4.2534,4.1205,4.0912,4.0912,4.0912,4.0912,4.0847,4.0686,4.0799,4.0847,4.0686,4.0799,4.0847,4.0686,4.0662,4.0662,4.0662,4.0662,4.071,4.0871,4.0912,4.0912,4.0912,4.0912,4.0912,4.0912,4.0912,4.0912,4.0912,4.0912,4.0912,4.0912,4.0907,4.0896,4.0896,4.0047,3.8466,3.6297,3.6302,3.6315,3.0359,3.0168,2.995,3.0381,0.0,0.0,3.0674,3.0471,3.0307,3.0506,3.0423,3.0654,3.1826,3.2173,3.2625,3.3755,3.4501,3.5015,3.5163,3.5564,3.595,3.6152,3.6137,3.6199,3.6554,3.6662,3.6693,3.6724,3.677,3.6831,3.6785,3.6984,3.7105,3.7211,3.7915,3.8591,3.9219,3.9812,4.0516,4.1321,4.1221,4.1272,4.1423,4.1423,4.1489,4.1588,4.1588,4.1588,4.1588,4.1588,4.1588,4.1588,4.1588,4.1588,4.1588,4.1588,4.1588,4.1588,4.1588,4.1588,4.1588,4.1588,4.1785,4.2142,4.2771,4.3169,4.3604,4.4614,4.4879,4.4619,4.3485,4.3189,4.281,4.1274,4.0912,4.0912,4.0912,4.0912,4.0912,4.0912,4.0912,4.0912,4.0912,4.0912,4.0912,4.0912,4.0912,4.0912,4.0912,4.0912,4.0912,4.0912,4.0912,4.0912,4.0912,4.0912,4.0912,4.0912,4.0912,4.0912,4.0912,4.0912,4.0912,4.0912,4.0912,4.0912,4.0912,4.0891,3.9983,3.82,3.6901,3.6302,3.1181,3.0925,3.0642,3.0642,3.0601,0.0,3.0788,3.0716,3.0534,3.0274,3.0616,3.0977,3.1031,3.1498,3.2113,3.2834,3.3482,3.406,3.4534,3.469,3.4969,3.5545,3.5488,3.5721,3.6507,3.6615,3.6723,3.6938,3.6984,3.7044,3.7178,3.7194,3.73,3.748,3.8081,3.876,3.9487,3.9959,4.0684,4.1588,4.1423,4.1423,4.1588,4.1588,4.1588,4.1588,4.1588,4.1654,4.1704,4.1704,4.1687,4.1621,4.1687,4.1704,4.172,4.1802,4.1802,4.1802,4.1802,4.1802,4.1802,4.1802,4.2206,4.2818,4.3439,4.4042,4.4614,4.522,4.5397,4.5052,4.3586,4.3189,4.281,4.1274,4.0912,4.0912,4.0912,4.0912,4.0912,4.0912,4.0912,4.0912,4.0912,4.0912,4.0912,4.0912,4.0912,4.0912,4.0912,4.0912,4.0912,4.0912,4.0912,4.0912,4.0912,4.0912,4.0912,4.0912,4.0912,4.0912,4.0912,4.0912,4.0912,4.0912,4.0912,4.0912,4.0912,4.0897,4.0902,4.0829,3.8081,3.6818,3.1671,3.1615,3.1559,3.1559,3.1257,0.0,3.1033,3.078,3.0507,3.0443,3.0515,3.0751,3.1303,3.1877,3.2508,3.3265,3.3627,3.3874,3.4032,3.4623,3.5026,3.5052,3.4938,3.5129,3.584,3.6038,3.6301,3.6723,3.6908,3.7044,3.7178,3.7194,3.73,3.748,3.7636,3.827,3.9487,3.9598,4.0308,4.1588,4.1555,4.1555,4.1588,4.1588,4.1588,4.1588,4.1588,4.19,4.2396,4.2396,4.2093,4.1654,4.2174,4.2396,4.2443,4.2939,4.3122,4.3122,4.3122,4.3122,4.3122,4.3122,4.3213,4.3453,4.41,4.4418,4.4614,4.522,4.5397,4.5052,4.3586,4.3189,4.281,4.1274,4.0912,4.0912,4.0912,4.0912,4.0912,4.0912,4.0912,4.0912,4.0912,4.0912,4.0912,4.0912,4.0912,4.0912,4.0912,4.0912,4.0912,4.0912,4.0912,4.0912,4.0912,4.0912,4.0912,4.0912,4.0912,4.0912,4.0912,4.0912,4.0912,4.0912,4.0912,4.0912,4.0912,4.0901,4.0891,4.0879,4.0279,4.0007,3.2455,3.2352,3.2265,3.1886,3.1617,0.0,0.0,3.0928,3.0744,3.0539,3.0497,3.0829,3.1863,3.2232,3.278,3.3971,3.3941,3.3937,3.4298,3.4191,3.4215,3.4476,3.4325,3.4503,3.5245,3.5738,3.6296,3.7042,3.7211,3.7301,3.7345,3.7359,3.7405,3.751,3.751,3.8128,3.9487,3.9503,4.0198,4.1588,4.1588,4.1588,4.1588,4.1588,4.1769,4.2093,4.2093,4.2443,4.3047,4.3047,4.2863,4.2584,4.2925,4.3047,4.3078,4.3393,4.3512,4.3512,4.3512,4.3512,4.3512,4.3512,4.3735,4.4071,4.4401,4.4714,4.5015,4.53,4.5397,4.5139,4.4052,4.3483,4.2896,4.174,4.117,4.0912,4.0912,4.0912,4.0912,4.0912,4.0912,4.0912,4.0912,4.0912,4.0912,4.0912,4.0912,4.0912,4.0912,4.0912,4.0912,4.0912,4.0912,4.0912,4.0912,4.0912,4.0912,4.0912,4.0912,4.0912,4.0912,4.0912,4.0912,4.0912,4.0912,4.0912,4.0912,4.0912,4.0907,4.0891,4.0891,4.0897,3.3352,3.3128,3.299,3.2386,3.2231,3.2156,0.0,0.0,0.0,3.126,3.1182,3.155,3.2677,3.2907,3.3367,3.4674,3.4478,3.4342,3.4887,3.4077,3.3604,3.404,3.3775,3.3889,3.4672,3.5419,3.624,3.7227,3.7275,3.7368,3.7494,3.751,3.751,3.751,3.751,3.8128,3.9487,3.9503,4.0198,4.1588,4.1588,4.1687,4.1802,4.1802,4.2142,4.2756,4.2756,4.3108,4.3689,4.3689,4.3748,4.3864,4.3718,4.3689,4.3706,4.3806,4.3864,4.3864,4.3864,4.3864,4.3864,4.3864,4.4243,4.4669,4.4669,4.5015,4.5397,4.5397,4.5397,4.5225,4.4501,4.3862,4.3207,4.243,4.1698,4.1174,4.1174,4.103,4.0903,4.0903,4.0903,4.0909,4.0888,4.0905,4.0899,4.0899,4.0909,4.0903,4.0903,4.0903,4.0903,4.0903,4.0903,4.0903,4.0903,4.0892,4.0899,4.0899,4.0905,4.0912,4.0912,4.0912,4.0912,4.0912,4.0912,4.0912,4.0912,4.0912,4.0912,4.0912,4.0912,4.0896,3.4182,3.3975,3.3941,3.3852,3.3854,3.3818,3.3778,0.0,3.3758,3.3699,0.0,3.3751,3.3885,0.0,0.0,3.5122,3.528,3.5436,3.5504,3.4981,3.448,3.4138,3.3535,3.3435,3.4124,3.4798,3.5558,3.6472,3.6519,3.6817,3.7478,3.751,3.751,3.751,3.751,3.8128,3.9487,3.9503,4.0198,4.1588,4.1588,4.19,4.2491,4.2491,4.2802,4.3393,4.3393,4.3764,4.439,4.439,4.4697,4.5123,4.4614,4.439,4.4457,4.4988,4.5177,4.5177,4.5177,4.5177,4.5177,4.5177,4.5247,4.5318,4.5318,4.5344,4.5397,4.5397,4.5397,4.5225,4.4501,4.4242,4.3983,4.3241,4.2649,4.223,4.223,4.1525,4.088,4.088,4.088,4.0893,4.0899,4.0913,4.0903,4.0903,4.0893,4.088,4.088,4.088,4.088,4.088,4.088,4.088,4.088,4.0908,4.0903,4.0903,4.0885,4.0912,4.0912,4.0912,4.0912,4.0912,4.0912,4.0912,4.0912,4.0912,4.0912,4.0912,4.0912,4.0894,3.4938,3.4731,3.4648,3.4217,3.4113,3.4113,3.4113,3.4113,3.4113,3.4113,0.0,0.0,0.0,0.0,0.0,0.0,3.5715,3.57,3.5963,3.5305,3.4738,3.4521,3.4202,3.4124,3.4521,3.4545,3.5037,3.6314,3.6393,3.6738,3.7462,3.751,3.751,3.751,3.751,3.8128,3.9487,3.9503,4.042,4.2174,4.2174,4.2506,4.3139,4.3139,4.3469,4.4071,4.4071,4.4429,4.5015,4.5015,4.5167,4.5371,4.5113,4.5015,4.5042,4.5318,4.5397,4.5397,4.5397,4.5397,4.5397,4.5397,4.5397,4.5397,4.5397,4.5397,4.5397,4.5397,4.5397,4.5328,4.5027,4.4613,4.4225,4.3914,4.3089,4.2395,4.2395,4.2301,4.2224,4.2224,4.2224,4.195,4.1053,4.0893,4.0895,4.0895,4.2393,4.3506,4.3506,4.3506,4.3506,4.3506,4.3506,4.3506,4.3506,4.3504,4.2741,4.1005,4.0901,4.0913,4.0906,4.0906,4.0903,4.0912,4.0912,4.0912,4.0912,4.0912,4.0912,4.0912,4.0912,4.0912,3.6077,3.5818,3.5666,3.4887,3.4697,3.4697,3.4697,3.4697,3.4697,3.4697,3.4697,0.0,0.0,0.0,3.568,3.6215,0.0,3.592,3.6259,3.5683,3.5168,3.5028,3.48,3.4709,3.4866,3.4519,3.4861,3.6209,3.6474,3.6844,3.7462,3.7642,3.7655,3.751,3.751,3.8128,3.9487,3.9503,4.053,4.2617,4.2617,4.3017,4.3748,4.3748,4.4128,4.4742,4.4742,4.4988,4.5397,4.5397,4.5397,4.5397,4.5397,4.5397,4.5397,4.5397,4.5397,4.5397,4.5397,4.5397,4.5397,4.5397,4.5397,4.5397,4.5397,4.5397,4.5397,4.5397,4.5397,4.5397,4.5397,4.501,4.4596,4.4596,4.3906,4.321,4.321,4.3528,4.3785,4.3785,4.3785,4.3433,4.2321,4.1452,4.1171,4.2021,4.4007,4.5405,4.5405,4.5405,4.5405,4.5405,4.5405,4.5405,4.5405,4.5403,4.447,4.2284,4.2139,4.2137,4.214,4.1349,4.0913,4.0909,4.0892,4.0894,4.0897,4.089,4.089,4.0897,4.0907,4.089,3.7823,3.7426,3.7236,3.6422,3.6232,3.6232,3.6232,3.6232,3.6232,3.6232,3.6232,3.6232,3.6266,3.6266,3.6266,3.6301,3.6301,0.0,0.0,3.628,3.6071,3.5616,3.5098,3.4809,3.4802,3.4794,3.5144,3.6039,3.6636,3.7116,3.749,3.7985,3.8042,3.751,3.751,3.8128,3.9487,3.9503,4.053,4.2617,4.2617,4.3246,4.4474,4.4474,4.4797,4.5371,4.5371,4.5371,4.5397,4.5397,4.5397,4.5397,4.5397,4.5397,4.5397,4.5397,4.5397,4.5397,4.5397,4.5397,4.5397,4.5397,4.5397,4.5397,4.5397,4.5397,4.5397,4.5397,4.5397,4.5397,4.5397,4.538,4.5363,4.5363,4.5328,4.5311,4.5311,4.5328,4.5328,4.5328,4.5328,4.5311,4.5276,4.2817,4.1904,4.4836,4.5338,4.5406,4.5406,4.5406,4.5406,4.5406,4.5406,4.5406,4.5406,4.539,4.5362,4.5262,4.5269,4.5269,4.5269,4.2454,4.0912,4.0913,4.0913,4.0901,4.0906,4.0909,4.0891,4.0884,4.0903,4.0891,3.8353,3.8237,3.8065,3.7267,3.7077,3.6939,3.6422,3.6301,3.6301,3.6301,3.6301,3.6301,3.6301,3.6301,3.6301,3.6301,3.6301,3.6301,0.0,3.6301,3.6237,3.6071,3.5638,3.5345,3.5345,3.5005,3.5332,3.6591,3.6885,3.7494,3.8569,3.8783,3.881,3.8634,3.8634,3.9303,4.0662,4.0678,4.1765,4.3869,4.3869,4.4288,4.5113,4.5113,4.5194,4.5397,4.5397,4.5397,4.5397,4.5397,4.5397,4.5397,4.5397,4.5397,4.5397,4.5397,4.5397,4.5397,4.5397,4.5397,4.5397,4.5397,4.5397,4.5397,4.5397,4.5397,4.5397,4.5397,4.5397,4.5397,4.5397,4.5397,4.5397,4.5397,4.5397,4.5397,4.5397,4.5397,4.5397,4.5397,4.5397,4.5397,4.5397,4.456,4.4224,4.5269,4.5415,4.5397,4.5397,4.5397,4.5397,4.5397,4.5397,4.5397,4.5397,4.5381,4.5407,4.5407,4.5407,4.539,4.5396,4.4413,4.3886,4.3863,4.1911,4.0905,4.0896,4.2056,4.2031,4.0905,4.0897,4.0893,3.906,3.8974,3.8801,3.8082,3.7892,3.7702,3.6887,3.6715,3.6715,3.6715,3.649,3.6473,3.7008,3.6663,3.6387,3.668,3.649,3.6301,0.0,3.6301,3.6301,3.6301,3.6028,3.5854,3.5854,3.5549,3.588,3.7202,3.7474,3.8053,3.9149,3.9375,3.9401,3.9206,3.9206,3.9885,4.1293,4.1293,4.2383,4.4502,4.4502,4.4824,4.5397,4.5397,4.5397,4.5397,4.5397,4.5397,4.5397,4.5397,4.5397,4.5397,4.5397,4.5397,4.5397,4.5397,4.5397,4.5397,4.5397,4.5397,4.5397,4.5397,4.5397,4.5397,4.5397,4.5397,4.5345,4.5096,4.519,4.5328,4.4966,4.5139,4.5397,4.5397,4.5397,4.5397,4.5397,4.5397,4.5397,4.5397,4.5397,4.5397,4.5397,4.5397,4.5397,4.5397,4.5397,4.5397,4.5397,4.5397,4.5397,4.5397,4.5397,4.5397,4.5397,4.5397,4.5397,4.5397,4.5397,4.5398,4.5407,4.539,4.5389,4.5384,4.3479,4.2588,4.2802,4.3372,4.3102,4.2003,4.2004,4.1692]}]]